GFSFLT1_sfc_wetblb_000.txt.gz
Wetbulb
51.95 51.68 51.43 51.45 51.19 50.34 50.93 51.09 51.02 51.25 51.63 51.86 52.36 52.75 53.28 53.62 53.13 52.95 52.96 53.26 52.90 52.98 52.88 53.16 52.41 51.04 49.93 50.13 50.13 51.18 52.38 53.86
52.32 51.63 51.63 50.88 50.97 50.09 50.27 50.28 50.82 50.63 50.28 50.19 50.47 50.48 51.52 52.65 52.78 51.96 52.07 52.62 51.99 52.67 51.87 51.02 51.56 50.65 50.18 49.85 49.05 48.54 48.61 50.96
50.61 51.08 51.31 50.86 50.74 50.51 50.08 50.01 50.54 50.57 50.54 51.07 51.57 51.04 51.11 52.23 52.31 51.91 51.91 51.73 51.71 51.23 50.43 50.22 50.60 49.46 49.80 49.80 49.16 47.34 47.15 48.91
49.95 49.71 50.56 51.15 50.72 51.06 50.41 50.29 50.08 50.49 50.47 50.15 50.08 49.97 49.85 49.40 49.94 50.57 51.64 51.99 52.10 51.99 51.40 50.78 50.53 50.25 48.90 49.18 49.15 47.93 45.59 47.08
48.82 49.77 50.18 50.78 51.45 52.02 51.02 50.41 49.85 49.82 50.73 49.39 49.10 48.06 47.21 48.64 49.26 49.94 50.37 51.09 51.48 51.66 51.56 51.58 51.44 50.76 49.43 48.92 48.43 48.41 47.59 45.52
49.11 49.51 49.93 50.93 51.50 51.65 51.37 50.29 49.62 49.58 49.61 49.92 48.94 48.37 48.51 49.15 49.04 49.00 49.56 50.12 50.26 50.36 50.59 51.09 51.02 50.73 50.09 49.68 49.31 48.28 47.73 46.46
49.74 49.17 49.27 49.87 51.56 50.83 50.71 49.61 48.98 49.36 49.35 49.19 48.56 47.92 48.01 46.97 47.36 46.76 47.04 47.52 47.92 48.22 48.35 48.45 48.60 48.60 48.43 48.56 48.92 48.73 48.16 47.46
50.48 49.73 48.54 49.00 49.54 49.58 49.15 48.59 47.84 48.56 48.07 48.02 47.98 47.72 47.35 45.82 44.97 45.42 44.47 43.97 44.60 45.30 45.53 45.30 45.18 45.42 45.57 45.80 45.96 46.17 46.69 46.02
50.51 49.68 49.42 49.23 49.01 49.26 49.02 47.60 47.10 47.86 46.92 46.72 46.83 45.91 44.94 44.98 42.88 43.99 43.12 42.31 41.77 43.11 42.76 43.10 43.59 43.65 43.80 43.88 43.67 44.30 44.93 46.37
50.26 50.06 48.94 49.06 49.33 49.38 48.86 47.51 46.62 46.13 45.51 44.89 43.91 43.96 42.40 41.58 42.27 42.87 42.72 42.54 41.82 41.89 42.03 41.83 42.10 42.28 42.48 42.75 42.30 43.00 44.06 45.55
50.71 50.86 50.48 50.02 50.11 49.35 48.59 47.08 45.46 44.66 43.91 42.94 42.54 42.00 41.57 41.78 41.72 41.16 41.58 41.68 41.41 41.06 40.74 40.90 40.84 40.90 41.24 41.28 41.08 42.22 41.76 43.77
50.44 50.52 51.24 51.02 49.02 46.50 44.75 44.38 44.35 42.73 42.23 41.74 41.31 41.26 40.77 41.05 40.78 40.89 40.70 40.68 40.32 39.68 39.55 39.38 39.09 39.11 39.70 39.56 39.75 40.12 39.82 40.61
50.46 50.73 50.22 48.54 45.33 44.33 43.28 43.64 42.84 42.31 41.93 40.82 40.65 40.72 40.24 39.96 40.04 40.07 40.42 39.28 39.57 39.11 38.60 37.99 37.73 37.74 38.03 37.69 37.46 38.20 38.06 38.34
49.92 50.37 48.19 45.63 43.99 43.29 42.03 42.39 41.79 41.52 40.85 40.11 39.54 39.23 39.71 39.52 39.76 39.75 39.52 38.89 38.34 37.95 37.24 36.48 36.36 36.34 36.40 36.78 36.83 36.79 37.13 37.56
48.63 49.17 47.39 43.94 42.85 42.40 41.10 41.32 41.55 40.85 40.24 39.34 38.98 39.13 38.90 39.31 39.13 38.66 38.31 37.78 36.40 36.03 36.10 35.76 35.63 35.55 35.45 35.63 35.72 35.37 35.22 34.98
47.56 46.39 45.56 42.96 41.70 41.29 40.60 41.26 40.66 40.38 39.36 39.32 39.09 39.26 39.24 38.61 37.96 37.72 37.05 36.02 35.41 35.54 34.74 34.77 34.96 34.79 34.57 34.92 34.23 32.92 32.18 31.69
45.84 44.67 42.68 40.96 40.28 40.00 40.93 40.38 41.07 41.02 39.51 38.74 38.69 38.20 38.05 37.33 36.92 36.01 35.24 34.73 34.60 34.61 33.91 33.71 33.83 33.66 32.39 31.51 30.19 29.75 29.41 29.85
43.86 42.23 41.03 39.93 39.72 41.97 41.90 42.39 41.71 39.35 38.47 38.05 37.39 37.13 35.95 35.71 35.07 34.23 33.44 33.21 33.68 33.08 33.23 33.44 32.78 33.05 31.52 30.11 29.50 29.70 30.11 30.48
43.11 41.33 39.66 40.33 42.71 43.02 42.38 40.31 38.90 38.10 37.15 36.46 36.47 35.67 34.69 34.41 33.45 32.74 32.65 32.69 32.11 32.09 32.33 32.32 31.59 31.31 29.96 29.44 28.88 29.91 30.39 30.84

GFSFLT1_sfc_wetblb_003.txt.gz
Wetbulb
55.13 55.49 55.39 55.32 55.51 54.52 54.19 53.86 53.87 54.04 53.71 54.32 54.37 54.48 54.57 54.79 54.58 54.27 54.41 53.60 53.22 53.40 53.70 53.73 52.89 51.85 51.13 50.92 50.25 50.21 49.63 50.31
55.63 55.69 55.38 54.68 55.18 53.67 53.15 53.05 53.26 52.83 52.20 51.60 51.88 52.01 52.80 53.40 53.51 53.29 53.17 53.10 52.65 53.10 52.21 52.04 52.36 51.03 51.09 51.39 50.50 49.82 48.82 49.89
53.96 54.84 54.99 54.80 54.11 53.62 53.23 52.87 52.95 52.61 52.40 52.67 52.85 52.82 52.48 53.15 53.44 53.53 53.63 53.29 53.17 52.37 51.95 51.38 51.44 50.73 51.41 51.10 50.24 48.31 49.10 50.39
52.29 53.05 54.20 55.02 54.42 54.35 53.46 53.08 53.12 52.90 52.82 52.16 51.74 51.94 51.66 50.71 51.12 51.76 52.97 53.48 53.30 52.97 52.56 51.89 51.71 51.35 49.79 50.76 50.11 48.89 46.27 49.13
52.11 52.27 53.54 54.20 54.78 55.35 54.65 54.04 53.32 53.04 53.01 51.38 51.66 49.44 48.68 50.30 51.42 51.12 51.16 52.51 52.54 52.55 52.19 51.66 51.36 50.93 50.34 50.64 50.07 50.44 49.58 46.36
52.42 52.86 53.59 54.21 55.21 55.06 54.99 54.28 53.45 53.12 52.48 52.33 51.17 49.96 50.67 50.27 50.53 50.60 50.81 51.28 51.58 51.09 51.17 50.90 50.52 50.20 50.63 51.45 51.11 50.81 49.83 48.88
52.99 54.00 53.99 53.41 55.02 55.09 55.02 54.16 53.23 52.97 52.34 51.53 50.86 49.76 50.23 49.12 49.56 48.66 49.30 49.62 49.63 49.96 48.43 48.89 48.79 48.46 48.04 49.34 50.28 49.63 49.21 49.03
52.85 52.92 53.09 53.41 53.03 54.08 54.08 53.41 52.49 52.60 51.96 51.58 51.50 51.05 49.97 48.81 47.73 46.77 46.02 45.07 45.54 45.99 46.57 46.67 45.35 45.54 45.66 46.05 46.56 46.79 46.25 45.63
52.66 52.95 53.29 53.02 53.15 53.37 53.45 52.60 51.76 51.92 51.60 50.84 50.47 49.81 48.30 47.86 46.64 44.72 43.98 44.18 44.57 44.96 44.48 44.22 43.82 43.84 43.87 44.67 44.75 45.04 45.70 45.53
52.91 53.46 53.55 53.38 53.06 53.06 53.99 53.19 52.50 51.68 50.73 51.14 49.48 48.41 46.81 45.23 44.79 44.67 43.90 44.31 43.65 43.92 43.48 42.80 42.81 42.93 42.83 42.72 43.54 43.49 44.53 45.14
52.44 52.86 53.09 53.28 53.58 53.82 54.63 53.26 51.95 51.34 50.16 48.79 46.90 45.70 44.84 44.06 44.01 42.87 42.65 42.94 42.92 42.50 42.01 41.71 41.57 41.58 41.73 41.94 42.22 42.52 43.00 43.49
51.85 52.38 52.96 53.41 53.97 52.80 51.67 50.94 50.04 49.36 48.05 46.26 44.66 43.91 42.96 42.34 41.86 42.18 42.36 42.37 41.76 41.03 40.67 40.64 40.59 40.34 40.64 40.60 40.60 41.11 40.95 41.30
52.21 52.00 52.36 52.42 52.50 50.83 49.70 49.12 47.52 47.12 45.72 44.21 42.84 42.63 41.92 41.52 41.49 41.86 42.14 40.98 41.14 40.52 40.47 39.92 39.46 39.28 39.33 38.69 38.60 38.84 39.00 38.89
51.13 50.85 51.49 51.19 50.62 49.06 48.02 47.21 45.90 44.93 43.97 42.96 41.86 41.23 41.07 41.07 40.98 41.34 41.21 40.31 40.27 40.16 39.58 38.55 38.26 38.17 37.87 38.19 37.69 37.73 37.92 38.39
50.07 49.95 50.12 50.08 49.54 48.45 46.74 45.60 44.92 43.83 42.76 42.16 41.91 41.76 41.14 41.16 40.84 40.49 40.47 40.38 39.28 38.77 38.41 37.76 37.53 37.35 37.21 37.00 36.70 36.66 37.20 37.14
49.13 48.05 47.90 49.12 47.72 46.48 45.57 44.59 43.60 43.27 42.52 41.99 41.55 41.92 41.68 40.85 40.28 40.05 39.87 39.25 38.22 37.58 36.86 36.97 37.01 36.89 36.20 36.18 35.78 34.89 34.50 33.71
47.97 46.89 46.77 47.59 45.46 44.66 44.11 42.87 43.10 43.86 43.20 41.82 41.50 41.13 40.21 39.49 39.25 38.81 38.31 37.14 36.68 36.46 35.95 35.83 35.32 35.29 34.27 33.88 33.21 32.71 31.53 30.22
46.04 44.92 46.33 46.93 44.43 43.92 42.47 43.02 43.63 43.07 41.51 40.78 40.40 39.22 38.38 38.14 38.11 37.63 36.13 35.75 35.85 35.26 35.00 34.83 34.11 34.64 33.68 33.08 31.79 31.05 30.26 30.03
43.55 45.83 46.92 44.94 43.11 43.62 43.81 43.33 42.25 40.71 40.70 39.78 39.01 38.50 37.39 37.50 36.96 35.62 35.39 35.25 34.41 33.95 33.75 33.66 33.19 33.13 31.96 31.47 30.92 30.16 29.54 29.74

GFSFLT1_sfc_wetblb_006.txt.gz
Wetbulb
55.23 55.61 56.59 55.92 56.81 55.79 55.41 54.74 54.56 54.95 54.13 54.03 53.89 53.76 53.78 53.65 53.70 53.28 53.35 52.49 52.26 50.91 51.39 50.80 50.45 49.28 48.58 48.22 47.58 47.45 47.21 46.67
56.61 56.63 56.49 55.30 56.07 54.72 54.01 53.37 53.87 52.73 51.92 51.04 50.91 50.79 51.92 52.56 52.83 53.14 52.91 52.31 52.26 51.05 50.33 49.77 50.14 49.08 48.34 48.09 47.41 46.25 45.86 47.09
54.55 55.71 55.79 55.32 54.65 54.53 53.77 53.43 53.43 52.75 51.78 51.56 51.68 51.92 51.61 51.80 52.32 52.11 52.15 52.71 51.78 51.32 50.45 48.90 49.12 47.93 47.93 48.16 47.54 45.26 45.86 45.98
52.66 54.83 55.08 55.65 54.40 54.36 54.31 53.38 52.93 52.87 51.97 51.57 51.48 51.32 50.19 49.29 49.63 50.02 51.36 51.91 52.21 51.74 50.85 49.71 48.83 48.46 47.44 46.91 46.05 45.60 43.33 44.73
53.03 54.15 53.64 54.84 54.33 55.61 54.69 54.08 53.15 53.02 53.04 50.42 49.63 48.15 46.57 47.88 48.26 49.30 49.90 51.72 51.28 51.12 50.73 50.41 49.07 48.33 47.28 47.51 47.94 46.74 44.93 42.42
52.08 52.31 53.29 54.45 54.28 54.94 54.51 54.16 53.69 53.26 52.63 51.43 49.61 48.41 48.41 48.75 48.84 49.43 49.20 49.16 50.08 50.03 49.87 49.45 47.91 47.54 47.03 45.96 45.57 45.44 45.27 43.91
52.28 53.03 53.58 52.93 54.62 54.19 54.74 53.82 53.14 53.27 52.50 51.72 50.06 47.84 48.20 47.64 47.59 46.43 47.30 47.69 47.35 48.27 47.25 45.96 45.75 45.14 44.21 43.61 43.24 43.09 42.96 42.88
51.99 52.01 52.29 52.76 52.97 53.84 54.41 53.46 52.20 52.71 52.45 51.80 50.38 49.41 48.54 47.59 47.45 46.45 46.01 44.49 44.25 44.21 44.44 43.79 43.24 43.00 43.08 42.69 41.62 40.97 41.10 40.90
52.15 53.35 53.54 53.31 53.57 53.61 53.19 52.45 51.65 52.25 51.93 51.52 50.63 49.93 48.13 47.71 47.29 45.99 43.65 43.00 43.24 44.02 43.04 43.00 42.86 42.76 41.96 41.42 40.74 40.35 40.15 40.00
52.71 53.00 53.35 53.18 53.22 52.83 52.31 52.35 52.63 52.06 51.87 51.25 50.00 48.94 47.85 46.05 46.36 44.21 43.26 43.50 43.11 43.24 42.64 42.09 41.94 41.52 41.01 40.28 39.24 39.06 39.71 39.52
52.40 52.37 52.14 52.62 52.90 53.33 53.26 52.96 51.07 50.47 50.39 50.23 47.64 46.41 45.69 44.38 43.82 42.97 42.47 42.06 42.02 41.81 41.33 41.01 40.38 39.86 39.66 38.87 37.68 38.25 38.30 38.45
51.87 52.14 52.58 52.27 52.73 51.88 51.24 49.97 49.07 48.52 47.81 47.39 44.91 44.37 44.04 42.90 42.23 41.67 41.33 41.55 41.10 40.82 40.27 39.33 39.11 38.59 38.35 37.34 36.96 37.39 36.77 36.66
50.77 50.91 51.25 51.17 50.96 50.69 50.72 48.77 47.46 46.88 46.57 44.49 43.38 42.88 42.37 41.21 41.10 41.36 41.75 40.63 40.92 40.27 39.60 39.07 38.49 37.95 37.45 36.51 35.79 36.26 35.71 35.04
50.06 50.37 49.84 49.82 49.43 49.48 49.95 47.69 46.49 45.71 44.01 42.90 41.73 41.13 40.84 40.47 40.72 41.16 40.59 40.35 39.57 39.27 38.94 37.76 37.31 36.76 36.21 35.87 35.70 35.26 34.78 34.76
49.59 49.03 48.88 49.05 49.05 48.61 48.15 46.18 45.83 44.29 42.98 41.92 40.88 40.08 40.91 41.08 40.92 40.48 40.07 39.60 38.77 37.94 37.53 36.89 36.22 35.65 35.74 35.53 35.14 34.12 33.75 34.02
47.83 47.44 47.77 47.76 47.84 48.14 46.15 45.45 44.60 43.56 42.14 41.33 41.70 42.35 41.96 41.05 40.48 39.64 39.12 38.50 37.88 37.02 35.78 34.98 34.94 35.12 35.45 33.76 33.31 31.97 31.26 31.16
46.67 47.03 45.93 46.57 47.01 47.10 43.91 43.89 43.39 43.20 41.80 42.39 42.83 41.78 41.34 39.61 39.02 37.97 37.64 36.77 35.48 34.69 33.75 33.63 33.02 34.61 34.59 34.72 33.39 30.33 30.06 29.67
46.16 45.01 45.40 46.56 46.32 44.20 42.00 42.89 43.86 42.84 42.07 40.87 40.28 40.49 39.07 37.94 37.92 36.89 35.40 33.36 33.55 32.32 32.28 32.41 31.66 31.98 34.33 33.89 32.59 29.46 28.54 28.37
45.19 45.40 45.91 46.43 43.94 42.23 43.06 43.67 42.95 40.61 39.86 39.93 40.57 39.04 37.47 36.95 36.24 34.78 32.79 32.25 31.47 31.16 31.01 31.18 30.32 31.23 32.18 31.95 31.26 28.83 28.60 28.58

GFSFLT1_sfc_wetblb_009.txt.gz
Wetbulb
49.77 49.68 50.06 49.64 49.68 49.61 49.85 49.08 48.86 49.87 48.96 48.02 48.30 47.97 48.18 49.09 50.31 50.31 50.85 50.02 49.87 47.41 48.06 48.16 47.61 46.37 45.81 45.47 44.48 44.97 44.43 43.66
49.55 49.87 49.16 49.30 49.24 49.00 49.00 48.45 48.61 47.92 46.54 45.98 45.64 46.20 47.32 47.46 47.66 49.90 49.59 49.21 48.84 47.39 46.36 47.11 47.06 45.76 45.41 45.08 44.82 43.56 42.75 43.86
49.62 49.63 48.56 48.43 48.33 48.53 48.14 48.51 48.21 47.62 47.07 46.27 46.13 45.86 46.58 47.14 48.09 48.04 49.07 48.63 48.42 47.54 46.94 45.71 45.63 44.92 44.27 44.45 44.99 43.21 43.29 43.09
47.43 48.58 47.90 47.81 48.15 48.63 49.48 48.69 48.32 48.07 47.55 46.71 46.21 46.01 45.64 45.03 46.02 46.34 47.13 48.27 48.48 48.04 47.12 46.37 45.58 45.07 44.01 44.26 43.44 42.57 40.62 42.58
47.83 46.39 45.02 47.15 48.47 48.66 49.58 49.88 49.08 48.64 47.78 45.61 45.09 44.69 43.58 44.48 45.05 45.37 46.16 48.04 48.53 48.86 48.37 47.13 45.93 45.21 43.86 43.94 45.57 43.90 42.49 40.16
47.26 47.31 48.41 46.82 48.28 48.88 49.94 50.06 49.78 49.77 47.88 46.47 44.86 44.38 45.32 45.88 45.94 45.55 45.30 46.88 47.93 48.36 46.95 46.35 45.39 45.00 43.89 42.25 40.84 40.98 42.08 41.31
47.22 47.63 48.42 48.54 48.90 48.46 48.98 48.83 49.52 49.84 49.23 48.20 46.71 45.30 45.89 44.62 44.35 44.08 44.76 45.60 44.78 44.39 44.08 42.39 42.35 41.19 41.39 40.37 39.81 39.77 38.31 39.00
46.12 45.47 47.25 46.94 47.42 47.17 47.64 47.92 48.34 48.91 48.34 48.07 47.76 47.31 45.92 45.01 44.26 43.39 42.36 42.48 41.91 41.64 41.88 41.50 41.25 41.73 41.48 41.34 40.52 39.64 38.69 37.80
47.19 46.59 47.05 46.93 47.16 47.08 47.29 48.29 48.56 48.37 47.78 47.54 47.56 47.35 47.00 46.22 45.49 43.87 41.18 40.59 41.51 41.42 41.16 41.14 40.88 40.93 40.99 40.96 40.29 39.44 38.32 37.37
47.03 46.62 47.31 47.19 47.46 47.68 47.10 47.29 48.16 48.25 47.54 46.15 46.15 46.12 44.14 43.02 40.74 39.92 40.88 40.98 41.36 40.67 40.50 39.98 40.43 40.76 40.75 40.32 39.12 37.84 37.12 37.33
47.13 46.45 46.83 46.92 47.09 46.62 46.69 46.79 46.73 46.44 45.42 44.32 43.23 42.21 40.71 40.34 40.33 39.79 39.44 39.53 40.26 40.11 40.10 40.27 40.25 39.95 39.58 38.50 37.36 37.28 36.43 36.44
45.80 46.33 46.89 46.62 46.49 46.46 46.30 47.05 47.15 43.93 43.46 42.40 41.17 40.39 39.50 39.08 39.80 39.44 39.37 39.75 39.93 40.15 40.10 39.75 39.34 38.32 38.39 37.52 36.44 36.07 35.18 35.00
46.38 45.98 45.99 45.86 46.27 46.33 47.05 47.01 46.00 42.98 41.59 40.22 39.66 39.12 38.25 37.60 37.88 38.90 39.36 38.61 39.68 39.11 39.20 38.80 38.35 37.97 37.49 35.86 35.05 34.98 34.13 33.63
46.04 46.25 46.75 46.22 45.56 46.17 46.43 46.94 42.43 41.76 39.82 38.48 37.96 37.68 37.23 37.06 37.36 37.73 38.46 38.51 38.53 38.25 38.19 37.51 37.24 36.65 35.73 34.74 34.17 33.75 33.25 33.00
45.36 45.36 45.56 44.72 45.45 45.79 45.13 43.18 41.92 40.71 38.98 37.76 36.91 37.00 36.64 36.79 36.92 36.57 37.54 38.12 36.86 36.51 36.49 36.45 36.06 34.74 34.40 33.94 33.75 32.49 31.38 31.28
44.77 44.86 44.05 44.05 45.04 45.28 43.56 40.62 41.29 40.37 39.27 37.64 38.31 38.40 38.47 39.47 38.62 37.46 36.87 36.56 36.34 35.85 34.97 33.61 32.93 33.02 33.79 31.90 30.79 29.74 28.46 28.41
44.58 45.18 44.66 44.54 44.92 43.39 41.12 41.23 41.47 42.71 41.01 39.39 40.10 39.99 39.22 38.77 37.75 37.38 36.25 34.87 34.09 32.73 31.43 31.07 30.40 32.65 33.98 34.35 32.05 28.35 28.20 27.84
43.99 44.13 43.89 44.14 43.54 41.12 39.65 41.33 42.11 41.67 40.80 40.30 40.10 39.98 39.39 38.76 37.33 35.66 33.94 32.05 30.78 29.40 29.08 29.08 28.52 28.37 33.15 32.94 32.40 29.07 27.65 26.96
43.48 43.46 43.10 41.15 39.58 39.76 41.13 41.36 42.24 40.56 39.87 39.85 39.91 39.99 38.00 35.02 34.18 33.03 30.65 29.10 28.28 27.76 27.59 27.45 27.10 28.75 31.91 32.27 31.65 29.04 27.66 27.54

GFSFLT1_sfc_wetblb_012.txt.gz
Wetbulb
48.42 47.93 48.30 47.95 48.08 48.55 48.48 46.47 48.93 48.94 47.51 46.44 46.58 46.63 46.55 47.34 50.14 50.28 51.05 50.30 49.87 46.58 47.71 47.23 46.34 45.53 44.66 43.87 42.94 43.36 42.99 42.05
46.45 47.20 47.40 46.77 46.86 47.56 47.79 46.86 46.45 46.56 45.17 44.51 43.91 45.11 45.92 45.95 47.25 50.44 49.89 49.53 49.10 46.56 46.05 46.91 46.53 44.56 44.42 43.97 43.30 42.90 41.53 42.12
47.25 46.84 45.66 47.15 46.84 46.76 46.57 47.05 46.92 46.35 45.11 44.63 44.78 44.30 45.21 46.21 46.76 46.78 49.21 48.80 47.67 46.74 45.59 45.52 45.17 44.50 43.92 43.96 44.08 42.08 42.03 41.97
46.51 47.17 45.65 44.92 45.85 46.73 47.70 47.21 46.81 46.94 46.46 45.18 44.31 44.10 43.91 44.04 44.63 44.87 46.63 48.14 48.08 47.05 46.09 45.28 44.02 43.96 42.92 42.65 42.67 41.42 39.62 41.28
45.63 45.22 44.17 45.73 46.50 46.22 46.89 48.31 47.45 47.17 46.60 44.41 43.61 44.90 44.67 45.53 45.32 44.27 45.62 47.45 47.36 47.32 46.38 45.64 44.50 44.23 43.07 42.87 43.27 41.36 40.57 38.79
44.75 44.91 46.85 46.84 47.30 47.49 48.32 48.91 48.50 48.93 47.45 45.47 44.08 43.05 45.12 46.12 43.25 43.22 43.32 44.59 46.23 46.87 46.22 45.73 44.64 43.87 41.72 40.22 39.10 37.48 39.87 38.07
45.81 46.55 45.60 46.14 46.50 46.61 47.41 47.74 48.21 48.26 48.13 47.11 45.10 43.83 44.89 43.99 43.82 42.93 42.71 43.02 42.69 43.56 43.82 42.70 42.11 41.56 40.81 39.68 39.14 38.13 37.89 39.05
44.46 44.52 45.31 44.71 44.72 45.57 46.44 46.68 47.78 49.13 47.24 46.85 46.76 45.91 45.57 44.31 44.15 43.69 43.89 42.61 41.12 39.84 40.24 39.97 39.99 40.09 40.52 40.77 40.95 40.36 40.08 38.95
44.75 45.58 45.28 45.71 46.50 46.21 47.23 47.88 47.93 48.21 47.18 46.69 46.20 45.72 45.26 45.27 44.73 43.82 41.95 41.97 40.43 40.49 40.10 40.30 40.94 41.48 41.35 41.74 40.69 40.11 39.60 38.08
44.44 45.57 45.46 45.26 45.37 45.67 45.67 45.96 45.69 47.03 46.21 45.49 43.79 43.62 44.03 43.16 40.42 39.87 40.52 40.08 40.69 40.06 40.64 41.24 42.07 42.07 41.53 40.59 38.99 38.44 38.70 37.97
44.62 44.69 45.35 45.21 44.79 45.42 45.70 45.95 46.59 46.63 45.85 42.70 42.35 40.95 40.70 39.16 38.33 37.59 38.20 39.44 40.68 41.04 41.87 42.42 42.11 41.01 39.95 39.16 38.18 37.59 36.43 36.08
44.02 45.39 46.36 47.21 47.56 47.24 46.36 45.11 44.82 44.67 43.00 41.53 40.16 38.11 38.16 37.59 37.45 37.54 37.90 39.81 41.08 41.20 40.97 40.45 39.91 39.26 39.24 37.79 36.36 36.05 35.00 34.44
44.17 44.55 45.09 45.18 44.77 44.37 44.12 45.09 44.32 42.56 40.46 39.78 38.76 37.36 37.05 36.15 36.42 37.00 38.18 38.75 39.01 39.82 39.35 38.79 38.67 38.20 36.96 35.74 34.37 34.54 32.79 31.97
43.86 44.31 44.80 44.49 44.49 43.80 44.45 44.18 41.25 39.83 39.31 38.01 36.74 36.00 35.41 34.99 36.13 37.02 37.73 37.77 38.35 37.60 37.73 36.54 36.55 36.23 35.22 34.33 33.50 32.66 32.05 32.18
43.98 43.57 43.64 43.57 43.69 43.47 43.74 41.08 39.49 39.05 37.69 36.05 35.27 35.06 34.69 35.79 36.25 36.26 36.44 36.52 35.93 35.32 35.61 35.44 35.49 34.58 33.39 32.89 32.49 30.74 29.56 29.63
43.34 42.86 43.25 43.65 43.66 43.37 41.65 39.54 40.45 40.84 40.33 39.84 37.84 37.98 36.98 36.96 35.89 35.66 36.45 37.27 36.33 34.94 33.87 32.19 31.47 31.48 32.14 30.60 30.06 28.66 27.74 27.60
44.25 44.18 43.94 43.86 43.12 42.20 39.94 41.62 41.84 41.35 39.25 40.00 40.33 40.18 39.82 39.12 38.97 38.06 36.89 36.06 34.36 32.42 30.71 29.96 29.25 31.05 32.69 33.37 31.75 27.92 27.96 27.36
42.97 43.51 43.59 42.47 40.70 39.64 38.81 39.79 40.80 41.06 40.77 40.51 40.44 40.39 39.28 38.22 38.52 37.09 34.69 31.61 29.88 28.64 28.06 27.80 27.31 27.74 31.75 32.56 32.46 28.67 27.60 27.24
43.37 43.47 42.41 40.52 39.10 38.76 39.05 39.86 39.81 39.04 38.86 39.28 39.05 38.31 37.99 36.44 33.77 31.28 29.09 28.34 27.51 26.80 26.76 27.22 26.42 27.48 31.09 31.68 31.63 28.32 27.31 27.35

GFSFLT1_sfc_wetblb_015.txt.gz
Wetbulb
46.56 47.03 47.47 46.88 48.05 49.53 49.21 49.00 51.02 50.13 47.82 46.63 45.93 45.82 46.25 46.34 47.72 49.80 50.40 49.85 50.20 47.32 47.66 47.78 45.71 44.86 44.17 42.72 42.14 42.07 41.71 41.20
44.13 45.12 45.50 45.85 46.55 47.50 47.06 45.49 47.68 46.08 44.55 44.04 43.45 44.58 44.92 45.01 45.97 49.04 49.98 49.72 49.11 46.78 46.07 46.78 45.38 44.41 43.89 43.18 42.11 41.43 41.33 40.73
45.33 45.01 44.20 45.54 46.29 45.97 45.99 45.85 45.22 45.43 44.70 44.10 44.02 43.50 44.20 45.16 46.02 46.36 48.87 49.52 49.07 47.54 45.64 46.06 46.10 44.19 43.24 42.94 42.31 41.16 41.00 40.95
44.69 45.24 43.89 43.68 44.68 45.10 45.88 45.88 45.62 45.62 45.37 44.11 43.45 43.06 43.11 42.76 43.77 43.84 46.30 49.04 49.59 47.88 46.30 45.58 45.21 45.39 44.03 42.84 42.37 41.44 39.96 40.20
44.20 44.56 44.47 44.90 45.49 44.97 45.44 46.53 46.25 46.14 45.35 44.16 42.90 42.76 43.89 45.53 46.04 45.16 45.46 46.26 48.03 48.88 47.90 45.71 44.84 44.47 42.51 41.88 42.82 40.68 39.89 38.15
44.51 45.26 45.51 44.97 45.28 44.96 45.01 46.37 47.56 47.68 47.20 45.48 44.36 42.99 44.76 45.74 44.85 42.48 43.55 43.88 45.90 46.88 47.45 46.95 45.73 45.18 43.52 41.56 39.23 37.55 37.84 36.77
43.85 44.67 44.78 45.31 44.92 44.38 44.89 45.91 46.75 47.09 46.54 46.20 45.12 43.90 44.46 44.14 44.44 42.88 44.09 42.59 42.70 43.76 44.50 43.69 42.14 40.62 38.60 38.48 39.54 38.89 39.16 39.00
43.38 43.32 43.68 44.51 44.38 44.28 45.30 45.69 46.07 46.48 46.18 46.07 46.45 45.88 44.57 43.83 43.97 44.04 43.13 40.51 38.41 38.67 39.87 40.34 39.37 40.47 40.47 41.95 40.89 40.53 40.49 39.24
43.11 43.51 43.37 43.75 44.09 44.47 44.98 45.58 45.79 46.45 46.38 46.28 45.89 44.67 43.62 43.74 43.66 42.98 41.91 39.01 37.50 38.48 39.64 41.26 41.61 41.86 41.55 41.30 40.81 40.40 41.06 40.42
42.58 43.78 43.89 43.88 44.27 44.62 44.60 44.83 45.26 45.19 45.21 44.67 43.48 41.88 41.52 41.99 39.93 38.65 37.49 38.20 39.26 39.09 40.55 41.47 41.88 41.84 42.58 41.90 40.16 39.19 39.08 38.66
42.91 43.49 44.28 44.87 44.96 44.50 44.39 44.29 44.14 44.31 43.82 42.23 41.77 41.32 40.13 39.25 37.03 36.64 37.15 38.13 39.29 40.34 41.18 41.83 42.12 41.84 41.02 40.48 38.53 37.83 37.21 36.32
42.81 43.63 44.42 44.49 44.30 44.00 43.60 43.70 43.18 43.18 41.88 39.62 39.57 39.38 37.63 36.47 35.89 36.32 37.19 38.82 39.69 40.52 40.04 40.62 40.60 39.58 38.96 37.85 37.20 36.36 35.18 34.52
43.68 44.75 45.20 44.10 43.92 43.31 42.90 42.66 42.69 40.46 38.79 38.69 38.08 37.23 35.95 35.14 35.48 36.35 37.56 39.00 40.01 39.44 38.62 38.55 38.72 38.35 37.53 35.54 34.10 33.91 32.60 31.91
45.17 44.96 44.90 44.09 43.82 43.64 43.31 42.87 39.80 39.06 38.34 37.19 36.04 35.21 34.31 33.74 34.69 36.74 37.77 37.95 37.83 37.45 36.57 36.04 35.86 35.49 34.55 33.55 32.69 32.14 31.53 31.13
44.15 43.53 43.79 43.01 43.38 43.41 43.04 40.80 39.31 39.29 37.34 35.83 34.83 34.19 34.97 34.42 36.14 35.80 36.07 36.97 36.25 35.38 35.81 35.46 34.65 32.46 31.91 31.58 30.89 29.65 28.65 29.03
43.60 43.34 42.14 42.89 43.00 42.38 41.19 39.15 39.81 40.35 39.16 37.85 37.67 38.14 37.74 38.07 38.63 38.41 38.20 38.56 38.14 34.93 32.92 30.96 30.43 30.29 30.75 29.67 29.53 28.68 28.10 27.54
43.33 43.60 42.88 43.16 42.82 41.35 39.34 39.28 39.43 40.35 39.30 39.17 40.39 40.67 40.58 39.54 39.18 36.99 37.49 36.97 34.49 31.91 30.41 29.84 28.60 30.06 32.07 32.74 31.52 27.95 27.96 27.37
42.27 42.12 42.54 43.53 42.18 40.00 38.10 38.22 39.39 39.80 38.80 38.88 40.67 40.54 38.99 37.77 37.59 37.53 34.90 30.91 29.36 28.53 27.99 27.67 27.25 27.39 30.74 31.70 32.03 28.51 27.12 26.78
40.91 42.01 43.30 41.70 39.23 38.27 37.95 38.45 39.12 38.69 38.52 38.13 37.51 37.28 37.38 34.90 31.57 29.79 28.49 28.08 27.15 26.45 26.56 26.74 26.35 27.21 30.06 30.32 30.23 27.81 26.07 26.47

GFSFLT1_sfc_wetblb_021.txt.gz
Wetbulb
51.92 52.26 52.62 54.19 55.99 57.73 58.34 58.45 58.90 58.29 58.01 57.44 57.24 56.41 56.81 56.42 56.49 56.07 56.48 56.80 57.31 57.35 57.27 57.31 57.38 56.66 56.68 56.10 54.34 52.57 51.32 50.95
50.37 50.27 51.55 52.45 53.85 55.35 56.43 56.94 57.51 56.79 56.09 55.16 55.06 53.91 54.02 54.26 54.51 54.06 54.22 54.69 55.30 56.04 56.00 56.16 56.06 54.70 55.08 55.10 54.00 52.20 50.47 50.56
49.91 50.52 50.57 51.69 53.07 54.34 54.53 54.60 52.29 52.27 53.62 52.73 52.28 51.31 52.10 51.78 52.39 53.15 53.52 53.53 54.02 54.03 54.46 54.50 54.81 54.11 54.03 53.51 52.14 50.81 50.18 50.74
50.04 50.18 50.42 50.88 50.73 50.58 50.65 51.18 51.49 51.47 51.47 51.88 52.15 52.61 52.60 52.39 53.28 53.09 53.64 53.42 53.02 52.75 52.92 53.39 53.43 53.16 52.77 53.94 52.73 50.91 50.20 50.06
48.44 48.95 49.16 49.31 49.75 51.27 51.80 52.07 52.35 52.14 52.60 52.05 51.24 50.12 49.29 50.94 50.85 51.39 51.52 52.46 52.18 51.98 51.70 51.78 52.18 52.31 51.65 51.98 52.59 51.34 50.24 49.10
47.51 48.12 48.74 49.46 50.40 50.94 51.85 52.25 51.81 51.56 51.35 51.26 50.55 49.19 49.34 49.68 49.77 49.61 50.14 50.95 51.47 50.85 50.13 49.95 50.26 50.89 51.19 50.63 50.51 49.09 49.20 46.61
47.88 48.82 50.02 50.26 51.38 51.55 51.72 51.50 51.04 51.36 51.28 51.29 49.92 48.20 47.88 47.66 48.21 47.95 48.72 48.95 49.45 48.62 46.93 47.76 47.68 47.55 47.02 46.94 46.16 45.52 45.74 45.20
47.62 48.36 49.29 50.04 50.10 49.91 50.50 50.49 49.66 50.49 50.41 49.80 49.41 47.82 47.42 47.56 47.63 47.45 46.70 46.77 47.44 45.87 45.50 46.17 45.50 45.39 45.42 45.64 45.39 45.13 44.84 43.07
47.66 48.16 49.25 49.58 49.80 50.11 50.30 49.76 48.89 49.63 49.75 49.29 48.88 47.83 47.33 47.24 46.91 46.75 45.79 45.01 44.99 44.79 44.94 45.30 45.20 45.37 45.47 45.16 42.68 42.27 40.27 38.68
48.16 49.51 49.84 49.74 48.57 49.31 49.65 48.98 48.33 49.21 49.29 49.06 47.13 47.06 46.26 45.67 45.92 45.32 44.39 44.23 43.83 44.49 44.95 44.86 44.93 44.85 43.50 42.41 40.67 39.29 39.83 39.60
48.96 49.63 49.72 50.00 49.89 50.15 50.12 49.97 48.68 48.60 48.69 47.60 45.52 45.64 45.58 45.17 43.91 42.70 42.50 43.16 44.25 44.29 44.40 43.90 42.92 43.53 42.97 42.21 41.79 41.16 39.99 39.82
47.95 48.50 49.38 49.63 49.65 49.55 49.05 48.83 48.28 47.77 47.42 45.03 45.45 44.85 44.33 42.48 41.05 41.42 41.85 42.94 43.88 42.97 42.07 41.47 40.64 40.24 40.87 41.38 40.95 40.83 39.91 39.13
47.61 47.91 48.08 48.15 47.95 48.11 48.21 48.79 48.52 47.62 45.19 45.27 44.74 43.66 41.84 40.07 40.11 40.95 42.12 41.45 41.77 41.77 41.28 39.73 39.03 38.76 39.87 38.90 37.11 37.08 36.27 35.39
47.40 47.55 47.18 46.43 46.28 46.83 46.67 47.52 47.13 45.61 44.67 44.43 43.63 41.48 39.61 39.61 40.73 40.60 41.54 40.79 39.94 39.73 38.96 38.58 39.12 38.27 36.36 35.74 35.30 34.97 34.98 34.92
46.34 46.05 45.49 45.00 44.66 45.67 45.90 45.48 45.08 44.44 43.89 43.57 42.37 40.27 40.74 40.51 39.90 39.74 39.99 40.27 39.64 39.94 39.31 37.13 36.03 35.22 34.74 34.58 34.45 34.37 33.93 33.57
44.40 43.36 42.69 43.45 44.03 43.39 43.04 42.79 43.09 43.34 42.76 42.33 41.62 41.06 41.79 40.97 40.56 40.97 40.72 40.53 39.99 39.81 36.61 34.15 33.48 32.96 32.84 32.90 33.17 32.91 32.35 32.11
42.15 41.56 42.43 41.35 39.90 39.71 40.08 40.59 41.63 42.58 41.69 41.51 41.00 40.95 41.28 40.75 40.16 40.88 40.74 40.58 39.32 35.28 33.44 32.47 32.42 31.99 31.03 31.34 31.47 31.71 31.14 29.94
40.42 41.01 39.83 38.69 38.73 39.25 39.50 40.36 41.24 39.94 40.22 40.91 39.82 38.84 38.95 39.25 37.67 35.47 33.99 33.87 33.71 32.66 32.15 31.89 31.35 31.25 29.79 30.04 29.76 30.14 29.79 29.64
40.65 39.46 38.40 38.72 39.14 39.40 40.16 40.52 39.71 38.79 38.26 38.41 37.43 36.06 35.21 34.66 34.17 33.52 33.15 32.58 31.58 31.28 31.06 30.99 30.41 29.94 28.77 28.76 28.93 30.26 29.78 29.38

GFSFLT1_sfc_wetblb_024.txt.gz
Wetbulb
61.49 60.93 61.48 61.63 62.71 63.61 64.32 64.86 63.85 62.93 63.60 63.33 62.23 61.96 61.73 61.66 60.60 60.02 59.89 59.75 59.88 60.03 59.76 59.96 60.37 59.67 59.21 59.05 58.95 58.97 57.83 56.57
56.52 56.76 57.28 57.52 58.81 59.82 61.35 61.37 61.53 61.83 61.89 59.84 59.52 58.66 58.45 58.29 58.52 58.28 58.51 58.67 58.60 58.78 58.39 58.67 59.08 58.53 58.72 58.74 58.26 57.73 57.10 57.37
55.04 56.28 56.92 57.26 57.67 57.98 58.20 57.29 57.09 57.09 58.63 57.74 57.45 56.67 57.20 57.89 58.59 58.85 58.74 58.05 57.72 57.12 57.10 57.01 57.58 57.10 57.59 57.57 57.54 56.27 56.27 56.74
53.83 54.55 55.60 56.50 56.20 56.37 56.40 56.90 57.07 57.04 57.32 57.94 58.25 58.66 57.94 56.79 56.31 56.23 56.26 55.90 55.84 55.84 56.01 56.11 56.12 56.13 55.27 56.28 56.37 55.77 54.11 55.60
53.44 54.06 54.81 55.58 56.15 57.20 56.95 56.72 56.60 56.38 57.03 56.29 55.50 54.52 53.36 54.25 54.67 54.90 54.36 54.89 54.41 54.24 54.48 54.83 55.06 54.95 54.42 54.63 54.83 54.78 54.56 52.54
52.70 53.46 54.39 55.26 56.38 56.67 56.94 56.74 56.18 55.97 56.18 55.60 54.58 53.69 54.26 54.48 53.41 53.37 53.63 53.61 53.28 53.10 53.49 53.27 53.24 53.42 53.48 53.56 53.48 53.44 53.39 52.31
53.23 54.31 55.18 55.08 56.33 56.26 56.30 55.49 54.87 55.01 54.66 54.28 52.77 51.63 51.95 51.84 51.61 50.45 50.47 50.79 51.15 51.89 52.08 51.91 52.02 51.73 51.08 51.02 50.87 50.04 49.83 49.18
53.15 53.15 53.85 54.35 54.75 55.16 55.06 54.83 53.76 54.13 53.48 53.12 52.65 51.87 51.69 50.74 50.21 49.56 48.93 48.82 49.23 49.82 50.53 50.49 50.54 49.91 49.38 47.98 46.32 45.59 43.81 42.60
52.43 52.86 53.66 54.04 53.96 54.33 54.68 54.15 53.39 53.17 52.72 52.38 52.58 52.02 51.49 50.77 49.98 49.22 48.39 48.15 48.58 49.65 49.47 49.11 48.27 47.76 46.83 45.96 46.34 42.65 40.49 39.52
52.03 53.07 53.82 54.09 54.36 54.21 53.99 53.41 53.08 53.05 52.57 52.63 52.29 51.43 50.66 49.50 49.40 48.66 47.56 48.02 47.93 48.34 47.87 47.30 46.88 45.81 45.50 45.85 43.78 43.30 42.77 42.47
52.27 52.62 52.72 53.23 53.65 54.14 53.85 52.46 51.77 52.31 52.43 52.38 50.73 50.42 50.42 49.28 48.08 46.43 46.46 47.29 47.43 46.07 45.38 44.21 42.84 42.31 41.99 42.91 42.62 42.54 41.72 41.90
51.10 51.58 52.17 52.73 52.65 52.27 51.22 51.15 51.20 51.59 51.74 50.82 50.27 49.71 48.68 47.40 46.07 45.91 46.33 45.84 43.82 42.20 42.05 41.06 40.11 39.99 40.50 40.76 40.60 40.62 39.89 39.73
50.85 51.15 51.82 51.14 50.69 49.92 50.13 50.44 49.69 49.32 49.30 49.07 48.51 48.35 47.16 45.74 44.96 45.09 45.52 43.44 43.21 41.40 40.30 40.23 40.98 40.73 41.20 40.78 40.00 39.56 38.50 38.36
50.30 50.66 49.99 49.27 48.11 48.56 48.29 47.69 46.40 46.75 47.07 46.91 46.97 46.52 45.28 44.70 44.15 43.18 42.30 42.33 42.60 42.48 42.51 41.78 40.94 40.50 39.79 39.51 38.81 38.45 38.44 37.93
49.70 49.37 48.42 46.96 47.36 46.46 44.93 44.80 45.66 45.64 45.81 45.70 45.18 44.15 42.86 42.72 43.09 42.32 43.02 43.46 42.64 42.41 42.10 40.96 41.09 39.08 38.28 37.86 37.13 36.92 36.75 36.67
47.82 45.93 45.89 46.15 44.42 43.47 43.83 44.24 44.46 45.13 44.39 44.02 42.93 44.76 42.52 41.87 40.50 40.88 42.19 42.73 42.18 41.48 40.40 39.47 38.69 37.88 36.90 34.84 34.93 35.15 35.03 34.80
44.43 42.71 44.60 43.21 42.21 42.22 42.56 43.25 43.75 44.27 43.47 42.58 41.75 42.40 42.15 42.06 42.23 40.89 40.66 39.61 39.25 38.91 38.16 37.51 36.99 36.43 31.36 30.79 31.15 32.99 33.56 33.56
42.10 43.77 43.22 42.48 42.30 41.97 42.16 43.08 44.00 43.32 42.41 41.54 40.94 40.72 40.00 39.68 39.40 38.80 38.40 38.08 37.87 37.16 36.89 36.45 35.81 35.71 30.27 29.96 29.54 31.85 32.40 33.32
42.08 44.05 42.83 42.68 42.51 42.16 42.73 43.14 42.44 41.81 40.26 40.41 39.91 39.38 38.46 38.50 38.13 37.51 37.35 37.02 36.39 35.95 35.68 35.31 34.65 34.29 30.25 29.20 28.58 31.50 32.69 32.74

GFSFLT1_sfc_wetblb_027.txt.gz
Wetbulb
62.15 63.23 62.75 62.83 63.87 64.45 65.21 65.79 66.01 65.50 64.88 64.35 62.62 62.35 61.98 62.11 60.99 60.27 60.50 60.21 60.32 60.20 59.93 60.27 60.69 59.67 60.09 60.65 61.03 60.04 59.69 59.33
59.39 59.64 60.40 60.38 61.16 61.20 63.53 63.82 63.84 63.14 62.85 60.91 60.03 59.50 59.80 59.45 59.56 59.98 60.23 59.93 59.65 59.41 58.70 58.59 59.46 58.38 59.50 60.51 59.99 59.28 58.92 60.10
56.97 58.17 58.95 59.22 59.26 59.98 60.11 59.97 59.53 59.44 59.55 58.83 59.14 58.85 59.11 59.43 60.01 59.33 59.32 58.69 58.01 57.09 56.93 56.38 56.58 56.21 57.49 58.32 58.51 57.28 57.94 59.19
55.75 56.84 57.89 58.57 58.37 58.55 58.37 58.50 58.60 58.67 58.99 59.42 58.69 58.78 58.76 57.61 57.82 58.01 57.84 57.57 56.53 56.25 55.77 55.13 55.70 56.18 55.15 56.80 56.73 55.99 54.19 56.33
55.62 56.06 56.64 57.40 58.04 58.78 58.63 58.29 57.99 58.00 58.61 57.78 57.56 56.63 55.74 57.10 56.96 56.48 56.59 56.59 55.42 54.67 54.06 54.13 54.15 54.06 54.39 54.80 54.39 55.52 54.67 52.38
55.23 55.56 56.49 57.37 57.89 58.18 58.49 57.88 57.35 57.37 57.57 57.21 56.58 55.52 55.31 55.06 55.16 54.61 53.86 53.74 53.47 52.69 53.14 53.20 53.34 52.92 53.59 53.34 52.98 52.41 52.13 51.26
55.40 56.17 56.57 56.84 58.21 58.04 58.04 57.12 56.86 56.84 56.71 56.16 55.13 54.00 53.11 52.23 52.21 51.36 51.55 51.73 51.71 52.01 51.45 51.63 51.69 51.63 51.84 51.23 50.71 49.20 48.33 47.98
54.37 54.63 55.27 55.64 56.05 56.83 57.11 56.78 56.05 56.49 55.85 55.14 54.60 53.72 52.82 51.99 51.55 51.04 50.29 49.62 49.03 49.55 50.22 50.36 50.47 50.59 48.97 48.09 47.34 45.98 45.40 43.59
53.71 54.10 55.00 55.79 56.06 56.65 56.67 55.88 54.85 54.98 54.94 54.39 54.26 53.94 52.73 52.26 51.88 50.79 49.41 48.27 48.10 49.39 49.64 49.01 48.06 46.03 45.65 45.81 44.86 44.20 43.35 41.14
53.31 54.30 54.95 54.87 54.75 55.00 55.47 54.69 53.67 53.59 53.90 54.13 53.73 53.15 52.04 51.44 51.19 50.19 48.43 48.12 47.85 48.90 46.23 43.57 42.72 43.14 43.38 42.49 42.78 42.86 43.20 43.11
53.50 53.70 53.68 54.01 54.31 54.37 54.45 53.56 52.64 53.07 53.22 52.27 51.58 51.30 51.28 50.66 49.73 47.79 47.30 47.71 46.98 45.40 43.09 42.72 42.52 41.55 41.78 42.34 41.49 41.68 40.67 41.28
52.86 53.02 53.67 53.55 53.54 53.40 52.52 52.29 51.81 50.76 50.04 49.52 49.53 49.43 49.61 49.15 47.51 47.11 46.75 45.62 44.35 44.36 44.14 42.74 41.55 42.32 42.37 42.30 42.09 41.59 40.42 39.88
51.09 51.50 51.97 51.61 51.72 51.25 50.80 50.26 48.40 47.73 47.57 47.39 47.42 48.15 48.03 47.36 46.40 44.26 45.26 44.77 45.02 44.19 43.51 43.18 42.73 42.68 41.85 41.07 40.52 39.65 39.10 38.53
51.30 50.72 50.22 50.28 50.18 49.58 48.33 46.85 46.23 46.25 46.40 46.57 46.86 46.50 46.19 45.07 44.64 44.75 44.67 44.17 43.66 43.42 42.81 42.16 41.72 41.43 40.45 40.29 39.46 38.96 38.41 38.04
49.81 49.74 50.15 50.23 48.81 47.57 45.45 44.98 45.54 45.96 46.12 45.62 45.01 45.15 45.19 44.37 44.32 40.97 42.92 42.93 42.24 42.50 42.43 41.29 40.83 40.12 39.49 39.17 38.67 37.28 36.75 36.77
48.72 48.29 48.46 47.03 46.73 45.16 44.91 44.50 45.30 45.94 44.93 44.68 44.24 43.31 43.62 44.04 43.35 42.75 42.98 42.56 41.02 40.96 40.23 39.87 39.54 38.84 37.79 36.53 35.88 34.74 34.07 34.40
47.75 46.29 44.51 44.89 44.57 44.51 43.98 44.20 44.30 45.36 44.44 43.75 43.56 41.82 41.45 41.31 41.56 40.78 40.52 39.94 39.89 39.71 38.68 38.42 37.90 37.48 31.17 30.94 31.33 32.58 32.27 32.63
43.16 41.73 43.51 44.99 44.83 44.53 43.03 43.25 44.31 43.95 43.59 42.98 41.48 41.32 40.81 40.72 40.55 39.94 39.32 38.60 38.69 37.92 37.69 37.54 36.79 36.70 30.95 30.55 30.15 31.52 30.96 32.03
40.47 42.62 44.87 45.23 44.56 44.29 44.07 43.75 43.20 43.25 42.78 42.13 41.34 40.33 39.80 39.53 38.85 38.09 38.40 37.79 37.20 36.81 36.38 36.20 35.60 35.41 31.41 29.96 29.47 30.63 31.31 31.67

GFSFLT1_sfc_wetblb_030.txt.gz
Wetbulb
60.83 60.71 61.63 61.92 62.91 63.86 64.01 64.81 65.85 65.63 63.99 62.85 61.57 60.74 60.64 60.92 59.89 58.74 58.94 58.14 59.05 57.89 57.02 57.22 58.02 56.57 56.00 55.91 55.72 56.10 55.38 55.07
58.29 59.15 60.14 60.30 61.75 62.00 62.20 61.48 61.88 61.33 61.29 59.55 58.16 57.30 57.44 57.73 58.06 58.65 58.42 58.32 57.39 56.30 55.73 55.35 54.99 54.06 54.05 54.26 53.52 52.78 53.27 54.46
56.69 57.41 58.09 58.15 58.52 59.06 59.00 58.41 58.36 58.07 57.75 57.61 57.23 56.95 57.40 57.42 58.14 57.03 58.02 57.68 56.41 55.34 54.43 53.50 53.30 52.11 51.74 51.68 51.77 51.63 51.61 52.19
55.49 56.25 56.88 57.48 57.35 57.82 57.52 57.77 57.76 57.58 57.68 57.49 57.02 57.34 57.03 55.67 56.30 56.23 55.89 56.35 55.83 54.88 53.31 52.12 51.80 51.49 50.18 49.77 49.87 49.38 48.62 49.79
55.12 55.69 56.15 56.78 57.28 58.24 57.88 57.89 57.30 57.04 57.56 56.36 55.98 54.65 53.41 53.78 53.80 54.25 53.78 53.67 53.04 51.87 51.50 51.05 50.36 50.51 49.49 49.17 50.50 49.03 48.18 46.60
54.40 55.09 55.74 56.38 57.70 57.47 57.49 57.45 57.13 56.85 56.45 55.80 54.17 53.01 52.60 52.59 52.01 51.55 51.12 51.65 51.28 51.05 49.50 48.94 48.86 48.84 48.49 48.75 47.71 46.18 46.33 44.69
54.82 55.75 56.51 56.35 57.91 57.54 57.50 56.85 56.34 56.82 55.62 54.99 53.81 52.40 51.51 50.12 50.18 49.44 49.53 49.41 48.97 48.45 48.69 47.95 48.21 47.89 46.60 46.19 45.65 45.65 44.63 43.57
54.44 54.23 54.64 55.68 56.15 56.65 56.50 56.10 54.87 54.80 54.60 54.38 53.69 52.45 51.65 50.39 49.85 49.19 48.46 47.17 46.13 45.87 47.22 46.47 45.46 45.20 44.94 44.82 44.74 43.70 43.56 41.76
54.39 54.33 54.68 54.75 54.99 54.92 54.88 54.55 53.40 53.06 52.84 53.10 53.27 52.65 51.17 50.32 50.15 48.43 46.98 45.71 45.26 45.74 45.51 44.21 43.65 43.85 43.57 43.38 42.94 42.93 42.94 42.07
53.42 54.11 54.30 53.94 53.73 53.91 53.82 52.97 52.33 52.25 52.20 51.93 51.07 50.97 49.85 49.19 49.31 47.75 46.03 45.91 46.22 44.96 43.62 42.83 42.16 41.95 42.57 42.24 41.59 40.71 41.01 40.61
53.66 53.60 53.88 54.00 53.95 53.53 53.62 51.91 51.11 50.99 49.72 48.33 47.20 47.69 47.95 47.72 47.52 45.79 45.15 44.53 44.52 43.62 43.06 42.38 41.82 41.16 40.94 40.57 41.04 40.97 40.54 39.03
52.62 52.34 52.82 53.27 53.01 52.21 50.98 50.46 49.26 47.28 46.31 46.21 46.07 46.42 46.70 46.68 45.79 44.48 43.97 43.88 43.85 42.95 43.40 41.60 41.91 42.06 41.32 39.96 39.43 39.49 38.97 38.80
52.15 52.23 51.89 51.40 50.64 49.73 49.30 48.43 45.91 45.49 45.57 45.53 45.56 46.12 45.74 44.82 44.29 44.08 44.20 42.93 43.49 43.21 42.76 42.48 42.12 41.07 40.62 39.25 38.26 37.88 36.95 36.01
51.19 51.03 50.50 50.27 49.27 48.62 47.42 45.54 44.81 44.83 45.24 44.66 44.48 44.53 43.90 43.67 43.50 43.39 43.01 42.70 42.63 42.06 41.94 41.07 40.75 40.41 38.88 37.49 36.77 36.23 35.25 33.90
49.79 49.98 49.46 49.07 48.40 47.50 45.64 44.98 44.91 44.57 44.56 44.10 43.73 43.07 42.32 42.68 42.47 42.17 42.10 41.85 41.76 40.95 40.46 39.48 38.84 37.74 37.27 36.38 35.80 33.89 32.78 32.39
47.69 47.18 46.86 46.34 46.28 45.74 45.31 44.77 44.10 44.45 43.69 43.58 42.81 42.44 41.93 41.45 41.76 41.64 41.06 40.40 39.68 39.08 38.38 37.30 36.83 36.61 34.27 31.97 31.92 31.00 30.22 29.97
46.40 45.45 44.42 44.39 44.98 45.22 44.77 43.97 43.30 43.79 42.81 42.53 42.80 41.95 41.45 41.36 40.58 39.95 40.08 38.98 38.57 37.60 35.96 35.94 35.22 36.16 31.93 31.63 30.22 28.37 29.68 28.90
43.80 43.30 43.54 44.68 45.29 44.69 43.09 43.27 43.63 42.85 42.01 42.57 42.73 41.77 40.54 40.03 39.89 39.13 37.86 36.92 36.24 34.76 34.73 34.65 33.53 33.13 32.00 31.25 30.48 28.46 27.91 27.80
42.37 42.75 43.86 45.37 45.04 44.26 44.32 44.58 43.00 42.25 41.36 40.96 41.33 40.37 39.19 39.64 39.01 37.57 36.96 35.10 33.83 33.04 32.78 33.13 31.69 32.45 33.22 31.05 30.20 27.05 26.38 27.11

GFSFLT1_sfc_wetblb_033.txt.gz
Wetbulb
55.77 56.38 57.21 57.66 58.56 59.22 58.79 59.72 59.28 59.91 59.27 58.19 57.54 55.50 55.23 55.28 54.27 54.41 54.94 55.05 55.42 53.63 53.11 52.83 53.39 51.86 51.15 51.14 50.45 50.78 51.19 51.55
54.53 54.82 55.19 55.62 55.63 55.79 55.03 54.79 54.97 54.67 53.63 52.18 51.88 51.45 52.29 52.69 53.60 54.49 54.55 54.23 54.14 52.71 51.94 51.26 50.80 50.29 49.09 49.35 48.98 48.75 48.86 49.67
53.75 53.62 53.43 53.31 53.13 53.22 53.44 53.28 53.05 52.99 52.53 51.71 51.98 51.78 52.14 52.53 53.35 53.93 54.16 53.16 52.73 52.59 50.04 49.34 48.72 48.74 48.25 47.81 46.91 45.85 46.39 47.36
52.22 52.50 51.26 51.21 51.27 51.22 52.37 52.61 52.83 52.76 52.85 52.75 52.59 52.30 51.69 50.48 50.22 50.62 50.30 50.46 49.84 48.72 47.98 47.66 46.94 47.31 46.63 45.90 45.92 45.89 44.62 45.64
52.08 51.27 50.80 51.14 50.92 51.61 51.98 52.51 52.11 52.91 52.63 51.27 50.04 48.81 47.94 48.87 48.29 48.25 48.28 49.08 48.81 48.11 46.88 46.12 46.18 46.64 45.38 45.90 46.41 44.41 44.10 41.49
50.02 50.53 51.40 51.59 51.70 51.25 51.58 52.04 52.05 52.17 51.63 50.79 49.12 48.38 48.64 48.25 47.90 47.65 47.65 47.97 47.23 46.63 46.25 45.73 45.68 45.34 44.48 43.84 43.32 43.55 44.70 43.40
50.09 50.98 51.76 51.23 51.40 50.92 51.01 51.23 51.16 50.86 50.45 49.94 48.96 47.80 48.02 47.11 46.96 46.08 45.95 45.44 44.95 44.80 45.82 44.63 44.20 43.56 43.22 42.63 42.00 43.05 41.01 40.77
48.14 48.82 49.03 49.61 49.33 49.77 50.61 49.97 49.50 49.68 49.47 49.33 48.48 47.65 46.99 45.75 45.49 44.40 43.62 42.84 42.33 43.43 43.09 42.50 42.07 42.09 41.70 41.81 42.16 40.70 40.36 39.30
47.83 48.70 48.48 48.44 49.04 48.74 48.92 49.12 49.21 49.15 49.39 48.18 47.20 46.99 46.39 46.03 45.72 44.55 43.28 42.24 42.15 42.46 42.17 41.40 41.06 40.90 40.78 40.20 39.59 40.30 38.86 38.81
48.11 48.65 48.48 48.14 48.21 48.47 47.66 47.68 48.21 47.15 45.27 43.78 43.29 43.97 44.00 43.68 43.65 42.66 41.82 42.10 43.70 41.72 41.10 40.59 40.13 39.81 39.52 39.08 38.29 37.77 37.57 37.31
48.53 47.85 48.24 48.11 47.59 47.59 46.69 46.65 45.68 43.46 42.51 42.50 43.05 42.65 42.97 42.71 41.83 41.21 41.22 41.14 41.53 41.32 40.59 39.77 38.97 38.98 40.27 38.53 37.55 37.85 37.18 37.01
46.94 46.96 48.13 47.91 47.67 46.35 45.42 43.08 42.05 41.12 41.36 41.81 41.61 41.78 42.32 42.12 42.36 41.61 41.43 41.09 40.07 39.94 41.17 41.78 41.50 41.88 41.44 39.03 38.33 37.77 37.51 36.46
47.24 46.96 47.27 46.57 45.79 44.69 42.23 40.95 40.67 40.57 41.45 41.51 41.24 41.29 41.54 41.42 41.16 40.68 40.79 40.24 40.94 41.05 42.11 41.56 41.12 40.21 40.35 39.04 36.82 35.67 33.96 31.48
46.10 46.18 44.98 44.62 45.31 44.20 41.63 41.59 40.76 41.83 41.48 40.88 40.46 40.23 39.56 39.70 39.90 40.23 40.25 39.82 39.77 39.56 40.20 39.93 39.14 38.12 36.17 34.47 33.64 32.71 31.61 30.85
44.97 44.68 43.64 42.74 45.03 44.21 42.48 40.91 40.62 40.62 40.70 40.18 39.81 39.29 38.83 38.90 39.30 39.36 39.27 39.63 39.23 38.74 37.15 37.30 36.09 34.99 33.33 32.55 31.91 30.11 29.25 29.60
43.38 41.91 40.77 41.26 41.56 42.17 42.23 40.69 40.70 40.34 39.50 39.19 39.20 38.97 38.68 38.47 37.76 37.74 37.93 37.65 36.77 36.47 35.24 34.47 34.03 32.64 31.73 29.14 28.55 27.55 27.14 27.26
41.63 41.48 41.29 41.26 42.10 42.26 41.29 40.60 40.27 40.23 39.10 38.81 39.50 39.06 38.22 37.90 37.21 36.76 36.55 35.95 36.09 34.30 33.53 32.94 30.95 32.12 32.32 31.49 29.44 26.28 26.84 26.62
40.27 39.88 40.22 41.30 41.51 43.28 39.87 39.74 40.71 40.05 39.60 40.02 40.34 39.42 39.56 37.78 37.77 37.32 35.02 33.27 32.16 32.29 31.63 30.85 29.61 29.06 32.43 31.70 31.25 26.98 25.66 24.80
39.68 39.99 40.68 41.47 42.23 40.91 39.66 40.86 40.49 39.83 40.26 39.58 39.09 38.46 38.20 38.53 37.92 36.05 33.89 31.48 30.38 31.13 29.82 29.63 28.26 30.35 32.55 32.71 32.26 26.43 25.12 25.20

GFSFLT1_sfc_wetblb_036.txt.gz
Wetbulb
53.59 54.08 55.05 55.00 55.07 56.60 57.29 57.35 59.22 59.92 58.68 56.94 54.19 53.55 52.34 53.07 52.92 53.32 54.92 55.34 54.14 51.85 51.08 50.54 50.09 49.44 48.67 47.89 47.43 47.61 47.49 47.01
52.56 53.09 53.39 53.83 54.56 54.18 54.38 54.80 54.84 54.58 53.53 52.39 51.58 50.99 50.60 51.46 53.13 54.38 53.91 53.17 51.81 49.50 48.66 48.24 47.99 47.52 46.88 47.25 46.80 45.35 44.99 46.44
51.33 51.31 52.29 51.43 52.89 53.48 51.92 51.52 51.47 51.65 51.18 50.42 51.42 50.94 50.53 50.47 51.42 50.31 50.25 48.82 48.56 47.63 46.09 46.24 45.99 46.04 45.21 44.80 44.47 44.11 44.78 44.88
50.31 50.74 50.12 49.91 49.45 49.89 51.20 50.76 50.98 50.99 51.21 50.75 50.12 50.16 49.17 47.87 47.58 46.86 47.61 47.91 47.19 45.87 45.28 45.00 45.11 45.21 44.25 43.96 43.62 42.74 42.22 42.86
50.23 49.60 49.14 49.30 48.86 49.81 50.12 50.56 50.74 51.27 50.66 49.64 48.26 47.29 46.04 46.49 45.93 45.94 46.05 46.54 45.81 45.79 45.30 45.26 45.04 44.82 43.29 43.50 44.45 42.36 43.95 42.41
49.13 49.26 49.89 49.66 49.85 49.37 49.28 50.12 50.12 49.76 49.29 48.70 47.81 47.01 47.44 47.70 47.17 46.34 45.77 45.24 45.10 45.96 45.72 44.31 43.41 43.46 42.73 41.62 41.23 40.89 41.15 39.72
48.65 49.45 50.09 49.27 49.19 48.54 48.31 48.12 48.16 48.63 48.65 47.84 47.09 46.42 46.05 45.34 45.19 44.52 44.23 43.71 43.93 44.13 43.97 42.82 42.24 41.51 40.92 40.76 40.08 39.70 38.74 38.51
47.96 48.51 48.50 48.81 48.16 47.67 47.97 47.87 47.04 48.22 47.74 47.13 46.21 45.75 45.06 43.93 44.24 42.82 42.28 41.18 41.79 42.05 41.81 40.98 40.56 40.38 40.14 39.54 38.82 38.09 37.44 36.46
46.64 47.56 47.74 47.17 47.50 47.00 46.86 46.76 47.10 47.58 45.05 43.40 43.03 43.53 43.22 43.32 42.82 42.22 41.49 41.70 41.80 41.78 40.86 40.38 40.05 39.96 39.75 38.85 37.34 37.50 37.35 35.60
47.67 47.18 46.38 45.97 45.94 46.38 45.80 45.92 43.94 43.02 42.46 41.95 41.68 41.94 41.72 41.82 41.31 41.09 40.55 40.76 42.44 41.10 40.15 39.83 39.41 39.04 39.03 38.02 36.83 36.42 36.23 35.84
46.44 46.91 47.06 45.87 45.51 44.57 43.40 41.88 41.54 41.76 41.82 41.38 41.84 41.27 42.10 41.33 40.62 39.97 39.48 39.64 39.91 39.59 39.13 38.93 38.28 40.64 40.70 38.65 37.27 37.68 36.60 36.70
46.18 46.27 45.48 44.93 43.73 41.94 40.30 41.35 40.54 40.15 42.24 40.59 40.24 40.22 41.07 40.82 40.20 39.73 39.83 39.30 39.22 39.13 39.91 39.93 39.58 38.56 38.71 37.91 37.38 37.03 35.69 33.41
44.61 43.63 43.58 43.00 42.89 41.17 40.47 39.53 41.56 40.06 40.00 40.21 39.77 39.60 40.49 39.94 39.81 39.73 39.46 38.55 39.18 39.03 39.22 38.88 38.32 37.80 37.31 35.19 33.15 32.29 30.95 29.63
43.79 43.03 42.10 42.19 42.58 42.36 40.73 39.95 39.05 39.51 39.90 39.20 38.87 38.31 39.01 38.81 38.96 39.24 38.99 38.78 38.54 38.02 38.41 37.28 36.00 34.92 32.58 31.83 30.84 29.94 28.91 28.82
42.29 40.86 40.32 40.49 41.54 41.49 41.15 40.32 39.52 39.09 39.38 38.52 37.67 37.45 38.11 37.35 38.09 38.37 38.14 38.76 37.85 36.86 35.98 35.28 33.91 31.76 31.22 30.17 29.64 27.66 27.16 27.82
40.48 39.81 39.37 39.60 40.30 41.03 41.69 40.48 39.88 39.47 38.42 37.64 37.31 37.52 37.73 38.45 37.45 37.04 39.24 38.27 37.38 36.39 33.75 32.93 31.99 30.89 30.65 28.25 28.02 26.97 26.37 26.25
39.82 39.72 39.72 39.80 40.49 40.68 40.93 40.74 39.27 39.31 38.37 38.23 38.82 38.24 38.50 37.06 37.90 37.12 37.80 36.96 36.86 33.55 32.02 31.69 30.52 31.29 32.24 31.54 29.71 26.35 26.59 26.01
39.27 38.92 38.99 39.41 39.07 40.08 37.53 37.55 38.75 38.64 38.19 38.95 38.27 38.14 37.56 36.83 36.69 36.87 37.45 35.91 33.42 31.62 31.20 30.32 28.40 28.34 32.35 32.80 32.80 28.61 26.02 24.81
38.08 38.12 38.74 38.97 38.55 36.77 35.74 36.01 35.75 35.35 37.01 37.05 37.60 36.90 36.24 36.38 36.44 35.62 34.02 33.28 31.60 30.61 29.10 28.62 27.46 29.03 31.93 32.30 32.37 27.55 25.67 25.65

GFSFLT1_sfc_wetblb_039.txt.gz
Wetbulb
52.18 52.65 53.61 54.65 55.41 56.53 57.82 59.11 60.54 59.78 58.06 56.03 53.71 51.99 51.86 51.88 51.63 51.76 51.83 51.45 51.87 50.67 48.87 49.04 49.67 48.91 46.67 45.95 45.64 45.19 44.76 44.72
51.08 51.95 52.96 53.38 54.39 55.72 56.57 56.74 56.33 54.39 53.42 52.45 51.02 49.51 50.59 50.43 50.09 51.25 50.47 50.01 49.20 48.45 47.95 46.49 46.16 45.31 44.66 45.02 44.59 43.72 43.30 44.13
50.07 50.31 51.42 52.08 53.10 53.20 52.08 52.04 51.18 51.76 50.79 49.99 50.42 48.97 48.07 47.88 48.37 47.76 47.23 46.48 46.38 45.80 44.56 45.29 47.27 46.62 45.76 44.13 43.40 43.24 43.30 42.68
49.27 50.04 50.06 49.98 49.63 48.82 49.25 49.39 49.68 50.02 50.28 49.38 48.92 48.54 47.80 46.04 45.66 45.12 45.57 45.78 45.40 44.63 44.91 44.60 44.56 44.03 43.15 42.10 41.51 40.77 40.08 40.96
49.71 48.74 47.62 47.39 47.28 48.15 48.71 49.78 49.70 49.91 49.45 48.21 47.42 46.06 44.74 45.03 45.03 44.91 44.42 44.75 44.58 45.31 45.12 44.35 43.51 42.89 41.56 41.17 43.36 40.50 40.39 38.99
48.53 49.27 48.98 48.15 47.65 47.20 47.98 48.72 48.74 48.71 48.05 47.69 46.60 45.71 46.09 46.66 46.73 45.54 44.69 44.08 45.40 45.28 44.34 42.79 41.84 41.84 40.91 40.18 39.51 39.31 39.07 37.97
48.77 48.37 49.24 48.26 47.83 47.06 45.92 47.00 46.80 47.41 47.25 46.92 46.22 45.89 45.38 44.60 44.57 43.87 43.32 42.39 42.81 42.31 42.21 41.28 41.13 40.42 39.66 39.22 38.63 37.87 37.48 37.40
47.18 48.00 49.27 50.03 48.30 47.75 45.93 45.67 46.26 46.63 45.91 45.44 44.85 44.30 43.47 42.72 42.85 41.75 40.99 40.20 40.76 40.80 40.80 40.12 39.66 39.37 39.00 38.26 37.27 36.60 36.32 35.06
48.79 49.59 49.06 48.39 47.51 45.62 45.13 45.96 45.58 43.49 42.45 41.99 42.01 42.11 41.40 41.40 41.51 40.84 40.54 40.80 40.77 41.09 40.34 39.63 39.16 39.16 38.37 38.37 36.37 36.15 36.04 35.25
46.40 45.83 45.37 47.03 46.65 44.28 44.23 43.30 42.14 41.69 41.40 41.04 40.86 40.66 40.93 41.02 40.84 39.96 39.63 39.98 41.50 40.39 39.40 38.85 38.82 38.51 38.30 38.09 35.90 35.41 35.27 35.17
45.95 44.86 45.50 44.94 43.38 43.03 41.88 40.26 39.96 40.18 40.00 40.18 41.11 40.05 41.21 40.78 39.66 38.95 38.80 38.99 39.28 38.88 38.23 37.87 37.79 37.64 37.94 37.23 35.59 35.51 34.84 34.27
42.81 42.78 43.79 44.38 44.06 40.00 39.38 39.76 39.52 38.77 40.54 40.54 39.19 39.06 40.26 39.97 39.29 38.96 38.97 38.76 38.25 37.68 38.39 38.51 38.13 36.75 36.37 35.47 34.44 32.66 30.83 29.55
42.97 43.10 42.36 42.36 41.47 40.70 39.28 38.67 38.65 38.47 38.74 39.15 38.94 38.51 38.65 38.89 38.81 38.95 38.92 37.77 37.65 37.86 37.76 37.67 37.23 35.76 34.21 32.12 30.79 29.99 28.75 27.63
40.88 40.47 40.48 41.80 41.62 41.36 41.17 39.98 38.61 38.25 37.90 37.84 37.58 37.08 36.70 37.73 38.03 38.41 38.42 37.55 38.33 37.56 38.43 37.89 35.73 34.86 32.46 30.33 29.59 28.10 27.47 27.73
40.54 40.96 40.80 40.88 41.42 40.52 40.11 40.15 39.23 38.27 38.15 37.52 36.68 36.34 36.05 36.41 36.94 37.07 37.36 37.40 37.78 37.31 36.84 36.13 34.99 32.18 30.82 29.91 29.02 27.59 27.07 27.17
39.50 39.35 39.38 38.74 38.47 38.90 39.41 38.52 38.11 37.83 37.02 36.56 36.29 36.42 36.28 36.56 36.48 36.60 36.75 37.56 36.51 36.17 37.50 34.75 32.70 31.20 30.34 28.48 28.06 27.02 26.39 26.09
39.06 38.70 38.49 38.00 38.17 38.20 37.02 35.90 35.97 36.33 35.50 36.55 36.90 36.81 36.67 36.11 35.60 35.77 35.12 35.03 35.86 37.32 33.64 32.89 31.82 31.25 32.59 32.40 31.01 26.81 27.43 26.69
37.76 37.29 37.48 37.30 36.47 36.26 33.51 33.99 34.92 34.50 35.06 36.23 36.75 36.45 35.78 35.33 35.50 35.57 33.85 34.05 33.97 33.11 31.79 31.60 29.09 28.02 32.39 32.58 32.58 29.16 27.25 25.64
37.14 37.69 35.68 34.86 33.22 32.90 33.17 33.98 33.33 32.83 34.79 35.88 36.33 35.86 35.67 35.60 34.97 33.85 31.42 31.65 30.71 30.58 28.72 28.36 27.38 28.44 31.31 31.38 29.62 25.20 24.25 24.47

GFSFLT1_sfc_wetblb_042.txt.gz
Wetbulb
50.73 52.20 54.42 55.62 57.10 58.60 59.18 59.91 59.46 56.96 56.86 56.61 55.76 53.83 50.13 49.29 49.73 50.35 50.77 50.85 50.87 48.95 48.98 48.67 47.76 46.59 44.85 45.34 44.86 44.74 43.67 44.33
50.11 51.10 52.83 55.34 55.66 57.31 58.96 58.98 58.11 57.19 55.19 52.67 50.15 48.68 48.74 47.26 47.64 48.42 48.03 47.62 47.49 45.86 44.82 44.62 45.05 44.50 44.49 44.97 44.13 42.91 43.01 43.13
49.23 49.80 50.59 51.77 53.55 54.97 54.73 53.32 52.98 51.67 50.60 49.89 48.21 46.42 45.78 45.70 45.67 45.54 45.32 45.01 44.91 44.92 44.23 44.23 44.20 43.71 43.33 42.43 41.52 41.10 41.81 41.88
48.54 49.70 50.19 51.13 49.05 48.00 49.12 49.91 50.11 49.71 49.54 48.62 47.74 46.96 46.17 44.89 44.40 43.76 44.04 44.48 44.41 44.28 44.33 43.94 43.35 42.86 41.26 40.65 40.50 39.50 38.55 39.93
47.99 47.15 46.34 46.38 46.53 47.26 48.10 48.52 48.46 48.68 48.21 47.07 45.91 44.63 43.94 44.14 44.05 43.76 43.43 44.08 44.47 44.67 44.02 43.04 41.99 41.54 40.18 39.77 41.40 39.22 38.58 37.11
46.57 46.55 47.05 46.79 46.82 46.41 47.66 47.98 48.23 47.64 47.52 46.88 45.34 44.66 44.57 45.19 45.12 44.01 43.09 43.31 43.97 43.73 42.72 41.15 40.25 40.79 40.37 39.69 39.22 38.53 38.23 37.28
47.45 47.39 47.61 47.06 46.98 45.57 46.75 47.72 47.21 47.15 46.38 45.96 45.24 44.81 44.13 43.12 43.37 42.59 41.73 41.23 41.62 41.69 41.52 40.55 40.22 39.77 38.85 38.31 37.76 37.12 36.71 36.50
46.97 47.04 47.09 48.47 48.39 46.18 46.31 46.79 46.23 46.38 45.28 44.04 43.50 42.85 42.16 41.10 41.00 40.62 40.49 40.02 40.40 40.69 40.30 39.06 38.66 38.64 38.27 37.64 36.64 35.90 35.51 34.86
46.42 48.30 48.17 47.70 46.01 45.45 45.67 46.23 43.69 41.74 41.44 41.51 41.41 41.25 40.42 40.42 40.62 40.86 40.20 39.79 39.96 40.08 39.74 39.11 38.48 38.19 37.57 36.77 35.94 35.54 35.30 34.87
45.54 44.87 44.32 44.30 44.26 43.99 43.79 42.44 41.27 40.93 40.56 40.25 40.14 40.28 40.21 40.26 40.23 39.61 38.89 39.18 40.67 39.90 38.93 37.99 37.84 37.76 37.60 36.78 35.72 35.09 34.61 34.33
43.10 43.10 43.20 43.12 43.37 42.27 40.04 40.67 39.64 39.35 38.91 39.16 40.19 39.23 39.50 39.83 39.17 38.85 38.53 38.56 38.44 38.04 37.55 36.99 37.12 37.66 37.17 36.70 35.89 34.79 33.67 33.57
40.64 40.78 41.54 41.15 39.44 38.71 38.45 39.10 39.40 38.33 37.96 38.42 38.21 38.01 37.97 39.33 38.70 38.44 38.17 37.84 37.61 37.11 37.35 37.50 37.37 37.02 36.28 35.72 34.41 32.93 30.65 29.82
39.76 39.87 41.51 41.97 42.51 42.34 40.50 40.04 39.22 37.87 36.94 36.92 36.82 37.07 36.83 36.51 37.28 38.01 38.06 37.78 37.64 36.81 37.56 37.00 37.02 36.40 35.28 33.30 31.81 30.46 28.97 28.47
39.03 39.20 39.13 40.78 41.52 41.78 41.36 39.55 38.62 37.66 37.11 36.41 36.29 36.12 35.21 34.71 35.33 36.29 37.10 37.10 36.74 36.34 36.51 35.88 36.05 35.81 32.24 31.68 30.46 28.67 28.30 27.78
38.68 38.27 38.43 39.31 40.32 39.63 38.83 37.74 36.94 36.51 36.22 35.51 35.08 34.93 34.75 34.59 35.00 35.40 35.73 36.47 35.95 35.68 35.21 35.37 36.67 33.65 31.14 30.64 29.71 28.19 27.04 27.01
38.45 38.02 38.77 38.85 38.20 37.96 36.66 35.53 35.29 35.25 34.19 34.76 34.93 34.82 34.66 35.03 35.17 35.13 35.22 35.16 34.83 34.97 35.26 36.28 33.56 31.64 31.02 29.55 28.22 27.21 26.79 26.48
37.42 37.61 37.48 36.67 36.35 35.35 33.92 33.72 33.59 33.82 32.93 34.71 35.53 35.60 35.23 34.85 34.41 34.12 34.07 33.98 34.22 36.12 34.95 33.12 30.48 31.92 32.87 32.69 32.09 28.77 28.41 27.55
37.22 36.10 36.13 35.24 34.04 33.80 31.59 32.00 32.75 32.42 32.59 34.80 35.63 35.32 34.72 34.47 34.57 34.10 33.09 31.82 32.33 30.96 29.92 29.77 28.23 27.80 32.14 32.08 31.33 27.08 25.33 24.63
35.91 35.65 33.57 32.84 31.22 30.88 31.05 31.52 31.17 31.55 33.11 33.96 34.77 33.85 33.45 34.00 33.73 33.61 32.90 33.70 33.89 32.44 28.74 27.07 26.57 28.24 30.92 30.48 28.93 24.39 23.31 23.52

GFSFLT1_sfc_wetblb_045.txt.gz
Wetbulb
54.57 57.23 58.84 60.01 60.89 61.57 61.21 61.36 60.48 58.03 56.58 56.14 55.64 55.18 53.55 53.67 53.90 54.17 54.83 54.72 54.22 53.89 52.80 52.41 52.33 51.60 50.89 50.54 49.29 48.90 48.86 48.98
55.80 57.25 59.59 60.54 61.44 61.57 61.30 58.84 58.02 57.45 56.44 55.84 53.67 53.14 53.26 53.35 53.85 53.76 53.37 52.75 52.35 52.53 51.84 51.71 51.48 50.34 49.51 49.58 48.51 47.56 47.15 48.43
53.90 55.72 57.97 59.84 60.44 61.20 60.00 59.67 57.42 57.02 56.46 56.35 55.29 54.19 53.39 53.00 52.24 51.36 51.42 51.45 51.65 51.31 51.53 50.35 50.21 49.41 48.66 47.97 47.31 45.61 45.89 47.01
51.92 53.18 54.81 56.43 57.49 58.09 57.88 57.56 57.97 57.47 56.50 54.94 53.70 53.32 52.66 51.78 52.02 51.52 50.18 50.69 50.77 50.75 50.37 49.93 49.56 49.27 47.42 46.99 46.54 45.22 43.30 45.57
51.88 51.90 52.11 53.08 53.73 54.52 55.52 54.82 54.84 54.76 54.59 54.33 53.28 53.42 52.48 51.63 51.98 50.93 50.36 50.06 49.97 49.80 49.36 49.39 49.03 48.58 46.70 46.09 46.29 45.86 44.87 42.28
51.48 51.84 52.33 52.08 52.50 53.18 53.25 53.50 53.31 53.22 53.42 53.37 52.93 51.60 51.27 51.47 52.03 50.58 50.28 50.19 49.44 48.92 48.95 48.23 47.88 47.58 46.88 45.71 45.26 44.49 44.33 42.59
51.64 52.09 52.26 52.12 52.27 52.39 52.44 52.62 51.71 51.58 51.76 52.02 51.88 51.05 49.87 49.71 49.56 49.51 49.28 49.08 49.12 48.45 47.65 47.77 47.28 46.49 45.77 45.41 44.87 43.79 43.55 43.02
51.24 51.11 50.92 51.55 51.41 51.28 51.72 51.94 50.19 50.35 49.91 49.87 49.79 49.04 47.86 47.16 47.25 47.12 47.06 47.49 47.39 48.20 47.89 47.27 46.27 45.76 45.27 44.56 43.99 43.55 43.30 42.47
51.06 51.64 52.06 52.51 51.43 50.89 51.10 50.26 47.98 47.40 47.97 47.78 47.90 47.44 48.18 47.97 47.57 47.54 47.33 47.35 47.86 48.47 47.62 46.68 45.55 45.22 44.82 44.48 43.99 43.99 43.64 43.38
51.13 51.61 51.64 51.13 50.54 49.59 50.32 47.90 46.70 46.39 45.64 47.06 46.87 47.59 46.94 46.93 47.22 47.39 47.10 47.41 46.46 46.58 46.26 45.53 45.59 45.33 45.09 44.76 44.18 43.45 43.07 42.60
48.04 48.05 47.89 47.70 48.07 47.02 45.99 45.09 43.74 44.02 45.10 45.88 45.69 45.43 45.34 45.71 46.24 45.84 45.91 45.93 45.53 45.16 45.04 44.76 44.44 44.10 44.22 44.04 43.38 42.54 41.28 41.18
45.04 45.22 45.56 44.80 45.04 44.98 44.35 42.90 42.70 44.48 43.86 43.86 44.18 44.22 44.16 44.41 44.03 44.28 44.40 44.36 44.78 44.45 44.45 43.62 42.92 43.02 43.42 42.02 40.70 39.81 37.27 36.72
44.24 44.79 45.31 45.55 45.20 44.32 43.39 43.65 43.45 43.31 43.36 43.60 43.37 43.25 43.28 42.86 42.64 43.02 43.61 43.39 44.31 44.20 43.80 42.24 42.14 41.92 41.50 39.16 38.08 37.00 35.49 34.17
43.58 43.39 43.47 43.94 43.22 43.99 43.82 41.87 41.81 42.28 42.07 41.95 42.41 42.31 42.02 41.72 41.69 42.14 42.32 41.97 42.06 42.34 41.65 41.27 40.69 39.74 37.48 36.44 35.77 34.42 34.08 33.58
42.81 42.25 42.43 42.83 43.14 42.35 40.82 41.44 41.30 41.10 41.03 40.73 41.29 41.29 41.04 41.10 41.25 41.22 41.02 41.22 40.92 40.82 40.38 40.05 39.68 37.27 35.33 34.30 34.47 33.94 33.18 32.98
41.46 41.44 41.92 41.75 40.82 40.35 39.96 39.86 40.14 40.18 39.42 39.32 40.69 41.22 41.09 40.72 40.64 40.61 40.62 40.30 40.13 39.93 39.11 37.33 35.78 35.46 35.04 34.83 33.80 33.43 33.18 32.72
40.90 40.59 40.08 39.42 39.10 38.38 37.83 38.27 38.77 38.75 38.36 38.98 40.57 40.81 40.11 39.92 39.94 39.76 39.67 39.16 38.48 37.82 36.73 35.73 35.71 35.57 32.87 32.98 33.09 33.22 31.90 30.16
39.47 39.73 38.92 38.94 37.83 37.10 37.32 37.38 37.71 37.62 37.67 38.62 38.94 39.52 38.58 38.66 38.90 38.87 38.63 38.45 37.76 36.80 35.99 35.50 34.37 33.98 32.11 32.09 29.87 31.22 29.37 28.49
39.79 39.47 38.24 37.37 36.87 37.02 36.81 37.17 36.94 36.52 36.50 36.50 37.28 37.65 37.07 38.04 38.02 37.90 38.10 38.37 38.11 36.90 36.62 33.98 32.94 32.38 30.52 30.18 28.32 29.77 28.73 27.72

GFSFLT1_sfc_wetblb_048.txt.gz
Wetbulb
59.82 61.73 62.87 63.65 64.94 65.20 64.89 64.02 61.45 59.55 60.01 59.53 58.62 57.16 56.35 56.87 57.07 57.90 58.41 58.05 57.62 57.86 57.16 56.69 56.77 56.10 55.23 53.99 52.73 52.63 51.58 50.72
60.97 62.19 63.26 63.94 64.26 63.83 64.43 63.08 62.06 61.40 59.85 57.71 56.46 56.52 56.67 57.12 57.92 57.73 57.29 57.12 56.60 57.05 56.98 56.50 55.81 54.30 53.14 52.23 51.12 49.90 49.01 50.20
59.92 61.99 63.18 63.59 63.45 63.64 63.81 63.51 63.14 63.95 62.98 61.19 59.93 58.96 58.37 58.01 57.70 56.81 56.65 56.26 56.06 55.91 55.97 55.16 53.81 52.00 51.48 50.68 49.74 48.12 48.07 48.99
59.27 60.47 62.36 63.35 63.14 63.57 63.42 63.76 63.82 62.78 61.22 60.02 58.99 57.99 57.37 56.65 56.74 56.62 55.61 55.53 55.38 55.33 54.47 53.53 52.21 51.37 49.28 49.41 48.88 47.53 45.41 47.08
57.64 57.23 58.33 59.82 60.96 61.74 61.57 61.84 61.30 60.54 60.05 58.58 57.28 57.37 56.12 56.55 57.88 56.68 56.79 55.58 55.07 54.12 52.81 52.21 51.21 50.72 49.39 48.63 47.88 47.74 46.72 44.24
55.35 56.12 56.99 57.83 58.39 58.77 59.01 58.62 58.15 58.13 57.86 57.93 57.85 55.97 56.43 57.03 57.24 54.41 54.85 54.54 53.14 52.00 51.52 51.11 50.74 50.02 49.49 48.80 48.00 47.30 46.59 44.80
55.66 56.66 57.03 56.94 57.96 58.14 58.04 57.41 56.73 57.09 57.19 57.12 56.44 55.06 53.03 53.22 52.49 51.06 51.22 51.22 51.33 51.11 50.85 50.98 50.84 50.12 49.27 48.46 48.14 47.21 46.26 45.61
55.42 55.37 55.60 56.27 56.53 57.17 57.51 57.00 55.67 56.23 55.89 54.96 53.52 52.07 50.66 50.23 49.98 50.20 49.09 48.88 49.28 49.95 50.47 50.37 49.97 49.74 49.22 48.40 47.33 46.35 45.67 44.75
55.57 55.96 56.19 56.40 56.35 56.94 56.19 55.69 54.01 53.74 53.09 51.82 51.61 50.90 52.51 51.11 50.23 49.93 49.39 49.15 49.20 50.09 50.22 50.13 49.78 49.18 48.62 47.81 46.77 46.02 45.89 45.20
55.50 56.03 56.58 56.93 56.76 55.68 55.89 54.21 52.53 51.04 49.03 49.32 49.00 50.21 49.90 49.64 49.96 50.15 49.97 50.10 49.11 49.20 49.39 48.98 49.07 48.42 47.89 47.28 46.00 45.18 45.11 44.77
55.42 55.73 55.58 55.81 55.31 54.75 53.46 51.57 48.78 47.84 48.21 47.99 48.04 49.37 49.40 49.38 49.38 48.49 47.98 48.06 47.89 47.62 47.61 47.36 47.12 47.16 46.82 46.21 44.98 44.64 43.72 43.52
53.60 53.55 53.47 53.25 52.78 51.54 50.25 49.47 48.28 47.14 45.56 46.33 49.00 48.64 47.19 47.08 46.53 45.89 45.63 45.70 45.17 44.64 44.71 45.22 45.42 45.37 45.49 44.93 44.33 43.09 41.09 41.29
51.78 51.20 50.28 49.99 49.94 49.35 47.00 49.31 46.71 45.16 47.11 47.46 46.34 45.99 45.69 45.13 44.65 44.89 45.20 44.25 44.60 44.04 44.39 44.35 44.29 44.39 44.40 42.63 41.42 40.67 39.02 38.74
49.94 49.72 49.34 49.34 47.71 46.77 45.10 46.28 44.62 45.49 45.94 45.20 44.93 44.66 44.24 43.99 44.08 44.29 44.14 43.86 43.71 43.77 43.88 43.22 43.07 42.81 41.96 40.99 39.42 38.37 37.81 38.13
49.16 48.65 48.27 47.16 45.94 45.44 45.83 43.71 44.81 45.04 44.48 43.79 43.23 43.70 43.92 43.89 43.67 43.55 43.40 43.53 43.05 43.07 43.11 42.03 40.23 39.32 38.57 37.34 37.94 37.90 37.90 37.48
47.86 47.58 46.87 46.38 45.72 43.93 43.52 43.73 44.32 44.00 42.74 42.30 42.50 43.75 43.93 43.48 43.04 42.99 43.11 43.07 42.61 42.33 40.99 40.15 39.95 39.22 38.69 37.96 38.06 37.60 37.31 36.80
47.04 46.57 45.44 44.74 43.07 43.57 41.86 42.69 43.34 42.74 41.75 41.34 42.05 42.35 42.61 42.80 42.28 42.11 42.33 42.21 42.04 41.52 40.56 39.89 39.13 38.78 32.55 32.85 33.03 36.93 36.19 34.85
45.67 44.71 43.57 43.02 42.65 42.11 42.18 42.70 42.58 41.24 40.44 39.98 40.11 40.63 40.92 41.55 41.40 41.58 41.26 41.11 40.51 39.38 38.84 39.02 38.01 38.37 32.51 32.08 30.12 34.91 34.36 33.57
44.95 44.02 42.68 42.65 42.71 42.18 42.15 42.19 41.00 39.39 38.98 38.88 39.38 39.66 39.62 40.57 40.94 40.73 40.51 39.51 38.91 36.99 36.82 37.80 38.05 36.51 31.29 30.56 29.19 34.13 33.73 33.02

GFSFLT1_sfc_wetblb_051.txt.gz
Wetbulb
61.67 62.71 63.69 64.17 64.82 66.07 66.11 64.14 62.18 62.16 62.84 60.23 60.56 58.94 58.31 58.32 58.57 58.08 58.52 58.49 58.63 58.33 57.98 57.68 57.44 56.35 55.80 54.71 53.39 52.62 51.25 50.50
62.58 63.50 64.26 64.83 65.67 65.72 64.71 62.48 63.66 63.98 63.25 61.94 60.75 59.68 58.89 58.56 58.45 58.76 58.56 58.27 58.00 58.02 57.49 56.97 56.56 54.55 53.99 53.44 51.61 50.28 49.27 49.97
61.97 63.58 64.34 64.62 64.67 64.34 63.18 63.14 63.52 64.37 63.55 63.31 62.20 60.52 59.24 58.87 58.76 58.55 58.20 58.09 57.22 56.89 56.87 55.73 54.95 53.24 52.24 51.49 50.54 48.47 48.42 48.91
61.78 62.69 62.60 62.29 61.92 63.50 64.19 64.35 64.27 63.87 62.55 61.25 60.81 59.66 58.85 57.44 57.60 57.60 57.20 57.19 56.60 56.38 55.47 54.26 53.10 52.00 50.12 50.40 49.79 48.00 45.51 46.81
61.29 61.85 62.61 63.28 63.24 63.79 62.87 62.81 62.60 61.53 61.09 59.44 58.53 56.52 55.31 57.48 57.69 57.74 57.65 56.92 55.62 54.42 53.41 52.63 52.22 51.44 50.48 50.11 49.23 48.56 47.31 44.24
58.49 59.21 60.16 61.00 61.73 61.75 62.14 61.78 60.50 60.33 59.75 59.46 58.43 57.86 58.24 58.15 56.89 55.68 55.39 55.25 54.45 52.98 52.30 51.75 51.63 51.08 50.67 50.03 49.18 48.15 47.19 45.26
57.58 58.17 58.49 58.98 60.28 60.07 59.85 59.15 58.63 59.08 59.00 58.78 57.90 56.85 55.81 55.23 54.35 52.66 52.56 52.18 51.90 51.89 51.43 51.80 51.39 50.76 50.24 49.50 49.31 47.78 46.91 45.50
56.65 56.66 57.20 58.15 58.42 59.02 59.06 58.32 57.46 58.47 58.51 57.62 56.31 54.69 52.77 51.85 51.97 51.66 50.44 49.90 50.00 50.54 50.96 50.28 49.56 49.70 49.65 49.38 48.63 47.53 46.52 45.07
56.62 57.20 57.67 58.01 58.16 58.50 58.41 58.08 57.17 57.34 56.34 54.61 54.00 52.29 53.06 52.25 51.58 50.88 50.30 49.94 50.12 50.86 50.02 49.51 49.19 49.25 49.81 48.53 47.77 47.31 46.46 46.18
56.79 57.54 58.12 58.29 58.16 58.41 58.26 57.58 56.43 55.00 53.22 51.94 51.30 51.99 50.89 50.37 50.90 51.05 50.25 50.26 49.03 48.65 48.62 48.08 47.78 47.61 47.41 47.70 46.64 45.96 45.47 44.69
57.13 57.77 58.07 58.60 58.47 58.30 58.37 57.31 54.24 51.19 51.13 50.40 48.43 49.39 50.98 50.69 50.11 48.85 48.21 47.72 47.01 46.25 45.83 45.65 45.46 45.75 46.18 45.92 45.67 45.51 44.46 43.93
57.14 57.70 58.28 58.36 58.06 56.91 54.95 53.36 51.42 50.63 48.49 48.56 48.67 49.82 48.93 48.48 47.71 47.12 46.31 46.32 45.72 44.98 44.72 44.67 44.76 44.66 44.97 44.57 44.39 43.52 42.14 42.12
57.33 57.19 56.44 55.90 54.95 54.02 52.60 51.71 49.68 47.85 47.89 48.47 47.86 47.62 47.60 46.85 45.88 45.77 46.12 45.23 45.44 44.76 44.46 44.25 44.04 43.78 43.94 42.85 42.09 42.36 40.70 39.00
55.59 54.94 53.36 53.09 52.87 51.65 51.15 48.80 46.83 45.53 48.43 46.55 46.69 46.18 45.59 45.31 45.21 45.40 45.26 44.91 44.62 44.37 44.20 43.59 43.39 43.33 42.67 41.94 41.09 40.46 39.73 39.19
53.79 53.01 52.79 52.73 51.44 50.52 48.16 47.36 47.43 46.91 45.88 45.35 44.59 44.61 45.02 45.14 44.99 44.57 44.58 44.58 43.90 43.66 43.66 43.19 41.36 40.28 40.95 40.21 39.09 38.14 37.99 38.06
52.55 52.09 51.86 51.07 49.73 48.36 48.43 47.04 46.33 46.16 44.68 43.81 43.69 44.59 44.69 44.42 44.24 44.31 44.24 44.02 43.60 43.61 42.98 41.73 40.64 39.83 39.29 38.81 38.95 38.40 37.59 37.37
52.30 51.72 50.92 49.63 48.85 47.10 46.55 45.81 45.00 44.97 43.18 42.48 42.95 42.78 42.47 42.75 43.24 43.44 43.42 43.11 43.08 42.95 41.33 40.18 39.66 39.16 33.21 33.68 33.24 36.80 36.64 35.98
51.30 50.45 49.80 48.92 47.35 46.46 44.30 44.59 44.43 43.06 41.90 41.63 41.32 41.25 40.98 41.47 42.06 42.32 42.25 42.25 42.34 41.06 39.71 39.35 38.85 39.82 33.88 33.13 31.20 34.71 35.25 35.36
50.77 50.06 48.64 47.30 46.09 43.97 44.33 43.92 42.75 41.33 40.71 40.22 40.45 40.79 40.46 41.21 41.43 41.61 41.93 42.04 40.95 39.46 38.92 39.29 37.26 38.03 33.17 31.89 30.54 33.71 35.13 34.93

GFSFLT1_sfc_wetblb_054.txt.gz
Wetbulb
60.01 61.05 62.37 61.99 64.15 65.45 64.19 62.90 60.75 60.44 61.07 60.66 60.41 60.67 59.25 58.49 57.77 57.49 57.67 57.44 57.67 56.67 55.93 54.93 54.92 53.29 52.37 51.08 49.33 48.46 47.14 46.18
61.42 62.69 63.66 63.12 63.82 64.64 63.01 60.99 61.24 61.56 60.68 59.69 58.78 58.08 58.17 57.13 57.26 57.73 57.34 56.99 56.69 55.94 55.34 54.43 53.55 51.63 50.26 49.37 47.55 46.05 45.16 45.69
60.62 62.24 63.54 64.09 64.25 62.90 62.48 62.25 61.45 62.23 62.62 62.16 60.87 58.94 57.44 56.84 57.03 56.89 57.08 56.37 55.62 55.42 54.19 52.53 51.81 49.85 48.92 48.16 46.57 44.71 43.89 44.65
60.67 61.98 62.78 63.76 62.58 62.91 62.91 62.66 62.48 63.17 62.65 60.66 60.10 59.21 57.14 55.55 55.65 55.29 55.58 55.85 55.35 53.86 52.87 51.47 49.76 48.66 46.95 46.62 45.88 44.57 41.65 42.84
61.28 61.69 61.07 61.64 62.05 62.83 63.31 63.57 63.03 62.48 60.40 59.07 57.41 55.06 53.82 55.20 55.30 55.73 55.46 55.50 53.91 53.02 51.45 49.90 49.13 48.63 47.28 46.69 46.37 44.48 43.19 40.79
60.38 61.09 61.18 62.29 62.93 62.98 62.47 61.65 60.75 60.01 59.49 58.66 57.30 56.54 56.29 55.95 55.36 54.57 53.89 53.54 53.48 52.23 50.69 49.65 48.39 48.45 47.65 46.99 46.82 45.28 43.50 41.49
59.46 60.77 60.77 60.12 61.69 61.39 61.30 59.43 58.67 58.98 58.36 58.30 57.27 56.03 53.73 52.55 51.78 50.33 51.36 50.47 49.88 49.76 49.82 48.96 48.46 47.66 46.94 47.12 45.17 44.55 43.65 42.59
57.02 56.90 57.06 57.77 57.99 58.59 58.57 57.77 56.82 57.69 57.69 57.24 56.09 53.63 51.63 50.80 51.06 49.79 48.74 48.29 47.90 47.93 48.35 47.36 46.59 46.48 46.28 46.18 45.44 44.05 43.56 41.87
56.00 56.01 56.58 57.12 57.53 57.65 57.65 56.88 56.34 57.17 56.76 54.67 53.71 52.09 51.48 50.70 49.67 48.63 48.50 47.88 47.78 48.39 47.28 46.62 46.05 46.05 45.23 44.65 44.64 43.75 43.45 42.03
55.67 56.39 56.99 57.02 57.20 57.52 57.81 57.07 56.32 56.00 53.64 52.64 51.44 50.73 49.50 49.02 49.55 49.24 48.22 47.59 46.57 45.18 44.50 44.11 43.78 43.60 43.60 43.26 42.03 42.81 41.65 40.96
55.79 56.28 57.07 57.44 57.77 57.96 58.26 57.53 54.01 51.63 51.17 50.32 49.45 48.34 48.65 49.79 48.40 47.24 46.39 45.15 44.84 43.91 43.15 42.87 42.67 42.68 42.57 41.87 40.91 41.75 40.61 40.47
55.94 56.58 57.22 58.02 56.82 57.17 56.89 55.80 51.04 50.08 48.81 48.60 48.44 48.84 48.63 47.31 46.12 45.33 44.34 44.18 43.61 43.13 42.98 42.46 42.23 41.88 41.79 40.95 40.91 40.18 39.35 38.89
56.45 57.01 56.68 57.05 56.32 55.63 54.58 52.69 50.68 48.70 48.66 48.52 48.52 48.68 46.72 45.64 44.85 44.36 44.32 43.21 43.65 42.93 42.88 42.55 42.30 41.93 41.52 40.29 39.07 38.77 37.95 36.41
56.36 56.76 55.76 55.64 55.14 53.91 52.33 49.99 48.10 47.95 47.14 46.91 46.82 45.42 44.55 43.76 43.73 43.98 43.79 42.96 42.58 42.32 42.32 41.67 41.47 40.09 38.96 38.66 37.87 37.87 36.59 37.35
55.93 55.20 54.46 53.74 53.48 51.71 50.11 48.07 48.06 46.68 46.93 45.39 44.25 43.33 43.44 43.59 43.53 43.12 43.00 42.95 42.00 41.74 41.96 41.79 40.67 38.58 39.04 38.50 38.37 37.24 35.70 35.64
54.49 53.65 52.74 52.37 51.15 50.02 48.83 47.84 47.18 46.87 44.99 43.97 43.03 43.44 43.47 43.12 42.56 43.07 43.07 42.65 42.11 42.08 41.37 40.13 39.72 39.18 39.36 36.49 36.85 34.67 35.52 35.10
53.67 53.23 52.61 51.61 49.99 48.74 48.07 46.79 46.49 45.41 44.00 42.09 42.39 42.18 41.75 41.48 41.93 41.97 41.91 41.59 41.43 41.21 39.94 38.91 38.11 39.14 35.20 34.54 33.28 32.70 33.76 33.16
52.74 52.59 51.83 50.58 49.54 48.38 46.16 45.52 45.05 43.28 42.01 41.45 41.54 41.07 40.75 40.85 40.98 40.74 40.55 40.20 40.37 39.80 38.00 37.62 37.09 37.47 34.97 33.75 31.92 31.41 31.10 30.95
52.60 51.86 50.62 49.46 47.81 46.00 44.72 43.69 42.91 41.70 40.78 40.33 40.37 40.37 39.72 40.06 40.19 40.19 40.00 39.93 38.55 37.84 35.72 36.59 36.52 36.61 34.77 33.21 31.76 29.92 30.06 30.77

GFSFLT1_sfc_wetblb_057.txt.gz
Wetbulb
55.51 56.63 59.96 61.63 61.60 61.70 61.00 59.52 58.47 57.82 57.80 56.98 57.13 56.80 56.00 56.06 54.20 54.95 54.75 54.71 54.74 53.58 52.40 51.63 51.02 49.12 48.01 47.29 44.97 44.71 43.54 42.62
56.48 57.74 57.52 60.59 61.02 60.56 59.43 58.15 58.48 58.44 57.30 56.34 56.04 54.79 54.93 53.82 53.68 54.59 54.04 53.48 53.63 52.07 51.27 50.06 48.94 47.46 46.01 45.84 43.97 42.97 42.05 41.99
57.38 57.87 58.30 61.24 60.80 59.85 59.17 58.50 59.23 58.78 58.22 57.86 55.90 54.83 53.50 52.70 52.92 52.99 53.19 52.77 52.54 52.46 49.84 48.25 47.37 45.66 44.96 43.77 42.92 41.46 41.06 41.45
57.20 58.85 59.80 60.07 59.64 59.53 59.29 59.33 59.60 59.33 59.86 59.83 55.60 54.01 52.49 51.43 51.01 50.75 51.79 52.66 51.77 50.11 48.71 47.35 46.00 45.18 43.56 42.82 42.52 41.52 39.36 40.19
58.70 58.68 58.72 59.76 59.80 60.31 60.84 60.44 59.77 60.18 60.60 56.18 54.13 50.83 49.78 50.22 50.85 51.54 51.49 52.05 50.88 50.12 48.26 46.72 46.17 45.96 44.45 43.63 44.40 41.86 40.82 39.02
57.79 58.52 58.80 58.95 60.03 59.18 59.60 59.79 59.76 59.17 56.61 54.49 52.35 50.91 51.68 53.06 53.83 52.95 52.41 52.18 51.69 49.66 48.00 46.18 45.63 45.32 44.40 43.84 43.68 42.11 40.92 39.29
59.08 58.89 59.17 58.20 58.49 58.90 59.13 56.95 55.47 54.14 54.16 53.00 51.89 50.51 48.86 47.37 47.11 48.24 47.95 47.08 46.70 46.48 46.50 44.96 44.37 43.50 42.84 42.52 42.35 41.66 41.24 40.68
56.33 56.95 55.76 55.01 54.07 53.98 53.50 53.60 53.09 53.50 53.08 51.11 48.54 47.34 46.80 46.22 46.17 46.90 46.40 45.03 45.63 44.82 44.50 43.32 42.76 42.79 42.79 42.40 41.64 41.69 41.50 40.08
53.14 53.34 53.26 52.95 53.28 52.77 52.40 52.55 52.62 53.13 51.05 49.06 47.98 48.02 46.87 47.74 47.58 46.83 45.90 45.19 45.19 42.15 41.31 41.32 41.09 41.01 40.35 40.14 39.50 39.27 40.47 39.49
52.06 52.56 53.34 52.89 52.97 52.99 52.38 52.06 52.69 51.88 49.00 47.55 46.51 46.54 47.03 47.09 47.38 46.91 46.86 43.34 43.32 40.59 40.18 39.75 39.80 39.79 39.71 39.30 38.33 37.96 38.65 38.44
51.49 52.50 53.29 54.05 54.03 53.69 53.04 53.59 52.11 48.52 46.77 45.97 46.54 46.42 47.11 47.78 46.92 45.91 43.20 40.83 40.74 40.12 39.50 39.40 39.38 39.35 39.40 38.56 37.78 38.33 37.45 36.83
50.48 51.43 53.88 54.66 55.11 55.38 51.45 49.06 48.88 46.85 44.51 44.94 46.03 46.57 47.71 46.52 44.74 42.18 40.49 40.25 40.16 40.06 40.15 39.72 39.65 39.10 39.24 38.05 37.50 37.31 36.51 35.38
50.97 51.75 54.32 54.66 54.58 53.74 48.86 47.91 45.78 44.04 45.98 46.76 47.30 48.02 46.72 44.10 42.41 40.58 40.09 39.40 40.14 39.93 40.31 39.80 39.94 39.27 37.99 36.88 36.26 36.02 35.17 33.89
51.12 52.78 53.46 53.33 52.86 51.00 47.83 46.17 45.35 47.38 48.26 46.64 46.53 46.15 42.46 40.91 39.46 39.99 39.85 39.57 39.48 39.71 40.39 39.85 39.60 37.89 36.71 36.73 36.66 36.16 34.86 34.31
52.28 53.43 52.97 52.32 51.60 47.44 46.09 45.33 45.13 45.98 46.02 45.35 43.26 41.21 41.27 40.31 40.42 40.48 39.92 40.33 40.09 39.75 39.87 40.08 38.96 36.69 37.17 37.18 36.43 34.49 34.01 34.51
51.45 50.53 49.49 48.89 46.62 45.58 44.88 43.95 44.03 45.86 43.96 41.69 40.50 39.76 39.04 38.98 38.90 39.32 40.45 40.47 40.15 39.81 39.55 38.49 37.85 37.56 37.94 35.37 35.57 34.81 32.63 32.27
50.02 49.49 48.76 47.02 46.23 44.57 44.66 43.74 43.92 41.50 39.94 39.46 40.20 39.76 38.31 38.53 38.62 39.08 39.47 39.42 39.30 38.94 37.61 37.18 36.31 37.73 35.76 34.81 32.81 31.42 33.33 31.79
49.09 48.97 48.16 47.42 46.30 45.61 42.49 41.35 40.46 39.15 39.78 39.52 38.62 39.15 38.25 38.58 39.45 39.15 38.87 38.08 37.69 36.69 36.07 35.85 35.17 35.49 35.14 34.39 33.10 30.12 30.66 30.53
47.72 46.85 45.00 43.61 42.60 40.86 39.94 39.87 39.56 39.65 38.71 38.66 39.17 39.21 38.68 38.73 38.56 38.28 37.70 36.79 35.59 34.72 34.53 34.28 33.89 35.41 35.31 34.42 32.84 30.06 28.06 28.37

GFSFLT1_sfc_wetblb_060.txt.gz
Wetbulb
57.62 59.24 58.48 59.46 59.13 59.95 60.05 59.36 58.13 57.50 57.22 56.52 56.18 55.38 54.69 54.24 53.25 52.82 53.27 53.87 53.80 52.06 50.60 49.25 48.52 46.83 46.27 44.69 42.86 42.54 41.55 40.77
58.00 58.72 58.93 58.99 59.16 59.64 59.38 58.08 57.48 57.11 56.26 55.28 54.45 53.38 53.73 52.93 52.54 53.51 52.81 52.48 52.13 50.36 49.35 47.87 46.71 45.38 44.66 43.80 42.52 41.18 40.31 39.88
54.89 57.08 58.56 59.21 59.06 58.99 58.08 58.10 57.82 57.48 56.83 56.36 55.80 54.14 53.51 52.48 52.32 52.05 51.73 51.71 51.17 49.68 47.81 46.50 45.39 44.38 43.36 42.52 41.65 40.25 39.91 39.72
54.90 56.45 58.73 58.94 58.70 57.90 57.79 57.94 58.02 57.76 57.26 57.39 53.95 52.19 51.02 50.15 49.86 49.49 50.40 51.11 50.56 49.23 47.92 46.28 44.62 43.98 42.81 41.73 41.26 40.41 38.31 38.99
57.56 58.14 59.04 59.25 58.89 58.04 58.21 58.58 58.06 57.80 58.44 57.11 53.37 50.48 49.26 49.11 49.46 49.71 50.17 50.46 49.30 48.54 47.17 45.75 44.57 44.22 42.82 42.25 42.99 40.56 39.76 38.31
57.52 58.44 58.70 59.08 59.06 58.69 58.45 58.39 58.22 58.67 58.82 56.57 53.77 49.61 49.28 49.81 50.38 49.75 50.00 49.35 48.97 48.19 46.13 44.51 43.91 43.93 42.49 41.81 41.94 40.58 39.79 38.47
57.61 58.84 59.67 59.13 59.09 57.81 57.93 57.62 58.36 58.17 56.23 53.43 51.40 49.92 49.07 48.91 48.04 47.12 47.52 47.00 46.97 45.95 44.73 43.22 42.39 41.78 41.40 40.85 40.37 40.10 39.74 39.41
56.43 56.54 57.30 57.38 57.16 57.64 56.52 55.64 52.41 51.95 50.74 49.85 49.07 47.17 46.61 46.00 45.92 46.60 46.04 45.74 45.44 44.63 44.05 41.23 40.60 40.25 39.78 39.19 38.35 37.75 38.33 38.44
56.44 56.69 56.02 56.13 55.56 54.76 54.24 51.93 51.06 49.98 48.27 46.84 46.31 46.27 45.61 46.20 46.89 46.66 45.99 45.35 43.55 43.02 41.32 39.60 38.93 38.78 38.35 37.93 37.05 36.53 37.43 37.67
54.92 54.42 53.95 52.45 51.08 50.78 51.10 51.27 51.18 49.05 47.10 46.38 45.67 46.50 47.04 45.70 47.21 47.10 46.29 45.26 42.81 40.66 39.30 38.24 38.23 38.34 38.15 38.17 36.58 36.51 36.38 36.26
52.79 53.49 52.78 52.91 52.48 51.74 50.61 51.40 50.57 47.30 45.98 45.43 45.90 46.19 47.29 46.75 45.84 46.78 44.03 42.46 41.39 39.32 38.17 38.23 38.07 38.13 38.87 37.90 36.27 36.43 35.59 34.78
51.85 53.12 53.03 53.23 52.89 52.08 50.71 49.44 47.15 45.61 44.40 44.47 45.63 46.06 47.02 46.44 44.69 42.80 41.99 40.30 39.41 38.83 38.90 38.45 38.53 38.67 39.10 36.85 36.21 35.97 34.98 33.95
51.52 52.52 52.42 52.00 52.14 49.53 48.34 47.86 46.97 45.44 46.04 46.80 46.95 47.12 46.80 45.06 42.54 41.19 41.02 39.19 38.93 38.76 38.90 38.93 39.30 39.42 38.09 36.51 35.57 35.80 35.02 33.75
50.23 51.29 51.81 52.14 51.33 47.49 45.90 45.94 45.17 46.52 47.83 46.85 47.67 47.56 42.20 40.61 40.57 40.09 38.99 38.35 38.05 38.02 39.12 38.98 39.16 39.21 36.71 35.47 35.87 35.92 34.91 33.48
49.17 50.60 51.49 51.02 47.58 45.82 45.18 46.08 47.64 48.68 47.77 46.60 43.38 41.36 40.68 39.70 39.25 38.19 38.77 38.77 38.56 39.54 39.55 39.39 39.21 37.25 36.55 36.92 36.51 34.47 33.04 33.55
49.73 49.51 49.38 45.75 44.67 44.54 46.09 46.25 46.80 45.27 41.68 39.31 38.97 39.03 39.60 38.49 37.34 36.83 37.71 39.49 39.21 38.86 38.60 38.04 37.51 37.09 36.90 35.51 34.85 33.90 31.73 31.33
48.86 49.05 47.74 46.02 45.61 45.33 45.10 43.33 41.19 39.79 38.54 38.88 39.49 38.43 37.21 38.06 36.95 38.91 38.95 38.59 38.67 37.82 37.28 36.13 35.61 36.70 36.91 35.99 33.84 30.69 31.96 32.44
48.68 48.38 47.12 46.37 45.15 45.09 41.70 38.94 38.53 38.17 38.00 38.98 37.84 37.66 36.63 37.05 38.61 38.22 37.58 37.14 36.47 35.46 35.17 34.71 34.19 34.49 36.25 35.32 34.01 30.99 30.25 28.80
46.18 45.57 43.41 42.19 41.02 39.13 38.15 38.39 38.42 38.11 37.58 36.52 36.73 37.44 38.16 37.88 37.70 37.12 35.98 35.94 34.63 33.78 33.46 33.84 32.81 33.93 35.84 35.32 34.30 28.64 28.78 28.37

GFSFLT1_sfc_wetblb_063.txt.gz
Wetbulb
57.45 58.81 59.95 57.72 57.35 57.77 60.00 58.31 57.18 56.22 55.98 55.38 54.86 54.42 53.98 53.33 52.63 52.53 52.68 52.67 52.36 50.34 49.43 48.67 47.81 46.20 44.48 42.95 41.82 41.64 40.40 39.70
55.83 58.75 57.79 56.51 56.17 58.41 58.55 57.27 56.80 56.32 55.39 54.36 53.04 52.64 52.55 51.54 51.58 52.32 52.45 52.46 51.86 49.81 47.82 46.51 45.33 44.69 43.20 42.58 41.54 40.15 39.41 39.07
54.77 56.01 55.16 55.86 57.14 57.90 57.62 57.77 56.80 56.49 56.19 55.24 54.96 53.27 52.68 51.38 51.68 51.44 51.48 50.93 49.68 48.80 46.91 45.39 44.55 43.71 42.52 41.77 40.95 39.61 39.13 38.72
54.17 55.71 54.99 56.51 56.95 57.18 57.50 57.43 57.13 56.90 56.23 55.36 52.97 51.68 50.74 50.00 49.64 49.16 49.66 50.58 49.64 48.36 46.75 45.14 43.53 43.04 41.64 40.64 40.21 39.45 38.01 38.21
53.97 54.34 55.90 56.69 57.37 57.81 57.49 57.63 57.37 57.53 56.93 55.92 53.81 50.67 49.10 49.02 48.88 48.59 49.14 49.92 49.06 47.84 45.92 44.51 43.55 42.90 41.82 41.97 41.99 39.57 38.84 37.69
52.43 54.32 56.90 57.72 57.75 56.94 57.10 57.63 57.83 57.70 57.74 56.66 52.91 49.60 48.74 48.71 48.77 48.57 48.45 47.68 47.33 46.38 45.02 43.58 43.10 42.19 41.60 40.66 40.17 39.42 38.84 37.51
54.65 55.37 57.69 58.51 58.18 57.10 57.08 57.85 57.49 57.37 57.14 55.66 53.09 50.03 48.51 48.32 47.96 47.40 45.51 44.80 44.90 44.99 44.65 42.69 42.37 43.10 40.69 39.21 38.15 37.80 37.79 37.73
56.06 56.28 57.46 58.19 57.98 57.22 57.58 57.58 56.60 56.64 55.92 53.70 52.04 49.43 48.94 48.58 47.10 44.48 43.46 43.65 44.12 44.16 44.14 43.78 42.01 38.96 38.26 38.26 36.93 35.86 35.83 35.73
56.08 56.88 57.40 57.89 57.72 57.52 57.34 56.36 52.43 52.18 51.21 50.69 47.87 47.13 46.13 45.85 45.04 44.24 45.02 45.22 43.13 44.12 43.78 41.78 40.07 38.58 37.54 36.79 35.79 35.90 36.26 35.59
55.70 56.34 56.72 56.96 56.74 56.40 54.10 51.88 49.63 47.54 46.75 46.61 45.87 47.22 46.67 46.26 46.74 46.79 45.56 45.86 45.37 42.83 41.18 38.93 37.92 37.68 37.67 36.79 35.82 35.26 35.13 35.24
55.68 55.63 55.25 55.49 55.58 54.60 51.23 51.17 48.60 46.26 46.15 47.45 46.90 46.69 46.71 47.02 47.79 46.77 46.23 44.62 42.63 40.77 39.41 38.48 37.81 37.63 37.54 37.84 36.22 35.64 34.94 33.95
54.40 54.82 54.44 54.24 52.94 51.42 51.15 50.24 47.35 45.34 45.47 45.66 46.25 46.31 46.28 46.47 45.28 45.19 43.81 42.13 40.78 39.87 38.95 37.34 37.38 37.74 38.05 36.59 35.42 35.39 34.28 33.65
53.63 54.04 52.82 51.12 50.63 50.73 50.43 49.81 47.11 45.66 45.43 44.50 45.18 45.55 44.46 45.08 45.47 43.88 41.50 38.59 39.99 38.66 38.07 37.99 38.04 37.81 37.24 35.87 34.42 35.02 33.82 32.83
51.48 52.21 51.88 51.18 50.46 48.36 45.85 44.22 43.19 45.36 46.31 46.74 46.02 46.84 44.88 43.15 41.42 40.74 38.48 38.55 38.22 37.28 37.52 37.39 37.44 37.34 37.08 35.76 34.84 34.58 34.54 33.84
49.79 50.45 50.47 49.90 47.81 44.84 43.53 44.36 46.49 46.93 46.49 47.25 46.07 43.78 43.04 40.02 38.47 38.69 38.64 38.12 37.37 38.04 37.63 37.79 37.66 37.43 36.96 35.99 35.94 35.00 33.38 33.04
47.49 48.18 48.47 46.21 44.91 44.58 45.27 46.56 47.86 47.43 46.84 44.27 42.37 41.42 39.50 37.73 38.20 36.24 36.49 38.99 37.39 37.48 37.22 37.00 37.20 36.90 36.24 35.40 34.93 34.01 32.67 31.19
48.09 48.85 46.57 44.58 44.70 45.61 45.09 45.73 45.64 44.55 41.66 38.95 38.51 37.33 37.62 37.43 37.51 36.45 37.58 36.64 36.93 36.09 35.44 35.49 35.14 36.23 36.46 36.72 34.78 31.45 31.00 30.45
48.05 46.86 45.48 44.98 44.39 45.19 44.16 41.99 41.29 38.25 37.89 37.01 37.67 38.35 37.84 37.40 38.05 37.53 35.71 34.77 35.26 34.38 33.59 33.38 33.20 33.52 35.68 36.85 35.44 30.75 29.96 29.64
45.95 45.67 44.04 43.41 41.81 39.34 37.87 37.64 37.40 36.16 35.68 36.21 36.90 36.58 37.49 37.43 36.84 35.43 34.50 34.78 34.07 33.04 32.21 32.22 31.79 32.81 35.34 35.97 35.15 30.56 28.76 28.65

GFSFLT1_sfc_wetblb_066.txt.gz
Wetbulb
57.65 58.80 59.06 58.32 57.85 56.92 58.70 57.59 56.19 55.35 55.07 54.55 54.43 54.41 54.61 54.31 53.22 52.36 51.35 50.95 50.91 50.23 49.63 47.97 47.70 45.99 43.48 42.53 41.64 41.22 40.43 39.69
57.04 57.45 57.86 56.16 55.70 57.48 57.51 56.27 55.57 55.92 55.03 53.03 52.38 52.48 52.08 51.96 52.83 52.45 52.90 51.43 50.17 49.03 47.30 45.73 45.49 44.13 42.33 42.00 41.14 40.20 39.70 38.92
54.12 55.92 56.14 54.97 55.06 57.24 56.91 56.65 55.85 55.82 55.68 53.77 53.41 52.54 51.99 50.84 52.22 51.93 51.65 51.12 49.90 48.18 46.28 44.82 44.21 42.65 41.99 41.56 40.69 39.69 39.06 38.97
52.39 54.60 55.62 54.65 55.50 56.59 57.82 56.89 56.23 55.91 55.40 54.74 53.73 53.46 50.59 49.88 49.67 49.02 49.72 50.20 49.33 47.42 45.93 44.16 42.93 42.52 41.28 40.49 40.30 39.81 38.13 38.61
52.77 53.74 54.94 54.64 55.58 56.51 57.74 57.19 56.57 56.17 56.00 54.66 53.84 52.85 50.31 50.10 49.32 48.54 48.54 49.18 47.96 47.10 45.35 43.58 42.91 42.57 42.67 41.32 43.06 39.68 39.19 37.92
52.58 53.48 55.40 55.47 55.32 55.79 56.43 56.73 56.71 56.83 56.71 55.96 55.34 53.91 50.14 48.82 48.25 48.02 47.26 46.47 46.25 45.24 44.11 43.42 44.74 42.80 42.16 41.24 40.07 39.22 38.88 37.77
52.27 52.08 54.69 55.10 55.09 54.85 55.59 56.31 57.21 56.79 56.61 56.61 55.54 53.04 48.70 47.59 47.20 46.52 45.43 44.78 44.11 44.45 45.33 44.44 41.92 43.30 42.04 39.10 37.83 37.50 37.30 37.14
50.35 52.62 55.14 55.61 56.33 55.93 56.47 56.87 56.47 57.05 56.47 56.95 55.76 51.59 48.60 48.08 47.02 44.95 43.29 43.23 42.52 43.18 44.24 44.28 42.79 41.44 40.04 37.43 36.60 35.90 35.64 35.14
52.60 53.37 55.82 56.49 56.97 57.57 57.07 56.95 56.75 56.13 56.13 56.15 53.17 50.67 49.23 47.72 46.25 43.92 43.59 43.73 44.03 45.09 45.31 43.93 41.35 40.22 37.70 37.72 36.02 35.67 36.06 35.94
53.75 55.04 55.74 56.27 56.69 57.41 56.95 57.27 55.80 54.72 54.00 51.77 49.44 49.27 47.42 45.83 45.76 46.29 46.00 43.90 45.48 45.27 44.12 41.63 39.74 39.33 38.91 36.53 35.65 35.71 35.46 35.13
53.59 55.30 55.78 56.89 57.15 57.93 57.69 55.77 53.53 49.89 48.99 48.92 47.73 45.46 46.06 47.14 46.10 45.54 45.75 45.55 45.24 44.45 41.86 39.79 39.38 38.68 37.88 36.35 35.55 35.22 35.25 34.83
53.74 55.12 55.94 56.21 57.11 55.53 54.09 51.66 48.25 46.41 46.25 46.00 46.12 45.58 45.50 46.42 46.20 45.92 45.59 45.15 44.65 41.50 40.24 39.31 38.91 36.58 37.93 37.25 36.16 36.14 35.08 34.14
53.85 54.59 54.70 53.94 53.36 53.10 52.18 50.05 46.27 44.14 43.84 44.79 44.09 44.38 44.55 45.31 44.61 45.21 44.75 42.93 41.40 38.52 38.71 39.15 38.29 37.51 37.29 36.88 35.76 35.76 34.34 33.45
51.67 52.22 52.21 51.98 50.89 50.55 49.10 45.40 42.99 43.27 45.28 45.23 45.15 45.29 45.36 44.06 45.04 44.18 42.42 37.79 37.82 38.63 38.81 38.76 37.43 37.58 36.93 36.28 35.50 34.58 34.04 33.89
50.60 50.84 50.16 49.22 48.25 46.73 44.72 46.11 45.93 45.98 46.56 47.07 45.62 46.18 44.88 42.50 40.56 38.91 37.66 38.69 38.54 38.55 38.23 37.76 37.48 36.88 36.53 36.65 35.42 34.14 33.75 33.28
48.50 48.53 48.11 46.14 44.75 45.23 45.97 45.95 46.06 47.45 46.47 46.73 44.98 42.18 40.31 39.44 38.65 38.33 38.14 38.88 38.25 37.93 36.80 36.23 35.96 36.43 36.40 34.94 34.40 33.80 32.40 31.84
45.82 47.90 46.77 46.59 44.99 44.97 46.31 45.90 46.10 46.86 45.48 42.49 40.50 40.09 38.27 37.87 37.05 37.67 37.98 37.62 37.25 35.97 34.91 34.64 34.62 35.48 36.32 36.73 35.47 32.36 31.80 31.15
46.10 46.56 45.40 45.19 45.83 45.57 44.88 44.63 44.74 43.05 39.84 39.10 38.21 38.03 37.62 36.25 38.07 37.51 36.61 35.68 36.27 34.79 34.09 33.14 32.41 32.59 35.12 36.48 36.08 32.42 30.81 29.99
44.20 43.63 43.11 43.59 42.51 40.84 39.50 38.68 37.49 38.04 37.93 37.07 37.59 37.76 37.49 37.38 36.81 36.15 35.31 34.92 34.26 33.38 32.21 31.71 30.97 31.77 34.58 35.27 35.34 32.08 30.15 30.07

GFSFLT1_sfc_wetblb_069.txt.gz
Wetbulb
57.76 58.74 59.66 59.79 60.55 61.53 61.71 62.04 61.41 60.85 61.13 61.54 61.65 61.86 61.36 61.25 60.88 60.08 58.60 56.36 56.69 55.70 55.58 54.67 54.46 52.21 50.92 50.88 50.31 50.17 50.18 50.13
58.14 59.31 60.22 59.90 60.88 60.78 61.30 61.11 60.63 59.86 59.54 59.84 59.56 59.95 59.23 59.61 59.07 57.45 55.71 55.51 55.05 56.30 54.76 53.79 52.87 52.01 51.15 51.13 50.44 49.91 49.31 49.70
57.89 58.72 60.03 60.53 60.38 60.62 60.91 60.79 60.27 60.40 60.99 60.38 60.07 59.13 58.21 58.62 57.81 55.99 54.88 54.68 55.48 55.12 53.67 52.48 52.45 51.00 50.77 51.02 50.60 49.23 49.39 49.08
57.49 57.94 59.40 59.90 60.28 60.18 60.70 61.04 60.74 60.68 60.59 58.86 57.32 56.85 55.92 55.40 55.21 53.71 54.88 54.91 55.07 53.96 53.23 52.59 51.85 51.65 50.48 50.15 49.71 48.92 47.63 47.81
57.63 57.55 58.51 59.59 59.75 60.65 61.21 60.60 60.01 59.84 59.65 58.72 57.76 56.74 54.24 55.25 54.03 53.54 54.44 55.31 54.12 53.19 52.19 52.09 51.81 50.87 50.21 50.07 49.57 48.91 48.48 46.62
56.85 56.46 57.84 59.39 59.92 59.36 60.64 60.31 59.80 59.45 59.34 59.13 58.24 56.22 56.41 55.53 53.07 53.74 53.98 53.97 53.47 52.20 52.13 51.58 50.83 50.15 49.50 49.47 48.72 47.82 48.59 46.29
58.45 57.85 57.77 58.37 59.19 59.48 59.97 59.84 59.43 59.40 59.20 58.85 58.16 56.73 55.08 54.00 53.31 52.94 52.90 52.73 52.22 51.84 50.83 50.40 49.21 48.73 46.32 46.34 46.53 45.41 46.03 45.96
57.30 56.28 56.04 57.51 57.80 58.67 59.15 59.28 58.36 59.36 59.12 58.84 58.52 57.33 55.63 55.02 53.77 53.26 52.15 51.44 50.49 49.96 49.88 48.18 48.54 44.33 43.36 43.61 44.87 44.90 44.78 44.39
55.72 56.72 56.81 57.56 58.07 58.62 58.97 58.32 58.74 59.21 58.94 58.75 58.76 57.50 55.07 55.16 54.84 53.86 53.04 52.08 50.65 49.75 49.10 46.94 44.62 43.67 43.33 43.09 43.58 45.05 45.03 44.86
54.46 55.72 57.15 57.77 58.25 58.57 58.94 58.63 58.55 58.48 58.52 59.24 58.71 56.40 55.48 55.14 54.89 54.07 52.48 51.01 48.83 49.52 49.44 45.29 44.52 42.92 44.07 44.69 44.83 44.51 44.66 44.57
54.43 55.95 57.16 58.36 59.23 59.55 59.90 59.88 59.22 58.49 59.01 59.18 58.02 57.10 57.22 55.57 53.26 51.00 49.78 49.37 49.37 49.45 46.12 44.42 43.29 44.57 44.62 44.22 44.14 43.96 43.46 43.72
54.51 56.68 57.72 58.66 59.62 60.06 59.54 59.43 58.29 57.47 58.25 58.04 56.97 55.54 54.48 52.42 51.27 49.55 49.44 49.06 46.45 46.03 45.27 44.61 44.54 44.27 43.98 43.74 43.77 43.32 42.30 42.56
55.76 56.99 57.83 58.26 58.75 58.75 58.64 57.87 56.39 56.74 54.82 53.80 52.42 50.53 50.49 50.66 49.47 49.23 49.30 46.39 47.78 44.99 44.54 44.63 43.83 43.28 43.72 43.09 42.77 42.26 41.86 41.26
55.64 56.63 57.11 57.64 57.91 57.10 57.44 55.28 52.17 50.71 50.70 49.49 49.25 49.43 48.38 48.14 47.61 47.45 46.45 45.61 46.19 44.92 44.10 42.97 43.21 43.27 42.92 42.90 42.58 42.07 41.67 41.26
55.27 56.17 56.48 56.82 56.51 56.28 53.62 51.02 49.69 48.68 48.38 48.02 48.11 47.94 47.52 46.23 46.06 44.98 42.56 41.38 42.83 42.26 42.77 43.15 43.03 42.44 42.14 42.18 42.04 41.77 41.13 40.58
53.19 55.15 55.08 53.52 52.48 51.79 51.06 49.15 49.08 49.83 48.87 48.14 46.65 45.28 42.69 41.59 40.98 41.32 40.92 42.23 42.83 42.52 42.18 42.18 42.18 41.46 40.81 41.47 41.19 41.06 40.53 40.28
51.24 52.69 51.61 50.05 49.58 49.50 48.66 49.14 48.88 48.96 47.01 44.75 42.85 41.01 39.98 40.12 39.90 38.89 41.04 41.79 41.32 41.29 41.24 40.86 40.25 39.29 36.57 36.56 37.47 40.19 39.96 39.46
49.08 50.57 50.37 48.94 48.47 48.34 48.30 48.36 48.69 47.24 45.12 41.45 39.92 38.98 39.60 39.39 39.04 40.89 40.24 39.82 41.32 40.51 40.25 39.88 39.63 39.81 35.49 35.84 35.81 38.70 38.93 38.88
47.28 47.58 47.59 48.07 48.55 48.21 47.12 45.69 43.02 40.77 38.89 38.23 38.47 38.91 38.40 38.29 40.81 40.02 40.40 40.52 39.92 39.99 39.93 39.28 38.76 38.18 34.57 34.77 34.69 37.85 38.32 38.47

GFSFLT1_sfc_wetblb_072.txt.gz
Wetbulb
58.79 60.02 62.32 62.19 60.58 60.97 61.50 63.27 64.40 65.60 64.79 64.35 64.80 65.07 65.04 65.17 65.50 65.61 64.31 63.28 62.11 61.74 60.61 59.70 58.87 57.36 55.69 54.71 54.47 55.25 55.31 54.33
60.32 61.13 61.28 61.78 61.86 61.85 63.07 64.01 65.26 65.12 63.59 61.94 62.57 62.73 63.19 63.85 64.27 64.18 62.60 58.51 60.95 61.82 60.02 58.77 58.07 56.63 55.51 55.61 55.24 54.18 54.82 55.29
59.26 60.31 61.19 61.35 61.56 62.39 63.33 63.96 64.75 64.94 63.32 62.98 63.99 64.45 62.78 63.82 64.36 61.47 60.93 59.91 60.23 59.05 59.18 57.98 57.49 56.18 55.18 54.97 54.73 54.87 55.33 54.95
58.30 59.51 60.61 61.25 61.12 62.19 63.00 64.07 64.75 65.18 65.00 63.58 64.18 64.23 62.74 62.34 62.29 58.71 57.74 57.50 58.55 59.12 58.67 58.05 57.37 56.27 54.86 55.09 54.49 53.47 53.14 53.19
60.10 59.88 60.63 61.85 62.64 63.25 63.47 64.16 64.72 65.24 65.37 63.63 62.35 61.50 60.93 61.60 60.82 58.71 56.57 57.09 58.59 58.61 58.11 57.90 57.06 55.88 55.08 54.80 54.46 54.15 52.33 50.75
59.97 60.63 61.35 62.18 63.28 63.92 64.80 64.72 65.05 65.31 65.15 64.50 63.20 62.45 62.34 60.30 56.59 55.13 56.53 57.39 58.63 57.78 57.52 57.33 56.38 55.40 54.93 53.70 53.20 52.47 52.30 49.73
61.78 61.92 61.86 61.90 64.02 63.82 63.97 63.74 63.70 64.16 63.80 63.93 63.41 62.74 60.46 57.83 55.24 54.98 56.78 57.95 57.95 57.43 57.02 56.90 56.21 54.24 53.64 52.91 50.38 48.90 49.27 48.76
61.86 62.00 61.94 61.64 62.16 63.11 63.13 63.40 62.93 63.88 63.31 62.96 61.85 61.73 60.74 58.67 56.68 55.85 57.42 56.66 56.04 56.49 56.57 55.79 54.05 53.51 48.17 45.58 46.35 49.50 48.89 47.93
61.36 62.55 62.76 62.06 61.83 62.32 62.93 63.04 62.70 63.39 63.12 62.12 62.34 62.29 61.63 60.12 58.14 58.03 57.73 56.79 57.07 57.20 55.81 54.74 53.55 45.54 45.51 46.16 47.81 49.04 49.11 48.07
59.71 61.57 63.06 62.61 62.40 62.46 62.84 62.63 62.98 62.57 61.67 62.02 61.83 61.54 60.70 59.88 59.48 60.37 59.15 58.73 57.19 55.55 54.60 52.47 47.73 46.03 46.23 46.41 48.19 48.70 48.27 47.90
58.59 60.00 61.77 62.88 63.47 63.47 63.47 63.63 63.03 63.02 62.73 61.67 60.21 61.54 61.43 59.38 60.02 59.93 58.91 57.66 55.03 53.73 51.42 48.18 46.01 45.56 47.04 48.68 48.49 48.43 47.36 47.27
57.96 59.15 60.73 62.07 63.29 63.38 63.14 63.18 62.98 63.38 62.62 60.84 59.96 60.61 59.62 59.08 58.30 57.31 56.02 54.00 51.79 49.89 47.79 47.88 51.08 48.64 48.75 48.35 47.93 47.39 46.31 46.30
59.15 59.89 60.62 61.15 62.22 62.63 62.63 63.08 63.01 63.00 62.43 60.51 59.74 57.68 55.42 52.58 52.65 52.21 52.08 49.90 49.35 49.03 49.22 49.46 48.09 48.15 48.28 47.41 46.65 46.27 45.71 45.14
59.64 60.13 60.38 60.74 61.35 61.96 62.22 62.46 62.05 61.36 59.76 57.15 52.81 51.84 51.68 51.18 49.71 49.88 48.71 48.75 49.37 47.13 47.64 47.53 47.41 47.14 46.88 47.05 46.36 45.80 45.46 45.12
58.71 60.12 60.68 61.21 61.41 61.74 61.34 61.16 60.23 57.52 55.72 53.70 52.06 50.82 49.79 48.32 47.42 46.31 45.34 44.68 44.01 43.77 45.65 46.22 45.96 46.64 46.21 45.82 45.24 44.74 44.76 44.38
55.84 58.79 60.53 60.94 60.75 60.70 59.91 57.07 54.45 53.23 52.26 50.25 49.33 48.86 46.95 44.52 43.90 43.24 44.92 44.48 43.46 43.82 46.01 45.72 46.33 45.93 44.70 44.54 43.79 43.50 43.20 42.94
53.69 56.95 59.31 58.40 58.27 58.00 54.89 52.81 52.52 52.46 51.79 49.99 49.19 45.73 43.14 42.23 41.28 42.89 42.22 42.00 43.40 45.72 45.90 46.61 45.43 43.58 38.23 37.10 37.69 41.88 41.81 41.48
53.81 55.78 56.94 56.91 56.45 55.30 53.03 52.09 52.55 50.76 48.72 46.76 45.10 42.11 41.01 41.98 41.97 41.68 41.57 43.65 46.27 46.68 45.67 44.16 43.40 43.77 37.52 36.57 35.99 40.13 40.34 40.69
53.26 54.80 55.05 55.35 55.63 55.19 54.31 53.46 51.61 49.46 47.28 44.65 42.89 41.27 40.14 41.20 43.86 42.77 44.23 46.62 44.92 44.18 43.70 43.66 42.86 42.41 36.74 35.86 35.08 39.58 40.13 40.51

GFSFLT1_sfc_wetblb_075.txt.gz
Wetbulb
58.28 59.41 59.77 61.10 61.11 60.67 61.04 61.76 62.09 63.03 64.23 64.12 63.64 63.99 65.38 66.21 66.32 66.18 65.60 65.66 64.91 64.45 63.21 61.84 60.86 58.94 57.52 56.84 56.52 56.28 56.59 56.03
59.98 58.93 60.13 60.82 61.52 61.00 60.93 61.81 62.57 64.00 63.80 62.23 61.65 61.73 63.78 64.78 65.15 65.69 65.86 64.91 64.47 64.15 62.78 61.29 60.36 58.35 57.32 57.16 56.60 55.94 55.22 56.47
58.74 60.26 60.52 59.98 60.17 60.39 61.19 62.67 63.87 64.43 64.10 62.65 62.20 62.97 64.35 65.50 65.90 64.59 64.34 61.68 61.51 63.57 62.38 60.48 59.24 57.80 57.06 56.98 56.48 55.20 56.06 55.75
58.39 59.83 60.99 61.36 60.44 60.93 61.58 62.89 64.20 65.02 64.30 62.55 62.84 65.05 63.89 62.79 63.49 62.83 62.89 62.59 63.01 62.75 61.56 60.21 58.86 58.15 56.31 56.85 56.65 55.86 54.27 54.95
58.76 59.75 60.32 61.23 61.95 63.21 63.36 64.14 63.91 64.75 65.80 63.07 62.80 62.41 61.23 62.70 62.95 62.43 59.29 59.21 59.86 60.72 60.65 59.71 59.10 57.95 57.24 56.79 56.53 56.40 54.84 52.48
59.17 59.74 60.47 61.78 62.83 63.06 63.74 64.44 64.75 65.07 65.38 64.91 63.50 62.79 62.53 63.66 62.51 61.32 58.73 57.30 58.95 60.02 59.72 59.02 58.54 57.41 57.31 56.77 55.37 54.16 53.56 49.92
60.67 61.54 61.71 61.79 65.08 65.04 65.21 64.05 64.14 65.26 65.41 65.23 64.53 63.24 62.99 61.90 60.57 58.26 57.81 56.71 57.80 59.74 58.55 58.57 58.34 57.49 56.09 54.94 54.06 52.83 48.60 49.77
60.90 60.47 61.05 61.66 62.66 64.27 64.80 64.33 64.00 65.02 65.38 64.85 65.24 64.59 63.89 61.50 60.01 58.89 58.01 57.48 57.62 58.95 58.57 58.34 57.54 56.29 55.14 53.16 50.30 48.48 49.15 50.07
61.56 62.16 61.82 61.94 63.49 64.44 64.23 64.17 63.73 64.44 64.55 64.53 64.46 64.71 63.51 61.87 61.23 60.32 59.18 57.88 59.44 59.77 58.45 58.22 56.66 55.07 52.27 49.99 48.87 47.54 49.40 50.32
59.97 61.93 63.29 63.11 63.40 63.95 64.79 64.16 63.87 64.17 64.22 65.06 64.35 63.71 63.14 62.43 62.44 61.80 59.73 58.65 58.99 58.54 58.56 56.87 55.13 52.57 49.22 47.26 45.94 48.32 49.65 49.63
59.35 60.62 62.58 64.14 64.58 63.93 64.92 64.62 63.81 64.35 64.65 64.57 63.14 62.55 62.77 62.34 62.09 60.35 58.89 57.81 58.85 57.81 56.57 54.33 50.63 47.31 46.90 46.15 47.86 49.58 49.43 49.25
59.21 60.55 62.11 63.62 65.03 64.73 64.27 64.03 63.67 63.88 64.54 64.31 62.14 61.25 62.00 60.81 60.16 58.03 57.59 56.75 55.78 54.12 50.14 47.91 47.65 48.33 49.12 48.04 49.07 49.09 48.34 47.94
59.36 60.29 61.11 62.14 63.61 64.35 64.51 64.41 63.89 64.07 64.33 63.69 61.08 60.64 57.36 55.48 53.42 53.51 53.42 51.55 51.12 48.99 48.39 49.61 50.83 49.84 48.64 48.29 48.04 48.04 47.16 46.26
58.87 60.25 60.97 61.62 62.66 63.69 64.12 64.41 64.04 64.03 63.66 60.70 57.02 53.43 52.62 51.67 51.41 50.81 50.18 48.96 48.95 49.91 49.04 47.18 46.77 47.31 48.23 48.38 47.86 47.64 47.09 46.86
58.13 59.82 60.83 61.95 62.52 63.19 63.45 63.82 64.17 63.20 58.58 57.12 54.04 53.09 51.68 50.20 49.81 50.10 49.33 47.79 46.43 45.70 46.33 46.56 46.59 47.45 47.26 47.45 47.60 46.76 45.94 45.26
55.96 57.94 60.77 62.13 62.45 62.89 62.92 63.06 61.82 60.42 57.03 54.60 51.82 50.58 49.78 50.77 49.06 47.91 46.79 45.43 45.01 46.34 45.22 45.18 46.93 46.96 47.07 47.41 46.21 44.67 43.49 43.18
54.42 56.34 59.27 61.55 62.05 61.89 60.97 58.89 56.98 56.05 52.45 50.07 50.08 50.01 48.88 46.10 44.61 44.85 44.87 44.50 44.16 44.38 45.44 46.78 47.02 47.28 38.06 38.55 37.76 41.50 41.52 41.21
55.29 56.26 59.29 60.98 61.14 57.71 54.44 53.80 53.92 52.62 50.99 49.66 48.34 47.22 45.29 44.10 42.95 42.85 43.00 44.23 44.56 46.14 46.84 47.35 46.31 45.54 38.96 37.78 36.54 40.34 39.97 40.14
56.10 58.03 58.91 59.61 57.55 54.73 53.59 52.53 50.58 49.14 47.72 46.86 46.41 45.55 44.61 44.47 44.73 45.03 45.33 46.08 46.81 47.47 46.10 45.09 44.47 43.77 38.78 37.27 36.01 39.87 40.01 40.44

GFSFLT1_sfc_wetblb_078.txt.gz
Wetbulb
55.95 56.19 56.96 56.27 56.59 56.48 56.36 56.74 56.87 56.29 55.93 55.65 58.30 60.64 61.00 62.28 62.60 63.01 63.55 63.85 64.21 62.63 62.08 59.58 59.04 56.51 55.34 53.74 52.60 52.34 52.27 51.30
57.19 57.52 58.53 57.95 56.89 56.92 57.04 56.91 57.40 57.35 58.90 58.20 59.03 59.04 60.85 62.23 62.40 62.69 63.88 63.72 63.50 62.64 60.88 59.36 58.65 55.96 54.03 54.61 53.32 51.71 50.79 51.58
57.03 58.54 58.65 58.16 56.95 58.01 58.76 59.20 59.65 60.29 60.58 61.02 60.12 60.60 61.57 62.29 62.82 63.36 63.57 63.21 63.08 62.17 60.43 58.87 58.07 55.65 54.32 53.89 52.96 52.14 52.25 51.59
56.30 57.31 58.31 58.59 58.08 58.83 59.74 60.56 60.91 61.81 62.18 62.45 60.65 61.54 61.90 61.70 61.78 62.34 62.83 61.35 60.96 60.74 61.22 58.85 57.04 55.61 53.76 53.92 53.01 52.17 50.46 51.49
57.62 57.52 57.98 58.09 58.61 59.58 59.89 60.46 62.06 63.17 63.31 60.59 59.16 58.72 58.94 60.77 61.50 61.90 61.97 61.03 60.32 61.40 60.93 58.75 56.47 55.73 54.17 54.13 54.72 52.72 50.76 48.72
57.04 58.04 59.47 60.04 59.23 59.17 60.00 61.13 62.40 63.15 63.43 63.04 60.20 60.63 60.69 61.64 61.70 60.92 58.94 58.49 58.65 59.39 59.01 58.41 56.93 56.34 55.71 54.06 53.45 51.52 50.69 48.58
58.35 59.36 60.05 59.90 60.85 60.38 60.94 62.11 62.70 63.28 63.62 63.40 62.44 61.34 60.72 60.31 60.19 59.05 58.26 58.06 57.80 57.77 58.27 57.56 56.78 56.09 55.26 53.38 52.50 51.10 48.25 47.04
57.79 58.25 58.69 59.64 60.02 60.81 61.79 61.95 61.52 62.97 63.13 63.33 62.81 62.28 61.28 60.71 60.17 58.54 57.02 56.25 56.46 56.36 56.91 55.93 55.80 55.65 53.60 52.10 50.16 48.12 47.36 46.38
59.12 58.97 58.89 59.50 60.20 61.28 61.46 61.65 61.55 62.55 63.50 63.46 63.44 63.66 62.58 61.90 61.02 59.08 57.80 57.54 56.45 56.49 56.94 56.39 55.94 53.94 51.09 49.66 48.43 47.98 47.00 46.62
59.86 60.47 60.15 59.89 60.33 61.46 61.97 62.38 62.39 62.83 63.64 63.75 63.20 63.24 63.09 61.82 60.53 59.93 59.33 58.53 57.86 57.60 56.74 55.53 53.82 50.97 49.08 48.97 46.18 45.88 46.22 46.87
58.54 60.48 61.41 60.94 61.38 61.98 62.61 62.98 62.67 63.12 63.32 63.38 63.30 62.43 63.38 62.35 60.94 59.84 59.37 58.22 57.44 55.96 55.05 51.62 49.47 48.65 47.00 46.34 45.97 46.45 46.61 47.24
58.50 59.30 60.69 62.87 62.15 62.01 62.89 63.17 63.27 63.13 63.14 63.30 62.92 62.98 62.09 61.07 60.15 58.74 57.75 55.37 53.16 49.91 49.69 48.57 47.81 47.50 47.70 46.55 46.79 46.87 46.90 46.41
57.99 59.25 60.39 61.42 62.97 62.41 62.58 62.93 63.04 63.07 63.21 63.20 62.02 60.99 60.33 59.20 56.77 54.59 52.68 50.71 50.15 49.15 48.96 48.52 48.54 49.64 50.01 47.64 46.22 46.46 45.79 45.44
57.37 58.63 59.05 59.84 61.22 63.17 62.70 62.75 62.83 63.13 62.19 61.35 60.01 57.98 56.96 55.31 54.02 52.70 51.53 50.11 49.54 49.14 48.94 48.84 48.34 47.73 47.09 46.60 46.28 46.18 45.45 45.27
55.65 57.77 58.90 60.01 61.05 61.92 62.60 62.79 62.34 60.74 60.90 58.80 56.11 54.90 53.53 51.89 50.65 49.99 49.48 49.45 49.14 48.46 48.19 47.45 47.09 46.93 46.76 46.96 46.64 45.15 43.68 42.78
54.21 55.38 58.54 60.01 60.74 61.80 62.53 60.48 59.26 58.74 56.51 54.52 51.52 50.51 50.45 49.98 49.37 48.99 48.70 48.07 47.11 46.61 46.63 46.77 46.76 46.37 46.68 45.02 44.53 41.45 39.11 38.97
54.77 55.11 57.90 60.34 61.18 61.15 59.40 57.99 55.66 54.58 51.78 49.82 50.14 49.95 49.19 48.85 47.79 47.22 45.47 45.06 45.28 45.44 45.42 45.43 44.47 45.51 37.29 38.23 39.32 37.98 38.50 38.19
55.56 56.27 56.80 61.05 58.57 56.40 54.09 53.35 53.00 50.82 49.33 49.36 49.37 47.49 46.23 44.98 45.25 45.20 44.28 43.61 43.47 43.35 43.79 43.87 44.56 44.02 38.47 38.20 36.46 37.83 37.02 36.62
56.14 56.92 59.30 56.99 55.31 53.69 53.11 52.90 50.52 48.84 48.42 47.46 46.64 46.08 44.86 43.72 43.56 43.21 42.32 43.32 42.80 43.32 44.78 44.50 42.33 41.84 38.76 37.36 35.86 36.59 35.90 36.55

GFSFLT1_sfc_wetblb_081.txt.gz
Wetbulb
55.31 55.46 56.19 56.37 56.08 55.76 55.67 55.35 55.48 55.33 54.50 54.12 54.72 54.75 57.59 59.52 58.75 60.36 59.95 60.51 61.75 61.44 60.55 58.03 57.43 54.97 52.81 51.19 49.76 49.99 48.61 48.52
55.30 54.94 55.57 55.59 55.76 55.24 55.26 54.66 54.64 54.17 52.69 51.67 52.76 53.54 57.71 58.47 59.34 60.67 60.79 61.16 61.66 60.92 58.86 57.90 55.98 53.40 51.71 51.27 49.59 48.50 47.97 48.32
53.68 54.25 54.71 54.65 53.88 54.39 54.97 54.74 54.44 54.06 53.58 53.01 54.68 56.51 57.75 59.00 60.47 60.68 60.94 61.14 60.96 60.34 57.91 56.88 56.26 53.55 51.43 50.70 49.89 48.98 49.17 48.43
53.70 54.48 54.56 53.92 53.60 54.05 54.53 55.09 54.88 54.95 56.11 56.62 57.56 57.32 58.22 59.06 59.39 59.74 61.19 61.34 60.82 60.54 58.58 57.20 55.68 53.13 50.80 50.36 50.21 49.74 47.69 48.27
54.61 55.13 54.66 54.33 53.97 55.16 54.95 55.63 55.46 56.22 58.15 58.05 58.00 56.55 56.78 58.05 58.43 59.12 59.98 59.73 59.25 59.44 59.17 57.77 55.97 53.62 51.96 51.54 52.07 50.20 48.69 47.15
54.47 55.59 55.92 55.82 54.69 55.11 56.18 57.69 58.39 58.76 59.40 59.28 58.78 55.74 58.33 58.47 58.99 58.64 58.30 58.16 58.39 58.70 58.27 56.52 55.05 52.88 52.11 52.49 51.16 49.84 48.78 46.00
54.70 55.64 56.53 56.67 56.20 56.44 57.46 57.88 58.95 59.89 60.40 60.62 58.91 56.99 58.14 58.44 58.63 58.26 56.96 56.11 56.31 57.04 57.81 56.49 54.85 54.12 52.98 52.86 50.64 48.33 46.99 46.29
54.66 54.78 55.30 56.20 56.03 56.59 57.13 57.01 57.30 60.39 60.40 60.70 60.45 58.62 58.46 58.40 58.38 58.15 56.21 55.91 55.43 56.17 56.61 55.50 55.35 54.41 52.73 52.15 50.73 48.20 46.08 44.68
54.92 55.57 56.44 56.80 56.71 56.32 56.50 56.85 56.98 59.81 60.84 60.79 61.08 59.45 59.25 59.07 59.28 58.79 57.77 56.78 55.94 55.49 55.37 54.54 54.58 53.14 51.81 50.56 49.11 47.44 46.84 45.57
55.20 55.97 57.05 57.67 57.77 57.44 56.78 57.35 58.49 59.49 59.81 61.03 60.87 60.73 59.26 59.23 59.19 58.63 57.51 56.64 55.91 54.52 55.45 54.75 52.35 50.53 50.42 48.91 47.73 46.36 46.20 46.25
55.72 56.20 56.71 57.75 58.33 58.82 59.19 59.56 59.75 59.91 59.81 61.04 61.23 61.01 60.64 59.37 58.94 57.89 57.13 56.69 56.17 55.37 53.76 50.98 49.31 48.39 47.73 46.94 46.26 46.75 46.15 45.90
53.04 56.86 57.50 57.78 58.53 58.89 59.19 59.05 59.37 59.65 59.90 61.46 61.50 61.05 60.00 59.33 58.67 57.50 57.37 56.62 54.91 52.95 49.44 47.95 48.08 49.01 48.29 47.03 46.73 46.89 46.41 46.19
52.36 53.50 55.12 58.01 57.75 58.29 58.86 59.67 59.65 60.37 60.67 60.49 61.16 60.81 59.75 59.23 58.96 57.99 55.53 52.43 50.56 49.64 49.20 49.67 49.25 48.14 48.02 47.55 47.03 47.64 46.29 45.06
51.97 53.28 54.14 57.47 58.22 58.43 58.86 59.86 60.12 60.49 59.37 59.80 59.25 59.44 58.56 57.05 55.34 54.48 53.19 51.02 49.95 50.06 49.64 48.67 48.44 49.06 48.99 48.04 46.98 46.78 45.55 45.23
50.64 52.24 53.43 54.79 57.84 58.43 58.68 59.49 60.18 60.11 60.32 58.05 56.75 55.92 55.58 54.44 52.19 51.74 51.61 50.45 49.35 49.29 49.16 49.03 48.74 48.71 47.87 47.46 46.66 45.26 44.20 42.76
49.41 52.28 52.94 54.27 55.63 57.94 59.16 58.22 57.51 56.74 55.97 55.46 53.41 52.49 52.63 51.17 50.89 50.27 49.79 50.28 49.13 48.62 47.87 47.62 47.69 47.26 46.99 45.92 45.90 41.80 37.46 36.70
50.95 51.32 54.56 55.47 57.29 56.89 56.50 55.23 53.20 52.89 51.76 50.19 50.23 50.05 50.03 49.38 49.14 48.62 47.84 46.96 46.93 47.09 47.14 47.10 45.86 46.54 42.00 39.94 38.31 36.13 36.71 35.80
51.52 52.77 56.49 56.20 54.78 53.45 51.49 50.64 51.75 50.30 49.70 49.79 49.67 48.82 47.39 46.64 46.57 45.96 45.53 45.53 45.84 45.66 45.53 45.23 44.38 43.61 37.49 37.71 36.62 35.65 34.65 33.76
52.20 55.00 53.23 51.96 51.78 50.62 49.97 49.37 49.39 49.17 48.47 48.04 47.18 46.24 45.49 45.62 45.68 45.18 44.36 44.23 43.84 43.70 43.28 43.57 42.30 38.80 37.01 36.36 35.56 34.14 33.51 34.30

GFSFLT1_sfc_wetblb_084.txt.gz
Wetbulb
55.19 55.86 56.25 55.86 55.81 55.79 55.54 56.06 55.60 55.94 56.25 56.40 55.92 55.79 56.45 57.76 58.06 59.52 58.90 58.74 60.48 58.89 58.05 57.19 54.98 52.99 50.99 49.47 48.66 48.11 47.07 46.69
55.38 55.76 56.29 55.80 55.57 55.36 55.11 55.09 55.09 54.72 54.51 53.97 54.03 53.63 54.99 57.00 57.97 58.57 58.34 57.80 59.57 59.61 58.85 56.55 55.13 53.15 51.26 49.84 48.15 48.02 46.62 47.19
53.83 53.17 54.54 55.05 54.94 54.86 54.64 54.49 53.65 53.20 53.51 54.37 53.91 53.90 54.36 56.20 57.55 58.08 59.12 59.74 60.16 60.34 58.44 57.48 55.74 53.31 50.45 49.72 49.01 47.67 47.21 47.13
52.29 52.85 52.61 53.04 53.44 53.62 53.71 53.37 53.31 52.84 52.89 51.47 53.46 54.11 55.62 55.86 56.64 56.88 58.18 59.55 59.69 60.51 58.30 57.77 55.79 53.80 51.15 49.72 48.53 48.57 47.28 46.76
52.26 52.70 52.99 52.16 52.77 53.70 54.22 53.83 53.44 53.35 53.04 51.91 52.12 52.22 52.72 55.44 56.25 57.26 58.09 59.38 59.85 60.71 59.14 57.15 55.85 53.42 51.06 50.30 50.61 48.84 48.14 46.15
51.89 52.55 54.26 53.17 53.32 53.18 53.77 54.26 54.18 53.77 53.90 53.58 53.26 54.77 55.61 56.08 56.56 56.97 57.98 58.26 59.35 59.83 58.51 57.01 55.17 53.27 51.42 50.85 50.02 49.70 48.32 46.96
53.00 54.11 55.08 54.28 53.90 53.46 53.73 53.51 53.99 54.22 54.78 55.30 55.18 55.50 56.04 56.58 57.52 57.58 57.92 58.25 58.47 58.01 58.63 56.68 55.60 53.58 52.53 52.55 51.67 49.46 47.60 46.33
52.98 53.88 54.04 54.38 53.46 53.15 53.48 53.55 53.83 54.75 55.17 55.70 56.81 57.42 56.52 56.60 57.44 57.80 57.38 56.86 56.44 56.98 57.33 55.41 54.24 53.73 52.38 52.76 51.67 49.43 47.72 45.88
53.17 54.33 54.67 54.62 53.74 53.06 53.46 53.80 54.66 56.44 57.17 57.37 58.12 58.54 57.76 57.89 57.97 58.66 57.91 57.78 57.95 58.36 57.28 55.49 53.83 53.17 52.99 51.65 48.95 48.02 47.37 47.17
53.23 54.21 55.07 55.48 55.17 52.99 53.13 54.55 55.90 57.21 57.95 58.71 59.14 59.74 58.83 57.77 58.25 59.03 58.52 58.78 58.37 55.80 56.22 54.75 52.73 51.56 50.17 49.13 48.12 47.10 47.28 46.61
54.17 54.59 54.65 55.49 56.43 56.11 55.36 56.04 56.30 56.76 57.60 59.39 59.67 59.92 59.45 58.87 58.17 58.25 58.38 57.78 56.95 55.22 55.36 52.87 49.73 48.95 48.36 48.34 47.65 46.94 47.35 46.79
54.04 54.83 55.80 56.44 56.54 56.68 56.53 56.53 56.58 56.63 56.91 58.64 59.45 59.93 59.97 59.27 58.44 58.17 57.94 56.68 55.84 55.24 53.72 51.01 49.39 49.10 49.31 49.21 48.33 47.30 46.58 45.89
54.73 55.09 55.54 55.89 56.59 57.33 56.99 56.84 56.62 57.14 58.08 58.44 58.92 59.57 59.71 58.94 58.34 57.52 56.68 55.60 55.16 52.90 51.77 50.35 49.54 49.55 49.25 48.27 47.06 46.83 46.00 46.19
51.89 54.22 54.77 55.29 56.02 56.66 57.19 57.68 57.93 58.69 58.98 58.52 58.59 59.02 58.44 57.94 58.13 57.08 56.60 54.29 52.48 51.88 50.91 50.28 49.09 48.68 48.72 48.04 47.89 47.52 46.83 46.21
49.32 49.82 52.98 55.41 56.05 56.29 56.93 57.50 58.24 58.57 58.48 58.37 57.96 58.47 58.68 58.35 56.66 56.86 55.66 53.41 51.36 50.94 51.30 50.19 49.29 49.33 49.05 48.57 47.77 46.90 46.28 45.51
47.76 50.03 50.76 54.18 54.69 55.96 56.85 57.14 57.95 58.45 58.03 56.45 56.14 55.32 56.46 55.62 54.57 54.07 52.07 51.47 51.24 50.60 49.71 49.30 49.47 49.16 48.75 47.86 47.13 45.39 43.62 40.53
48.07 50.09 51.34 52.60 54.71 54.85 55.49 54.08 54.62 56.12 55.62 53.28 51.62 51.04 51.40 51.76 50.90 50.12 49.92 49.74 49.44 49.04 48.41 47.83 47.28 47.85 41.79 42.91 42.83 41.49 39.38 36.63
48.73 50.68 52.42 55.20 54.89 54.43 53.71 52.55 52.58 52.23 50.98 50.30 50.12 49.54 48.49 47.80 48.47 47.87 47.22 47.21 47.57 47.06 47.13 46.99 45.99 44.65 40.53 39.54 36.96 36.36 35.14 33.33
53.74 52.78 50.91 50.23 50.57 50.94 51.50 51.32 50.71 50.15 49.66 48.90 48.60 47.89 46.61 46.70 46.67 46.34 45.89 46.25 46.06 45.70 45.32 45.04 44.47 40.88 36.88 36.60 35.09 32.97 33.60 34.28

GFSFLT1_sfc_wetblb_087.txt.gz
Wetbulb
55.28 55.68 56.08 56.52 56.44 55.96 55.94 55.80 56.12 56.47 55.98 55.90 56.16 56.47 57.04 58.05 58.63 59.05 59.94 60.69 59.93 57.76 56.26 55.50 55.03 53.54 51.33 49.14 47.51 46.56 45.57 45.04
55.24 55.68 55.66 55.44 55.54 55.15 55.34 54.88 55.90 55.87 55.34 54.58 54.56 54.45 55.70 56.53 57.58 58.93 58.49 59.37 59.89 57.97 56.70 55.36 53.81 53.30 51.63 48.78 47.15 46.55 45.53 45.93
54.40 55.21 54.85 54.52 54.50 54.57 54.85 55.26 55.38 55.15 54.65 54.20 53.99 54.75 55.32 55.84 57.75 57.53 58.82 57.68 58.66 58.78 57.45 56.02 53.97 52.05 50.10 48.38 48.00 46.81 46.45 46.23
52.80 53.44 54.32 54.75 53.96 54.42 54.51 54.69 54.20 54.65 54.99 54.30 53.58 53.93 55.03 54.54 56.30 56.63 57.42 58.35 57.94 59.37 58.62 57.50 55.77 53.95 51.15 49.00 48.17 48.11 46.39 45.76
52.20 51.95 52.00 52.92 54.06 53.73 53.48 53.58 53.11 52.28 52.11 51.80 51.81 51.33 51.14 53.17 53.09 56.38 55.66 57.47 57.81 58.83 58.86 57.60 55.36 53.42 50.79 50.24 49.27 47.90 47.47 45.78
51.17 51.76 52.36 52.66 53.25 52.64 52.77 53.07 52.87 52.78 51.95 51.54 50.73 50.37 50.77 53.67 54.76 55.34 55.58 56.99 58.68 59.10 59.11 57.26 55.68 54.00 52.60 50.80 49.02 49.16 49.79 48.27
51.70 52.23 52.46 52.08 52.62 52.51 52.42 52.43 52.64 52.76 52.16 51.89 50.91 51.36 52.60 53.37 54.45 54.58 55.26 56.14 56.97 57.59 58.13 56.57 56.35 54.93 52.32 51.43 51.63 51.55 50.33 48.91
51.25 50.99 51.67 52.40 51.70 52.06 52.59 52.72 52.46 53.03 52.24 52.18 52.28 52.09 53.13 54.02 54.42 55.48 55.21 55.52 55.62 56.36 56.42 55.80 55.54 54.89 53.12 52.85 51.88 50.96 50.10 47.58
51.41 51.74 52.39 53.12 52.86 52.05 52.43 52.41 52.47 53.14 52.72 52.52 53.00 53.56 53.83 55.14 55.43 56.22 56.61 56.68 56.89 56.76 56.66 57.41 55.82 53.93 52.86 51.01 50.25 49.20 48.62 47.91
51.18 52.35 53.12 53.52 54.10 53.25 52.45 52.59 52.85 53.10 53.13 53.10 53.16 53.94 54.65 55.32 56.22 56.90 57.41 57.86 57.95 57.39 57.09 56.44 54.87 53.18 52.34 50.19 48.54 48.54 47.94 48.15
51.98 52.40 53.51 54.39 54.60 54.62 54.16 53.56 53.05 53.33 53.79 54.07 54.34 54.92 55.80 56.23 57.19 56.89 57.45 58.13 57.76 56.73 55.44 55.24 53.50 51.56 50.64 49.95 49.20 48.79 48.36 47.74
52.65 53.40 54.09 55.01 55.16 54.97 53.86 53.58 53.55 53.82 54.57 55.50 56.03 56.65 57.51 58.11 58.08 57.57 57.56 57.86 56.22 55.34 55.10 54.80 52.48 50.87 50.58 49.87 48.93 48.69 48.00 47.25
52.68 53.72 54.17 54.30 54.86 55.19 54.14 53.50 53.41 54.61 55.94 56.47 56.42 57.55 58.17 58.46 58.20 58.26 57.35 56.48 55.92 55.62 54.47 53.07 52.00 50.91 50.33 49.86 48.27 48.14 48.12 46.89
51.98 52.78 53.72 54.25 54.38 54.76 55.59 55.27 54.11 55.03 56.18 56.50 56.00 56.14 57.63 58.03 58.22 56.65 56.20 56.44 55.68 54.47 54.15 53.11 51.39 51.13 50.30 50.11 49.17 48.40 47.68 47.00
50.75 51.22 52.98 54.03 54.91 55.32 55.38 55.76 56.09 56.13 56.17 55.93 55.64 55.87 57.06 57.71 57.86 56.12 56.38 55.86 56.16 54.86 53.31 52.51 51.41 50.83 50.46 49.04 48.52 47.64 47.61 46.86
47.91 50.11 51.80 53.13 53.27 54.42 55.77 56.43 56.66 56.51 55.74 55.40 55.57 56.59 56.64 56.10 56.38 56.54 56.94 57.00 56.38 53.86 52.81 51.67 51.27 50.00 49.46 48.69 48.33 47.25 46.98 44.77
46.67 48.36 49.23 50.82 52.03 53.01 53.95 54.59 55.59 55.84 55.94 55.55 53.67 53.62 54.87 55.01 54.35 54.57 52.27 51.47 51.41 52.16 51.63 50.20 49.16 49.47 42.69 42.86 45.26 45.11 43.92 41.13
46.80 46.23 49.38 50.70 51.47 52.47 51.67 51.47 52.03 52.89 52.93 51.94 51.03 51.38 50.11 49.77 50.33 50.33 49.59 49.41 49.75 49.49 49.24 48.73 48.34 47.90 43.46 41.93 39.23 40.92 38.86 36.89
49.86 51.46 50.71 50.39 51.99 51.57 51.74 52.00 51.21 50.99 50.27 49.71 49.91 49.77 48.88 48.68 48.46 48.48 47.63 47.96 47.72 47.33 47.00 47.09 45.43 44.11 39.49 38.38 36.49 36.17 35.01 34.54

GFSFLT1_sfc_wetblb_090.txt.gz
Wetbulb
54.96 56.11 56.65 56.29 56.31 56.09 56.04 56.81 56.39 56.69 57.41 57.90 57.43 57.53 58.70 59.21 58.88 58.79 59.32 58.88 58.17 57.13 55.58 55.45 55.52 53.75 51.33 49.09 47.24 46.62 46.00 45.22
55.45 55.70 55.98 56.06 55.38 55.10 55.32 55.72 55.72 56.26 56.71 56.25 55.89 56.17 56.27 56.71 58.60 58.95 59.42 59.30 58.37 57.04 55.83 55.54 54.31 53.82 52.03 49.11 47.17 47.10 45.89 45.75
54.45 54.84 54.90 54.96 54.68 55.08 55.00 55.48 55.52 55.60 56.30 56.24 55.76 56.04 55.43 56.31 57.68 58.41 58.78 59.75 59.33 57.83 56.58 55.24 54.30 52.95 50.86 48.98 48.15 46.52 46.31 46.14
52.33 54.05 54.24 54.37 54.21 54.29 54.59 54.89 55.26 55.09 55.26 54.47 54.45 54.70 54.71 54.60 55.91 56.45 57.40 57.92 58.88 58.79 57.17 56.13 54.43 53.45 51.82 49.40 48.32 47.73 45.96 45.59
51.20 52.64 53.75 53.91 54.31 54.70 55.11 54.95 54.98 55.12 54.77 53.63 53.91 54.13 52.23 53.33 54.24 55.80 56.16 57.52 57.33 58.11 57.97 56.67 55.42 53.70 51.43 50.50 50.07 49.47 48.04 45.53
50.20 52.35 53.02 54.37 54.55 54.33 54.43 54.31 53.97 54.06 53.31 53.23 51.64 51.91 52.97 52.70 53.94 54.45 54.65 55.91 57.19 56.96 57.49 56.75 55.48 55.14 53.96 52.16 50.82 48.97 49.48 48.05
50.58 52.05 52.90 52.66 54.02 53.77 52.90 53.28 53.00 52.19 51.46 50.68 50.90 50.24 49.66 50.38 51.52 52.55 53.00 53.70 54.82 56.11 57.47 57.25 57.53 55.76 54.12 52.91 51.77 50.67 49.77 49.07
50.03 50.22 51.44 51.45 52.01 52.41 52.99 52.72 52.10 52.44 51.40 51.17 50.54 50.43 50.43 50.92 51.24 52.60 52.85 53.60 53.94 54.86 55.49 55.33 55.38 55.26 54.43 53.17 51.62 52.04 50.49 49.72
50.16 50.81 51.35 51.66 51.64 51.71 52.02 52.23 51.92 52.17 51.81 51.28 51.44 51.31 51.31 52.16 52.33 52.74 53.36 54.49 54.98 54.90 55.08 56.27 56.11 55.46 54.92 53.38 53.11 52.27 51.22 50.86
50.18 51.07 51.43 52.18 51.95 51.89 52.01 52.17 52.40 52.39 52.30 51.92 51.32 51.45 51.54 51.55 52.32 53.32 54.51 54.86 55.85 54.58 55.02 55.40 55.74 55.44 54.51 53.23 52.56 51.13 50.09 49.70
50.14 50.99 51.66 52.41 53.33 52.66 52.36 52.56 52.18 52.66 52.54 52.58 52.06 51.71 51.89 52.41 52.39 53.60 54.63 55.38 55.14 55.34 54.96 55.90 55.20 53.51 52.58 52.10 51.40 50.45 49.89 49.41
50.31 51.21 52.13 52.76 53.59 53.78 53.03 52.72 52.64 52.37 52.62 52.53 52.43 52.37 52.41 52.91 53.11 53.71 55.02 55.38 55.87 55.87 55.87 55.20 54.40 52.46 51.71 51.28 50.58 50.08 49.87 49.11
50.69 50.97 51.33 52.27 52.87 53.59 53.51 53.24 52.95 53.58 53.67 53.71 53.42 53.35 53.30 53.51 53.88 54.64 55.32 55.44 56.06 56.07 55.70 55.48 55.19 53.17 51.87 51.69 51.16 51.10 49.68 48.79
48.83 50.90 51.72 52.18 53.07 53.42 53.47 53.24 53.07 53.63 54.00 53.41 53.61 54.06 54.46 54.65 55.33 55.99 56.73 56.66 56.37 55.66 56.47 55.89 55.68 54.10 53.15 52.97 53.46 51.92 49.96 49.81
48.83 49.11 51.55 52.69 53.18 53.83 53.94 53.87 53.54 53.25 52.93 52.95 52.94 53.70 54.61 55.48 56.29 56.71 56.96 56.39 56.96 56.15 55.75 55.51 54.70 53.84 53.21 52.18 51.54 50.91 50.04 50.07
47.58 48.90 50.40 51.87 52.70 53.26 54.06 54.72 54.73 53.46 52.50 52.23 52.54 53.52 54.19 53.83 54.92 55.52 55.82 56.89 56.99 56.93 56.41 55.29 53.57 52.82 51.86 51.15 50.39 49.64 48.49 47.36
45.88 47.75 49.45 50.39 51.84 52.80 53.55 53.77 54.19 54.40 53.78 52.92 53.30 53.26 53.12 53.04 54.11 54.82 56.06 56.55 55.81 56.13 53.26 52.67 51.44 51.71 46.18 43.97 47.20 48.40 47.07 44.72
45.61 45.95 47.57 48.23 49.08 50.12 50.05 50.64 51.92 52.72 53.28 52.23 51.45 51.84 52.62 53.79 53.70 53.76 53.88 53.50 52.47 51.71 51.55 51.37 51.10 50.76 42.37 42.72 42.01 45.97 44.47 40.00
45.39 46.55 48.37 49.67 50.91 50.96 51.48 52.24 51.75 51.65 51.08 50.69 50.70 50.88 50.36 50.36 50.90 51.07 49.29 49.09 48.91 47.83 47.10 46.54 44.85 41.77 38.83 38.35 38.08 38.62 36.88 36.26

GFSFLT1_sfc_wetblb_093.txt.gz
Wetbulb
55.94 57.11 57.63 57.11 57.37 56.76 57.10 56.97 57.90 57.62 58.85 58.73 60.37 60.21 60.09 60.86 61.23 60.66 61.38 61.33 60.94 60.08 59.43 59.48 59.01 57.12 55.22 54.33 53.72 53.59 53.43 52.69
55.69 56.36 56.82 56.39 56.70 56.27 56.47 56.11 57.11 57.05 56.98 57.37 57.82 57.44 58.61 59.00 59.72 59.95 60.66 60.79 60.40 60.06 59.18 59.30 59.03 57.34 56.13 55.16 54.00 53.19 51.51 52.37
54.64 54.59 56.09 55.67 55.67 56.53 56.28 56.07 56.59 57.25 57.78 57.92 57.64 57.70 58.30 58.74 59.56 60.14 60.10 60.29 59.99 58.94 59.02 58.84 58.94 57.94 56.51 54.80 53.98 52.33 52.59 52.55
54.00 54.47 54.64 55.53 55.10 55.88 55.63 55.96 56.20 57.08 57.52 56.91 56.15 56.03 56.11 58.01 59.04 59.02 60.69 60.55 58.84 59.16 59.30 58.84 58.85 58.50 57.32 55.48 54.36 53.64 52.33 51.72
54.30 54.85 54.46 54.43 55.80 56.08 55.88 56.20 55.69 56.04 56.36 56.52 56.28 55.30 55.29 56.41 58.18 58.13 58.48 59.92 59.52 59.38 58.72 59.20 59.11 59.01 57.73 57.22 56.42 55.45 54.85 51.61
53.60 54.53 55.65 55.80 56.64 56.01 55.77 55.85 55.58 55.69 56.40 56.08 55.78 54.51 56.18 54.69 56.45 58.11 57.06 57.33 58.01 58.20 59.63 59.08 59.89 59.00 59.46 58.03 56.44 55.11 55.90 55.07
54.26 55.05 56.00 55.37 56.07 55.98 55.82 55.15 54.79 55.06 54.90 55.82 56.26 55.43 55.28 54.21 54.63 55.03 56.40 57.05 58.00 58.35 58.42 59.52 60.42 60.25 59.52 58.24 57.97 56.43 56.05 55.33
53.60 53.46 53.98 54.02 54.18 55.40 55.23 55.36 54.44 54.21 54.10 54.41 54.94 55.51 55.98 56.01 55.75 56.37 55.97 56.42 57.20 58.37 59.69 60.06 60.19 60.75 60.34 60.12 58.80 57.30 56.46 55.80
53.62 53.99 54.12 53.78 53.69 54.28 54.76 54.53 55.17 54.96 54.42 54.55 55.19 55.23 55.28 55.97 56.59 57.00 56.99 57.83 58.02 58.71 59.08 59.78 60.25 60.56 60.38 60.06 59.20 58.43 57.46 54.76
53.93 54.07 54.28 54.35 53.54 53.40 53.54 53.89 53.98 54.95 55.38 55.14 54.83 55.18 55.13 55.07 56.03 56.60 56.77 57.55 58.05 58.58 59.33 59.26 59.61 59.77 59.84 59.69 59.28 58.90 58.21 57.37
53.68 54.23 54.59 54.92 55.39 54.28 53.41 53.79 53.36 54.45 55.69 55.63 55.29 55.33 55.31 55.81 56.09 56.02 56.67 57.78 58.12 58.37 58.83 58.96 59.21 59.44 59.37 59.08 58.55 58.77 56.59 56.41
53.24 54.37 55.08 55.47 55.94 55.59 54.85 53.96 55.03 55.16 55.76 55.93 55.57 55.57 55.52 56.02 55.98 56.32 56.80 57.87 57.86 58.04 58.37 58.68 58.94 59.14 58.46 57.52 57.10 56.31 52.87 52.52
53.62 54.43 54.68 54.77 55.15 55.50 55.23 55.38 55.20 55.98 56.13 56.04 55.84 56.14 55.45 55.70 56.04 56.53 57.50 57.16 58.54 58.66 58.34 58.53 58.60 58.29 56.40 53.99 53.59 53.86 52.14 52.07
53.52 54.11 54.08 54.61 55.15 55.52 55.59 55.64 55.83 56.24 56.21 56.09 55.87 55.88 55.61 54.79 55.89 56.59 57.33 57.33 57.48 57.91 58.16 58.15 57.79 57.00 55.29 56.45 55.67 54.64 52.86 52.51
53.23 54.17 54.79 55.03 55.35 55.98 56.08 56.07 56.53 56.59 56.27 55.88 55.73 56.06 56.10 56.11 56.57 57.09 57.76 57.63 57.41 58.03 58.71 58.51 58.46 58.06 57.17 56.39 55.10 54.10 53.55 53.90
51.70 53.68 54.46 55.23 55.44 55.90 56.38 56.58 56.72 56.74 55.98 56.11 56.02 56.78 56.97 56.93 57.73 57.75 58.03 58.67 58.97 59.28 59.20 58.73 58.11 57.41 56.21 54.97 54.31 54.05 53.58 52.34
50.73 52.36 53.61 54.45 55.20 55.90 56.23 56.62 56.74 56.42 55.54 55.41 56.07 55.92 55.92 56.68 57.31 57.65 58.44 58.63 58.97 58.89 57.79 57.02 56.65 55.41 47.95 44.86 48.67 51.80 51.66 50.14
49.95 50.15 51.87 54.30 54.99 55.61 55.91 56.14 57.08 56.40 55.50 55.34 55.09 55.23 55.09 55.98 56.50 56.90 57.25 57.87 58.15 57.06 56.39 55.41 53.64 51.27 43.60 42.69 40.70 46.86 44.83 40.99
49.96 49.06 50.41 52.01 53.04 53.18 53.93 55.01 55.77 56.01 55.82 54.63 54.98 55.02 54.11 54.35 55.14 55.25 53.38 50.96 49.52 47.87 46.23 45.27 41.87 38.43 37.90 38.60 37.88 38.99 37.13 36.37

GFSFLT1_sfc_wetblb_096.txt.gz
Wetbulb
59.91 59.95 60.45 59.83 59.81 58.96 59.18 60.71 59.94 59.79 60.08 60.66 60.94 61.59 62.10 62.67 62.22 62.81 62.34 61.35 61.97 62.45 62.17 62.15 61.30 60.08 59.47 59.59 59.25 59.47 59.25 58.38
59.98 59.73 60.11 58.32 59.17 58.47 57.82 58.39 59.34 59.61 59.03 58.40 58.92 58.54 59.92 60.69 61.39 61.39 61.88 61.06 61.62 62.64 61.57 61.63 61.68 60.30 60.12 59.71 59.13 58.45 57.78 57.36
58.65 58.55 59.30 58.49 58.28 59.03 57.50 57.45 58.56 58.56 58.94 58.59 58.99 59.62 59.45 59.91 60.51 60.88 61.01 61.30 62.31 61.83 61.64 61.40 61.59 60.41 60.17 59.39 58.72 57.34 56.91 55.77
58.27 57.33 57.06 58.14 57.27 58.34 58.28 58.49 57.55 58.13 58.77 57.77 57.35 57.97 58.83 58.62 59.33 59.67 60.03 61.10 62.14 62.14 61.72 61.38 61.95 61.57 59.74 59.51 58.27 58.00 55.71 54.33
59.02 58.54 56.92 56.51 57.19 60.24 59.79 58.84 57.80 58.41 58.54 58.28 57.08 56.28 55.01 57.67 59.14 59.94 60.17 60.54 60.00 61.26 61.84 61.86 61.91 61.48 60.58 59.89 58.79 58.83 58.04 54.80
58.93 59.10 58.43 57.17 57.51 58.08 58.55 59.14 57.33 57.65 58.68 58.33 56.88 56.62 56.69 58.27 58.64 60.63 60.67 59.87 60.31 59.62 59.99 59.58 60.82 60.99 60.92 60.99 59.82 59.45 59.25 58.46
59.71 59.98 59.80 59.39 59.00 59.09 58.08 58.28 57.29 57.20 58.69 59.24 57.51 57.85 56.05 56.39 57.27 57.77 59.97 59.96 61.64 60.64 59.81 59.94 60.56 61.48 61.41 61.81 62.03 61.15 60.06 59.47
59.11 58.76 58.38 59.22 58.38 58.42 58.29 57.83 56.53 58.00 59.50 58.46 57.87 58.63 58.28 56.70 57.41 57.47 59.19 58.46 58.16 58.74 59.99 59.86 60.23 61.49 62.17 62.38 62.24 61.77 61.63 59.84
59.30 59.42 59.07 58.94 58.85 57.78 57.68 57.88 57.43 56.94 56.18 56.83 58.37 59.69 57.94 58.38 59.60 59.42 59.08 58.61 59.28 60.79 60.51 60.27 60.09 59.67 62.10 62.71 62.79 62.19 62.24 61.51
59.15 59.80 59.74 59.21 59.12 58.71 58.12 58.14 57.39 57.59 57.69 57.23 57.30 58.90 58.23 58.73 59.93 59.82 59.28 59.93 59.91 60.67 61.35 61.50 61.71 61.61 61.72 62.21 61.64 61.56 62.14 61.70
59.25 59.72 59.81 59.65 59.47 59.68 59.17 59.40 58.83 58.90 58.60 58.81 58.34 58.64 59.04 59.35 59.86 59.42 59.82 60.04 59.99 60.12 60.66 61.04 60.85 61.03 61.27 61.21 61.15 61.54 60.95 61.60
58.73 59.91 60.36 59.96 59.62 59.48 57.59 57.51 58.46 58.75 59.77 59.80 59.43 59.32 59.41 59.54 59.06 59.32 59.36 59.97 59.93 59.64 59.80 60.14 60.26 60.48 60.86 61.09 60.96 60.59 60.06 60.43
58.62 59.50 60.12 59.74 59.47 59.21 57.69 56.04 57.10 58.39 59.43 59.81 59.79 60.03 59.94 59.34 59.48 59.41 59.84 59.31 60.22 60.03 60.03 59.82 60.03 60.16 60.97 61.25 60.30 59.89 59.30 58.78
58.21 58.67 59.18 59.56 59.60 59.45 59.29 58.69 58.14 59.40 59.51 59.57 59.44 59.45 59.39 59.29 59.13 59.22 59.96 59.80 59.79 59.99 60.03 59.72 59.68 60.26 60.12 60.52 60.23 58.23 56.94 57.93
57.57 58.12 58.98 59.65 59.92 59.94 59.80 59.68 60.10 60.09 59.81 59.35 59.04 59.32 59.57 59.41 59.64 59.64 59.98 59.69 59.34 59.31 59.62 59.61 59.84 59.92 59.92 59.93 59.08 58.57 59.75 59.71
55.80 57.63 59.03 59.66 59.93 60.18 60.42 60.58 60.32 60.45 59.77 59.42 59.37 59.79 60.03 59.87 59.52 59.51 59.52 59.57 59.46 59.28 59.64 59.86 60.56 60.74 60.41 60.33 59.32 58.35 56.73 55.44
55.84 56.29 58.07 59.39 59.71 59.89 60.22 60.47 60.69 60.52 59.72 59.46 59.99 59.79 59.67 59.47 59.34 59.46 59.71 59.75 60.16 60.41 60.40 60.43 60.17 58.57 48.34 45.51 49.50 55.15 52.70 51.14
55.40 55.86 56.16 58.62 59.67 59.94 60.27 60.66 61.23 60.14 59.91 59.82 59.77 59.70 59.08 59.19 59.34 59.18 58.56 58.67 59.32 58.44 57.33 55.34 47.43 41.65 38.81 42.61 40.62 45.88 41.86 39.81
55.23 56.08 55.10 56.30 59.71 60.27 61.11 60.77 60.29 59.67 59.56 59.19 59.16 58.91 58.57 58.79 58.56 57.82 56.56 52.44 49.22 45.98 42.88 40.77 38.25 36.73 36.73 37.39 36.57 36.42 34.59 33.99

GFSFLT1_sfc_wetblb_099.txt.gz
Wetbulb
63.16 63.07 63.36 61.91 62.19 61.36 61.36 60.47 61.49 61.13 61.40 62.42 61.78 61.45 63.01 63.22 64.09 63.08 62.71 61.65 61.34 60.59 60.42 61.86 63.85 63.32 63.19 62.29 61.38 61.02 60.28 59.51
63.24 62.83 62.90 61.84 60.57 60.55 59.31 60.35 60.36 60.72 59.57 60.08 60.08 59.74 60.91 62.02 63.32 62.57 61.46 61.18 61.01 60.92 60.07 62.12 62.74 61.41 60.60 60.55 61.37 61.32 59.94 60.80
61.60 61.84 61.94 60.55 59.61 60.44 58.09 59.20 60.02 60.23 60.19 59.33 59.84 59.61 61.19 61.64 61.98 61.63 61.02 60.65 60.60 60.21 60.54 61.54 61.58 60.09 60.53 61.20 61.81 59.29 59.71 59.86
60.87 60.72 61.09 61.26 59.15 59.58 59.72 59.24 60.17 59.53 58.81 59.36 59.19 59.15 59.58 59.40 59.91 60.12 60.05 59.60 59.28 59.42 60.35 61.16 61.33 61.39 60.45 61.16 61.61 60.47 57.67 57.72
61.50 61.02 60.17 61.12 60.36 61.04 61.42 60.21 59.35 58.81 59.06 58.46 58.54 57.31 56.48 58.08 58.66 59.58 59.76 59.91 59.61 60.08 60.77 61.47 61.77 62.39 60.95 60.83 60.91 60.98 60.59 56.38
60.85 61.18 60.84 61.23 61.58 60.17 59.75 59.78 59.23 59.79 59.15 59.91 57.94 57.32 57.68 58.53 58.97 58.84 59.42 59.95 60.12 60.23 61.00 62.19 63.07 61.97 62.79 62.43 61.44 60.43 60.11 59.41
61.11 62.10 61.54 60.76 60.90 59.53 59.28 58.50 58.14 58.72 58.51 59.01 58.48 56.97 57.04 58.03 58.04 57.26 57.95 59.10 59.59 59.98 60.15 61.77 62.38 62.53 62.14 61.80 61.72 60.70 60.74 61.16
60.69 60.96 60.64 60.59 59.90 58.94 59.39 58.34 57.31 58.37 58.40 58.30 57.94 57.31 57.14 57.01 58.45 58.36 57.40 57.83 58.38 58.27 58.87 59.36 60.44 61.99 62.01 61.94 60.92 61.62 61.74 60.77
60.66 61.26 61.04 60.85 60.79 60.75 59.38 58.52 57.56 58.18 58.50 59.14 59.50 59.41 58.01 56.43 58.73 59.58 58.31 58.65 60.61 59.27 58.37 58.24 58.90 60.46 59.92 61.73 62.68 61.21 61.50 61.88
60.47 61.38 61.56 61.20 61.17 60.92 60.45 60.00 59.65 59.23 59.12 59.84 60.09 60.04 59.37 58.35 58.28 59.05 60.22 60.90 60.97 61.14 60.92 60.04 60.32 60.10 60.81 59.43 60.53 60.67 61.44 61.99
60.46 61.17 61.64 61.84 61.67 61.50 61.16 61.17 60.47 60.26 59.52 59.49 59.21 59.92 60.42 60.29 60.88 60.51 60.95 61.55 60.98 61.04 61.21 60.91 60.83 60.67 60.99 61.37 61.34 61.87 61.28 61.53
60.06 61.27 62.14 62.21 62.00 61.57 60.92 60.94 60.66 60.39 60.53 60.09 60.29 60.05 60.31 60.44 60.90 61.38 61.16 61.61 61.50 61.02 61.16 61.16 61.23 61.21 61.68 61.83 61.59 61.40 60.84 61.02
59.82 61.26 61.79 61.83 61.36 61.13 60.74 60.84 60.58 61.12 61.09 60.62 60.29 60.45 60.30 59.81 60.34 61.10 62.00 61.64 61.94 61.42 61.19 60.37 60.55 60.82 61.52 61.34 61.11 61.11 60.87 60.63
59.51 60.82 61.12 61.38 61.36 61.10 61.04 60.57 60.57 60.81 60.99 61.04 60.79 60.72 60.52 60.25 60.52 61.45 61.53 61.35 61.01 61.23 61.06 61.05 60.80 61.21 61.23 61.61 61.69 61.27 61.26 61.27
58.91 59.88 60.85 61.52 61.67 61.52 61.22 60.46 60.39 60.47 60.33 60.26 60.36 60.71 60.78 61.18 61.56 61.39 62.08 61.72 60.69 60.33 61.33 61.25 61.75 60.68 60.58 60.97 60.73 61.19 61.10 60.76
57.61 59.13 60.15 61.27 61.69 61.88 61.83 61.72 60.89 60.60 60.23 60.09 60.19 61.04 61.60 61.23 61.04 61.19 61.05 60.83 60.68 60.82 60.49 60.34 60.43 60.55 59.95 60.43 59.68 58.48 58.12 57.74
56.21 57.94 59.58 60.24 60.93 61.66 61.72 61.88 61.72 61.67 60.80 60.37 60.82 60.81 60.78 60.66 60.86 60.80 60.43 60.41 60.40 60.21 59.64 59.82 59.62 51.22 38.28 41.03 47.46 52.89 46.69 44.61
55.42 56.70 58.16 59.93 61.34 61.66 61.65 62.00 62.51 61.57 61.19 61.13 61.02 60.90 60.34 60.46 60.46 60.08 59.76 59.44 58.67 50.07 46.03 43.20 39.97 39.36 37.93 38.35 38.47 39.01 36.60 35.95
55.88 56.77 57.81 58.93 61.61 62.23 62.28 62.47 62.11 61.44 61.02 61.02 61.12 60.90 60.55 60.34 59.13 53.40 47.57 44.45 41.47 39.65 37.37 36.48 35.37 35.47 35.45 35.27 34.54 34.00 32.66 32.11

GFSFLT1_sfc_wetblb_102.txt.gz
Wetbulb
62.59 62.94 63.35 62.42 62.91 61.82 61.72 61.40 62.49 62.40 61.93 61.95 62.86 63.52 64.11 64.65 63.42 62.82 62.50 62.38 61.38 60.42 60.90 61.76 62.24 61.86 61.61 60.87 59.23 58.31 55.90 55.19
63.05 62.72 62.82 61.59 61.71 60.40 59.78 60.57 61.07 61.12 60.15 59.99 60.17 59.98 61.32 62.98 63.46 62.02 62.07 61.73 60.81 59.24 59.65 59.88 59.96 60.76 60.16 60.31 58.61 56.75 56.29 57.78
61.74 61.72 61.83 60.54 59.67 59.45 59.52 60.33 60.05 60.42 60.31 59.97 59.91 60.05 60.53 61.73 63.04 62.29 62.13 60.93 60.34 58.13 58.98 58.79 58.70 58.79 59.19 58.66 57.29 56.10 56.97 57.40
60.39 60.61 60.74 59.95 58.67 58.67 59.05 59.35 59.78 60.36 60.47 59.69 59.34 60.34 60.51 60.46 61.20 61.31 61.09 60.49 60.07 59.25 59.43 59.28 58.45 58.42 58.04 57.71 58.03 57.08 55.47 55.16
60.65 60.32 60.32 59.69 58.73 59.36 60.04 59.50 59.50 59.84 60.02 59.63 58.42 57.71 57.51 58.86 60.59 60.46 60.11 60.21 59.36 59.24 59.73 59.55 58.71 58.71 57.88 57.87 58.89 57.84 56.44 53.26
60.25 60.06 60.51 61.00 59.65 58.73 59.47 59.74 59.02 59.03 59.15 59.86 58.92 57.31 58.03 58.62 58.84 58.49 58.76 58.69 58.42 58.14 59.05 59.12 58.73 58.97 58.95 58.41 57.77 57.59 57.56 55.26
60.61 61.11 60.99 60.49 60.59 58.83 59.09 58.67 58.39 59.19 58.98 59.62 58.78 57.78 57.71 57.33 57.65 57.33 57.13 57.36 57.71 57.86 57.73 58.88 58.98 58.97 58.72 58.58 58.61 57.43 57.91 56.86
59.54 59.91 59.26 59.37 59.00 58.28 58.32 57.87 56.90 58.81 58.35 59.24 58.44 57.63 57.95 57.36 57.54 57.40 56.83 56.59 56.78 57.17 57.76 58.47 58.55 58.46 58.74 59.11 58.75 58.00 57.72 57.55
59.33 60.24 59.38 59.19 59.02 58.01 57.77 57.59 56.75 57.72 57.99 58.11 58.08 57.68 58.21 57.79 57.56 57.69 57.51 57.09 57.28 57.98 57.97 58.47 58.70 58.73 58.83 58.98 58.94 59.17 58.96 58.38
59.26 60.49 60.21 59.53 59.03 58.45 58.79 57.69 57.09 57.28 57.95 58.14 58.03 57.74 57.83 57.85 58.24 58.24 57.70 58.05 58.85 58.40 58.24 58.28 58.28 58.40 58.41 58.20 58.21 57.97 57.91 57.65
59.35 60.26 60.56 60.50 60.18 59.96 59.05 59.27 58.34 57.85 58.77 58.68 57.98 58.22 57.80 57.25 58.53 58.27 57.91 58.26 58.62 58.56 57.73 57.63 57.13 57.16 57.92 57.92 57.40 57.19 57.31 56.97
59.24 60.15 60.99 60.98 60.75 60.46 59.49 59.19 58.88 58.51 58.98 58.91 58.60 58.07 58.42 57.48 57.14 57.98 58.84 58.96 59.04 59.18 58.71 58.20 57.73 57.50 57.97 57.24 56.67 56.69 56.63 56.91
59.24 60.17 60.79 60.60 60.05 60.07 59.62 59.69 59.42 59.19 59.47 58.81 58.18 58.46 58.75 58.14 57.88 56.60 58.14 59.01 58.97 58.49 59.04 58.51 58.16 57.90 57.79 57.29 57.13 57.76 57.59 56.89
58.62 59.73 60.38 60.41 60.15 60.03 59.67 59.72 59.68 59.84 59.89 59.28 58.75 58.39 58.75 58.19 58.21 58.89 59.50 58.86 58.86 58.55 58.52 57.90 57.96 58.12 58.04 57.94 57.88 57.56 57.27 57.46
58.06 59.07 60.05 60.70 60.47 60.25 60.03 59.58 60.17 60.16 59.69 59.26 58.62 58.72 58.77 58.72 58.42 58.70 58.95 59.32 58.68 58.62 58.40 58.44 58.23 58.01 58.13 58.17 58.10 57.78 57.56 57.67
55.77 58.34 59.40 60.62 60.63 60.52 60.75 60.16 60.05 60.15 59.33 59.32 59.10 59.57 59.74 59.80 59.26 59.24 59.15 59.37 58.72 58.72 58.66 58.74 58.77 58.51 53.41 50.30 55.99 56.27 51.27 44.72
53.22 57.24 59.05 59.95 60.83 60.61 60.70 60.34 59.38 59.84 58.93 58.60 59.59 60.05 59.96 59.55 59.65 59.46 59.21 59.15 59.27 58.93 57.31 50.88 44.86 42.23 38.29 40.81 45.54 42.75 41.46 40.01
52.60 55.62 57.35 59.83 60.59 61.45 60.70 60.94 60.44 59.30 58.91 59.29 59.38 59.71 59.27 59.16 59.61 59.12 58.45 55.09 47.51 42.90 40.71 39.50 37.15 36.52 36.55 36.94 37.90 36.45 35.22 34.64
53.84 56.17 56.93 58.09 60.95 61.22 61.35 61.72 60.88 59.99 59.46 59.77 60.00 59.56 59.08 59.34 55.87 45.46 42.31 40.63 38.29 36.86 35.80 35.45 34.53 34.25 34.43 34.53 34.02 33.08 32.24 32.05

GFSFLT1_sfc_wetblb_105.txt.gz
Wetbulb
58.70 59.03 59.77 59.89 59.29 59.63 59.19 59.72 59.46 60.35 59.03 60.88 61.76 63.23 63.49 62.91 62.49 63.40 63.45 63.22 62.47 61.64 62.14 61.36 61.92 60.01 60.86 59.51 58.09 56.63 54.86 53.77
58.89 59.19 58.95 58.95 58.70 58.57 58.99 59.92 60.37 58.65 57.23 57.13 57.11 59.34 62.33 62.80 62.03 62.26 62.56 62.23 62.18 61.39 61.69 61.23 62.10 60.61 60.44 59.46 57.84 55.06 52.92 52.46
58.15 57.88 57.86 58.08 57.64 57.57 58.73 59.40 59.65 58.09 57.83 58.45 58.35 57.61 58.81 63.05 62.45 62.31 62.07 61.79 61.29 60.11 60.46 60.13 61.14 60.70 59.38 58.32 56.72 54.92 53.33 54.03
57.18 57.54 56.85 56.92 56.05 56.37 58.10 59.18 58.79 57.55 59.70 59.16 58.01 58.05 58.86 59.49 61.73 61.08 61.53 61.37 60.92 59.18 59.40 58.89 60.58 60.17 58.36 56.79 56.34 54.98 53.38 53.43
57.58 56.96 56.12 56.07 55.47 56.87 58.42 59.03 59.15 59.42 59.32 58.38 58.09 57.34 56.75 59.00 59.00 61.09 60.77 61.09 60.66 58.43 59.29 58.74 58.78 59.93 58.24 57.14 57.15 55.80 54.11 52.32
56.78 57.08 56.63 56.56 56.35 56.77 58.80 58.64 58.74 58.97 58.77 58.68 57.63 57.59 58.14 59.43 60.20 59.96 60.11 60.19 59.97 58.41 59.15 58.46 58.09 58.42 57.94 57.40 57.26 56.86 55.12 54.25
57.37 57.72 57.37 56.27 56.23 56.62 58.09 58.54 58.18 58.08 58.25 58.53 57.86 57.59 57.65 57.57 59.35 58.37 59.06 59.19 58.72 58.19 58.73 58.25 58.21 58.40 58.01 57.73 57.23 56.95 56.62 55.32
56.41 56.34 56.48 55.93 55.33 56.17 57.68 57.61 57.25 57.62 57.98 57.66 56.67 56.81 57.69 57.03 57.47 58.06 57.11 57.05 57.39 57.66 58.23 58.14 58.25 58.22 58.30 57.86 57.26 56.84 56.79 56.23
56.32 56.45 56.47 56.08 55.67 55.96 57.45 56.77 56.61 57.78 57.81 57.58 56.75 57.13 57.32 57.81 57.04 57.14 57.29 57.10 57.36 57.46 57.10 57.71 58.21 58.39 57.80 57.58 57.24 57.35 57.25 57.05
56.10 56.12 56.52 56.11 55.90 56.03 56.12 55.96 56.61 57.49 57.58 57.23 55.65 56.69 57.10 57.41 57.75 57.01 57.03 57.21 57.60 56.84 56.05 56.27 57.80 58.14 57.92 57.18 57.41 56.62 57.30 57.08
56.53 56.00 56.35 56.85 56.26 56.22 55.91 56.50 56.75 57.13 56.93 57.27 56.43 56.66 57.93 57.96 57.71 57.33 56.88 56.86 57.04 56.71 56.02 56.15 57.22 57.76 57.78 57.42 57.10 57.27 56.67 56.89
56.89 56.58 56.78 57.00 56.75 56.26 56.09 55.76 55.46 56.47 56.92 56.67 56.39 56.09 56.69 57.23 57.45 57.16 57.25 57.55 57.12 56.95 56.63 56.52 57.14 57.07 57.35 56.78 56.81 56.74 56.07 55.94
57.06 57.21 57.03 56.81 56.85 56.27 56.32 56.00 55.81 56.00 57.90 57.76 56.48 56.62 55.70 55.52 57.00 57.03 57.38 57.09 57.83 57.65 57.78 56.88 56.83 56.68 56.52 55.80 55.46 56.11 55.41 54.50
56.22 57.17 57.05 56.97 57.20 56.60 56.55 56.82 56.42 56.65 57.46 58.01 57.53 56.76 55.92 54.87 55.32 56.27 56.45 57.25 57.27 57.95 57.73 56.91 56.78 56.79 56.50 56.04 56.02 55.65 55.38 55.57
52.55 55.62 57.08 57.33 57.56 57.53 57.38 57.10 57.29 57.37 57.43 56.51 56.72 56.25 56.44 56.06 56.04 55.40 55.02 57.12 57.35 56.61 57.74 57.78 57.53 57.19 56.95 56.76 56.83 56.49 56.20 50.30
50.56 52.54 54.52 57.31 57.28 57.50 57.77 57.70 57.14 57.90 57.31 56.76 56.09 56.54 56.05 56.13 55.69 55.97 57.04 57.26 57.15 57.21 56.56 57.37 56.96 54.74 49.72 52.21 54.86 52.58 45.41 40.79
50.34 50.12 53.83 56.28 57.66 57.48 57.97 57.66 57.72 57.85 57.08 56.83 57.17 57.17 57.17 56.47 56.00 55.82 55.74 56.16 56.69 53.55 45.81 45.30 42.19 40.46 38.30 41.55 43.86 41.56 39.53 37.40
52.53 50.77 51.70 54.11 58.15 58.58 57.71 57.57 58.24 57.11 56.93 57.33 57.44 57.56 57.30 56.99 57.09 56.92 56.23 48.08 43.29 40.81 38.84 37.60 35.97 36.19 36.71 37.16 36.60 36.36 35.34 34.53
52.34 53.32 53.41 54.32 59.25 58.49 58.30 58.22 57.52 56.88 56.24 57.02 57.78 57.87 57.50 57.02 52.08 44.40 41.40 39.74 37.82 36.28 35.22 34.83 34.05 34.14 34.78 34.81 34.45 33.25 32.04 31.49

GFSFLT1_sfc_wetblb_108.txt.gz
Wetbulb
57.62 58.51 59.00 59.37 59.21 59.61 59.18 58.91 59.65 59.87 59.53 62.05 62.64 60.78 61.80 62.95 63.48 63.33 64.03 63.95 63.20 61.34 58.30 58.09 57.40 57.37 54.35 56.90 56.67 56.07 55.22 53.47
57.51 58.57 58.53 58.28 58.52 58.31 58.11 57.54 58.22 58.12 56.70 58.79 60.76 60.08 61.21 61.37 62.70 63.07 63.76 63.56 63.01 62.09 59.52 59.32 58.30 58.13 55.30 57.66 57.46 55.09 51.91 52.37
56.94 57.67 57.89 57.93 57.63 57.93 57.20 58.09 58.32 57.80 57.02 56.98 58.74 59.77 61.53 61.75 62.07 63.17 63.30 62.62 62.40 62.32 60.87 59.89 58.96 57.92 58.16 57.71 56.63 53.44 52.60 51.99
55.75 57.03 56.60 56.80 56.84 56.94 57.33 58.37 59.11 58.84 57.42 57.32 56.36 57.94 59.35 60.82 60.74 61.08 62.36 62.25 61.95 62.13 61.74 60.74 60.47 59.30 58.84 57.99 56.82 55.68 53.55 52.20
56.53 56.63 55.90 56.44 56.38 56.30 57.31 58.64 58.61 58.67 58.00 57.28 56.64 54.93 56.90 58.56 60.97 61.00 62.01 61.64 61.29 61.50 61.50 61.30 61.24 60.42 59.47 58.51 57.11 55.35 54.46 52.30
56.12 56.36 56.65 56.41 55.70 55.90 57.14 58.17 58.34 59.27 58.81 58.42 57.87 57.06 57.45 56.90 58.89 60.06 60.93 61.14 60.77 59.79 59.93 60.27 60.72 60.16 59.33 57.78 56.22 56.42 54.83 53.30
56.73 57.35 56.42 55.30 55.88 55.72 56.79 57.58 58.16 58.46 58.45 58.34 57.85 57.42 57.74 57.62 58.43 58.41 59.58 60.31 60.10 59.11 58.89 59.32 60.25 59.63 58.16 57.58 57.25 56.60 55.84 55.18
55.82 55.12 55.12 54.65 54.98 55.38 56.28 57.10 56.72 57.76 57.67 58.15 57.85 57.89 58.03 57.87 58.91 59.12 58.76 59.36 59.00 57.88 58.24 58.07 58.58 59.22 59.00 58.51 57.73 56.98 56.62 55.80
55.70 55.54 55.53 54.97 55.11 55.30 56.45 56.53 56.58 57.37 57.44 57.97 57.80 56.50 57.55 57.35 58.71 58.81 58.64 58.61 58.75 58.23 58.24 58.25 58.08 58.24 58.20 58.03 57.20 56.72 56.64 56.28
55.52 56.08 55.51 55.31 55.03 55.32 55.84 55.90 56.59 57.22 57.63 57.92 57.27 56.99 56.12 57.11 57.23 58.32 57.87 58.46 58.99 58.17 58.09 57.90 58.07 57.81 57.67 57.30 56.78 56.22 56.28 56.16
55.97 56.23 55.46 55.87 55.45 55.91 55.42 55.76 56.23 56.96 57.72 57.56 57.03 56.46 56.50 56.54 56.45 56.64 57.47 57.85 57.67 57.16 57.53 57.55 57.62 57.68 57.54 57.06 56.40 56.56 56.02 56.29
55.44 55.91 56.50 55.80 55.85 55.46 55.17 55.10 55.35 56.30 56.76 57.12 56.43 56.10 56.60 56.95 56.79 56.62 56.14 57.22 57.17 56.44 56.34 56.44 56.87 57.42 57.49 56.86 56.36 56.30 55.85 55.47
53.79 55.26 56.36 55.23 55.12 55.05 54.85 54.81 55.00 55.81 56.73 57.03 56.56 55.70 56.63 57.04 57.02 56.68 56.41 55.93 56.71 56.39 56.00 55.66 55.87 56.58 56.67 56.46 56.00 56.18 55.67 55.09
52.34 55.69 55.60 55.31 55.03 55.16 54.94 55.10 54.62 55.40 56.36 56.38 56.50 55.40 55.16 55.70 56.30 56.24 56.39 56.17 56.13 56.27 55.91 55.30 55.52 55.96 56.14 56.17 55.93 55.42 54.91 55.35
51.93 55.19 55.83 55.60 55.84 55.51 55.31 55.02 55.33 55.59 56.33 56.99 55.40 54.99 54.42 55.05 56.02 55.94 56.21 56.41 56.39 56.27 56.07 56.17 55.88 55.90 55.51 55.34 55.07 54.46 54.38 48.69
51.71 53.88 54.65 55.92 56.02 55.72 55.90 55.79 55.60 55.77 55.82 56.06 56.19 55.69 55.09 54.06 54.63 55.07 55.52 56.27 56.39 56.84 56.37 56.22 55.99 55.87 53.90 55.09 54.93 54.24 43.92 39.38
51.66 52.54 53.65 56.71 56.84 56.60 56.68 56.32 55.84 56.17 55.55 55.46 55.63 56.30 56.09 54.69 54.38 54.28 53.77 54.53 55.44 52.06 49.59 45.23 41.91 41.59 38.96 41.49 44.08 41.43 39.28 37.08
50.54 50.54 50.32 49.84 57.06 57.66 56.80 56.67 56.75 56.36 55.93 55.93 55.84 55.70 55.41 55.07 55.07 55.05 53.06 45.64 42.80 40.47 39.15 38.14 36.53 36.99 37.66 38.06 37.30 36.73 34.94 34.06
49.18 48.60 47.71 47.48 47.53 57.35 57.78 57.65 57.08 56.49 56.15 56.26 56.23 56.10 55.54 55.48 51.69 44.47 41.54 39.85 37.78 36.27 35.03 34.63 33.97 34.29 34.91 34.79 33.85 32.65 31.39 31.09

GFSFLT1_sfc_wetblb_111.txt.gz
Wetbulb
50.05 54.43 58.59 59.80 60.42 60.07 59.73 60.23 59.48 58.92 61.34 61.94 61.29 59.45 61.54 61.68 61.86 61.30 61.36 62.79 61.75 60.84 58.55 56.55 55.59 53.55 52.32 53.01 54.02 53.36 52.49 54.10
49.94 56.92 57.38 57.79 58.85 58.92 58.78 58.60 58.20 58.92 59.06 59.68 59.45 59.29 60.95 61.18 62.30 61.99 61.84 62.46 61.66 59.29 57.53 56.71 55.35 52.92 52.25 54.14 54.07 53.55 51.34 52.97
54.44 55.42 57.07 57.67 58.22 58.43 58.11 58.63 58.10 57.58 58.14 58.94 60.16 60.09 60.93 61.42 62.08 63.00 62.76 62.68 61.74 59.83 57.35 56.63 55.06 53.23 52.71 54.72 55.25 52.34 51.86 52.67
52.88 55.74 56.02 57.17 57.17 57.37 57.79 57.78 58.16 56.84 56.48 56.56 57.64 59.57 60.43 60.20 60.88 61.47 62.54 62.84 62.09 60.62 58.02 57.34 55.75 55.30 53.40 55.51 55.71 55.16 52.51 50.64
54.14 56.20 55.50 55.74 57.07 57.46 57.29 57.78 57.30 56.82 56.70 55.85 57.24 58.20 58.22 59.67 60.22 61.46 62.05 62.65 62.47 62.01 59.31 58.18 56.59 56.59 54.63 55.94 57.07 55.92 53.35 51.29
53.84 56.03 56.43 56.57 56.59 56.58 56.94 57.46 57.55 58.06 57.26 56.44 55.38 54.07 56.42 58.80 60.44 60.17 61.30 61.67 62.14 62.01 61.28 59.14 58.15 57.46 57.73 56.48 57.03 54.88 54.53 53.13
51.99 56.20 56.74 56.20 55.31 55.45 56.42 56.58 57.65 58.57 58.31 56.18 55.60 54.46 54.87 55.51 57.70 58.97 60.16 61.04 61.24 61.31 61.58 60.54 60.20 59.35 58.81 57.96 56.87 55.28 54.41 53.28
50.08 54.11 55.14 55.28 54.49 55.05 56.12 56.66 56.74 57.89 58.06 57.36 56.42 56.51 57.44 56.08 55.90 57.13 58.15 59.84 60.00 60.24 60.41 60.34 60.59 60.34 58.58 57.32 56.71 55.91 55.43 54.02
53.23 54.69 55.26 54.73 55.06 54.96 55.86 56.28 57.02 57.39 57.55 57.56 57.93 57.70 57.84 58.03 57.89 57.95 58.82 58.71 59.89 59.39 59.20 59.99 60.42 59.06 57.87 57.62 57.00 56.67 56.62 55.96
52.14 55.27 55.33 55.08 54.88 54.94 55.38 55.64 56.77 57.09 57.24 56.91 57.55 57.70 57.61 57.86 58.36 59.29 59.51 60.04 59.58 59.29 58.94 59.09 59.41 58.95 58.46 57.89 57.11 56.80 56.80 56.74
50.82 55.40 55.00 55.06 55.51 55.42 55.66 55.88 56.19 55.90 57.21 57.36 56.84 57.13 56.93 56.91 57.85 57.67 58.18 58.88 58.59 58.59 58.37 58.52 58.65 58.61 58.39 58.03 57.30 56.88 56.15 56.03
50.38 53.00 55.43 55.22 55.26 55.60 55.42 55.12 55.38 55.40 56.92 57.40 55.80 56.81 56.48 56.20 56.04 57.43 57.61 57.82 58.19 57.82 57.77 57.65 57.47 57.40 57.67 57.28 56.84 56.52 55.62 55.19
50.18 50.83 55.00 54.39 54.84 55.40 55.04 54.69 55.16 55.64 56.33 57.07 56.44 56.38 56.81 56.32 55.78 55.72 56.97 56.78 57.13 57.26 57.38 57.49 56.97 56.77 56.44 56.18 55.74 56.34 55.54 54.75
49.30 50.84 54.95 55.10 55.20 55.64 55.24 54.23 54.53 54.99 55.81 56.68 56.47 56.55 56.55 56.30 55.92 55.94 55.82 56.55 56.55 56.43 56.31 56.22 56.40 56.40 56.48 56.28 56.06 55.58 55.52 55.26
51.25 52.26 54.77 55.32 55.38 55.30 55.41 55.16 54.24 54.85 55.04 55.84 55.63 55.82 56.28 56.12 55.80 55.66 54.66 55.44 55.84 55.68 55.89 56.05 56.19 56.59 56.69 56.17 55.99 54.67 52.02 45.80
50.84 50.58 54.08 55.42 55.64 55.64 55.77 55.20 54.14 54.49 54.61 54.97 54.83 55.81 55.52 55.52 55.11 55.30 55.90 55.24 55.14 55.44 55.20 55.16 55.06 54.99 54.27 54.11 54.05 51.39 42.88 38.89
49.80 49.58 50.18 50.79 52.78 56.03 55.91 55.48 54.63 54.49 54.43 55.24 54.91 55.22 53.97 54.00 54.21 54.49 55.36 55.52 54.60 54.33 51.64 48.73 45.89 44.11 39.65 44.01 45.99 42.80 39.51 36.67
48.46 47.54 47.58 48.13 48.27 50.61 56.48 56.22 56.12 54.79 54.49 54.39 55.71 54.62 53.47 52.83 53.64 53.36 53.20 48.02 45.50 42.49 41.01 40.05 38.24 38.82 38.85 39.18 38.25 37.52 35.66 34.57
46.98 45.76 45.76 45.97 46.33 48.40 54.22 57.12 56.04 55.68 55.06 54.89 54.99 54.43 53.75 53.45 51.90 46.38 42.43 41.47 39.52 37.44 36.23 35.92 35.25 35.55 36.27 35.58 34.32 33.22 32.29 32.20

GFSFLT1_sfc_wetblb_114.txt.gz
Wetbulb
47.84 48.40 49.60 52.05 58.11 59.51 60.16 60.73 59.95 58.89 58.72 60.37 60.79 59.35 59.42 60.79 61.71 61.22 61.05 61.88 62.25 62.87 61.14 57.94 57.32 54.90 53.82 54.54 52.85 52.46 52.92 53.69
47.17 49.83 54.13 56.57 58.74 58.80 59.37 59.52 58.80 59.44 60.08 59.97 59.89 58.84 59.76 61.17 61.35 61.38 61.16 61.28 61.39 61.08 58.66 57.28 56.03 54.07 53.09 53.40 53.60 52.82 51.30 52.93
47.71 49.17 54.43 56.05 58.14 58.59 58.79 59.18 58.84 60.28 60.46 60.29 59.79 59.63 60.64 61.02 61.06 61.03 61.02 61.55 60.24 59.38 58.03 57.04 55.06 53.09 52.29 52.76 53.62 51.78 51.33 53.46
46.40 47.86 53.61 54.83 56.92 57.73 58.44 58.55 59.17 59.68 59.64 59.90 59.71 59.83 60.15 60.22 60.65 60.22 61.04 61.32 59.88 58.62 57.95 56.83 55.00 52.66 51.90 52.55 53.67 53.56 51.31 51.03
46.44 47.29 53.06 54.40 56.71 56.33 57.53 58.35 59.12 57.46 57.54 59.16 58.99 58.39 57.69 59.58 59.68 61.22 60.74 61.48 60.37 58.75 57.78 56.80 54.92 52.92 51.84 52.82 54.25 54.18 52.55 50.95
48.55 49.66 54.24 54.64 56.07 55.67 57.00 58.59 58.38 57.52 57.32 57.87 58.51 57.79 58.55 59.75 60.33 60.16 61.28 61.53 61.02 59.69 58.12 57.24 55.36 54.45 52.64 53.48 54.31 54.33 53.17 53.29
49.44 51.53 53.49 54.20 55.75 55.29 57.43 57.34 57.57 57.44 56.53 54.89 55.77 54.55 57.30 58.78 59.38 59.52 60.18 61.15 61.36 60.88 58.91 57.98 56.33 55.48 54.05 53.87 55.87 55.02 54.00 54.51
47.81 49.44 53.35 54.92 55.94 55.78 56.77 56.86 56.91 57.36 56.43 55.81 54.25 54.16 56.61 57.79 58.79 59.48 59.54 60.04 60.47 60.76 60.55 58.60 57.95 56.21 57.07 55.51 56.41 55.14 53.94 53.61
48.39 50.19 52.60 55.38 55.93 55.66 56.28 56.20 56.57 56.71 56.65 56.41 56.15 54.70 55.35 55.01 55.76 57.69 58.81 59.99 60.54 61.14 61.37 60.06 59.00 57.66 58.29 57.28 56.43 56.08 54.93 54.31
48.04 49.85 51.06 54.09 55.36 55.22 55.83 56.20 56.79 56.31 56.21 57.61 57.52 57.67 57.56 57.09 56.43 55.98 56.85 58.60 59.61 60.40 61.17 60.93 59.84 59.16 58.23 57.44 56.32 55.72 55.16 55.08
48.27 49.52 50.89 51.89 55.22 55.97 55.90 56.52 56.73 56.57 56.41 57.28 57.29 57.48 57.48 57.82 56.87 57.97 57.70 59.16 59.59 59.66 59.79 60.45 60.28 59.62 58.50 57.68 56.59 56.43 55.81 55.70
48.15 49.42 50.55 52.10 55.77 55.89 55.70 56.02 56.38 56.14 56.48 57.12 57.07 57.03 56.89 57.15 57.43 57.65 58.16 58.62 58.96 59.21 59.15 59.35 59.09 58.44 58.19 57.54 57.05 56.90 56.07 56.21
49.43 51.10 52.13 53.55 54.90 55.56 55.60 55.72 55.87 55.71 54.91 57.05 57.03 56.95 56.81 56.29 56.29 57.07 57.52 57.32 58.04 58.25 58.37 58.69 58.53 58.41 58.01 57.69 56.71 56.73 56.27 55.53
47.72 51.15 51.03 54.42 54.94 55.16 55.22 55.54 55.32 55.59 54.77 56.36 56.15 56.49 56.45 56.08 56.08 56.29 56.86 56.51 56.84 57.18 57.32 57.14 57.46 57.60 57.63 57.47 57.07 56.55 55.98 55.64
47.68 50.23 50.38 52.01 55.60 55.48 55.02 55.44 55.59 55.22 54.86 56.16 55.82 56.35 56.41 56.23 56.12 55.81 55.99 56.37 56.13 56.29 56.53 56.37 56.29 56.49 56.65 56.67 56.31 55.63 51.70 46.91
46.69 49.31 49.31 49.16 51.33 55.84 55.88 55.30 54.97 54.89 54.34 54.96 55.02 56.06 56.47 56.21 55.61 55.37 55.38 56.06 55.96 55.88 55.94 56.11 56.27 56.27 55.89 55.89 54.30 47.34 41.39 38.54
47.58 49.72 48.68 47.74 48.31 49.21 55.76 55.14 54.49 54.67 54.04 54.20 54.80 55.46 55.47 55.57 55.11 55.23 55.21 55.08 55.30 54.94 52.95 51.34 49.02 47.18 42.92 44.55 45.92 42.36 39.52 36.75
47.42 47.29 46.13 46.43 46.23 47.43 48.52 55.40 54.85 53.83 54.42 54.92 54.43 54.78 54.30 54.73 54.83 54.99 54.04 49.22 47.81 44.90 43.52 44.01 41.50 41.68 40.38 40.34 39.21 39.02 36.81 34.87
44.33 44.20 43.87 44.26 44.86 45.71 47.58 50.33 55.16 54.43 54.15 54.75 55.00 54.67 53.73 53.76 53.24 46.56 43.51 42.05 40.62 38.98 37.39 37.17 36.39 36.57 37.72 36.84 35.95 35.06 33.85 33.29

GFSFLT1_sfc_wetblb_117.txt.gz
Wetbulb
52.21 53.18 54.51 54.83 56.30 57.37 61.77 63.68 63.82 64.40 64.16 62.85 62.39 61.78 60.95 60.85 61.22 62.15 62.74 63.68 63.43 62.94 62.74 61.10 59.77 58.67 58.78 59.31 59.52 59.92 59.72 59.49
51.96 52.93 53.74 54.94 59.60 60.65 62.09 62.77 63.12 62.92 61.42 60.40 60.15 59.30 59.20 60.35 61.42 62.18 63.01 62.89 62.82 62.83 62.48 59.86 59.70 57.87 59.37 60.72 59.17 58.56 58.54 59.84
52.07 53.91 53.64 56.23 59.32 61.28 61.97 62.47 61.71 63.07 62.83 62.11 62.20 60.83 61.20 60.76 62.34 62.76 62.69 62.68 61.59 62.02 61.60 59.35 58.55 57.77 57.55 57.94 58.74 58.06 58.24 58.95
53.14 53.96 55.10 56.52 58.66 60.58 61.23 62.15 61.00 63.05 63.48 62.66 62.70 61.65 61.47 61.17 61.48 61.37 61.58 61.16 61.60 60.43 60.12 59.35 57.91 56.37 55.78 58.43 58.96 58.56 56.21 57.97
53.03 53.21 54.04 56.77 57.80 61.25 61.84 61.47 61.09 61.68 62.74 62.04 61.18 59.71 58.35 60.16 61.30 60.99 61.33 60.44 59.69 59.58 59.43 57.91 56.56 56.22 55.61 58.28 57.83 57.89 57.31 56.45
51.83 52.90 53.99 57.02 58.58 60.21 61.57 61.16 60.26 59.87 60.72 61.42 61.46 59.50 59.80 62.46 62.13 60.64 61.67 61.27 59.34 59.15 58.15 57.10 55.27 55.39 57.12 57.04 58.47 59.03 59.61 58.59
52.41 53.76 54.72 55.90 59.15 59.61 60.12 60.10 58.90 58.60 59.64 60.39 60.64 59.60 59.20 60.35 60.97 60.07 61.22 60.96 60.02 59.41 57.84 56.86 55.37 55.12 55.63 56.53 57.29 58.49 58.85 59.42
51.08 52.07 53.05 54.32 57.23 56.89 58.09 58.55 57.68 58.41 58.81 59.51 59.71 60.26 61.31 60.92 60.54 60.95 59.66 60.58 60.81 59.46 59.08 57.30 56.55 56.35 55.79 56.24 57.31 57.88 58.48 58.48
50.71 52.05 52.98 53.84 54.92 57.65 56.94 57.11 57.30 57.79 58.77 59.30 60.71 61.51 61.03 61.31 61.22 61.38 60.81 60.28 60.52 61.28 60.23 59.68 57.86 56.78 55.41 56.51 57.60 57.47 58.41 58.92
50.72 52.43 53.29 54.88 54.93 55.89 56.44 56.85 57.52 57.98 58.27 59.63 60.09 59.97 58.95 58.69 59.06 60.01 61.36 61.23 61.65 61.27 60.42 60.13 59.80 57.27 57.83 57.47 58.19 57.87 58.69 58.48
51.04 52.78 53.95 54.70 57.03 57.01 57.98 57.17 57.18 57.76 58.63 59.97 60.21 60.32 59.97 59.36 59.53 59.02 59.67 59.98 60.26 60.66 61.00 60.53 59.34 58.56 57.80 56.87 56.85 58.16 57.06 57.21
50.07 51.76 53.62 53.54 55.86 58.20 57.25 56.80 57.17 57.22 58.85 59.89 59.93 58.92 59.04 58.97 58.62 59.19 60.23 60.53 60.94 60.52 60.65 60.45 59.61 58.59 57.80 57.03 56.71 56.55 55.35 55.31
49.94 51.47 52.50 52.55 51.01 56.09 56.67 56.72 56.57 57.10 58.81 59.10 59.20 58.88 58.27 57.83 58.04 58.94 60.00 59.22 60.07 59.98 59.68 59.53 59.43 59.55 58.26 57.13 55.96 55.66 55.11 54.72
49.12 49.84 49.72 50.81 50.65 50.53 56.16 56.24 56.27 56.48 57.56 58.51 58.25 58.51 57.40 57.42 58.11 58.08 58.90 58.70 58.18 58.17 58.46 58.21 58.11 59.31 58.28 57.63 56.75 55.88 55.73 55.25
48.90 49.29 49.12 50.13 50.66 49.88 52.03 55.95 56.24 56.30 56.92 57.84 57.81 57.84 57.24 57.29 57.44 57.37 58.34 57.92 56.84 56.94 57.10 57.33 57.65 58.09 57.96 57.72 57.08 56.46 56.28 55.91
48.82 49.24 49.81 49.66 49.08 48.86 49.16 54.91 56.12 56.20 56.10 57.17 57.51 58.02 57.62 57.31 56.90 57.03 57.00 57.06 57.09 56.82 56.48 56.14 56.48 56.50 56.91 56.60 54.18 47.64 44.02 40.79
49.36 49.60 48.92 46.74 46.54 46.80 47.21 49.07 55.69 55.98 55.86 56.74 57.57 57.33 56.86 56.80 56.24 56.22 56.14 56.08 56.03 55.23 54.46 53.09 51.32 49.20 42.24 42.44 45.30 42.64 39.76 37.29
45.98 45.75 45.74 44.77 44.29 44.93 45.97 47.47 50.69 55.01 55.09 56.50 56.28 56.49 56.03 55.95 56.06 55.75 55.10 51.75 49.33 46.71 45.37 44.96 42.19 42.39 40.43 39.79 38.77 38.63 36.12 34.64
43.34 42.66 43.21 43.81 43.75 43.94 44.74 46.60 49.43 54.73 54.86 55.32 55.65 55.88 55.45 55.67 55.02 49.52 46.24 45.17 43.69 41.48 39.02 38.25 37.49 37.36 37.48 36.83 35.89 34.89 33.51 32.97

GFSFLT1_sfc_wetblb_120.txt.gz
Wetbulb
54.17 55.54 58.24 59.51 60.81 60.55 60.90 61.13 64.63 67.03 68.42 68.86 67.81 65.76 64.52 65.52 66.57 66.89 67.66 66.36 64.78 64.54 63.92 63.30 63.30 61.60 60.27 60.36 60.57 63.49 63.58 63.52
54.43 58.38 60.53 61.57 62.50 62.39 63.14 63.42 65.08 66.51 66.02 65.55 63.68 62.38 62.17 62.81 64.25 65.19 64.22 65.58 64.74 63.80 63.27 62.67 61.59 60.51 60.05 60.82 60.78 63.10 62.13 63.19
56.15 58.49 59.96 60.92 62.57 63.21 63.81 64.38 65.61 66.34 65.03 64.85 64.48 63.70 63.56 63.59 62.87 64.20 63.52 64.13 64.87 63.67 63.20 62.00 61.06 60.06 59.64 59.85 60.45 61.56 61.99 63.28
56.07 57.77 59.19 60.56 61.80 63.35 63.60 64.62 65.28 65.41 66.14 64.26 65.06 64.18 63.92 61.61 62.11 62.10 63.09 65.02 65.42 64.39 63.21 61.49 60.40 60.01 58.39 58.83 60.10 59.66 60.34 61.73
56.25 57.09 58.16 59.29 62.01 63.95 64.18 64.57 64.52 62.96 64.53 63.44 64.31 63.47 62.56 63.55 63.46 63.79 64.41 65.09 64.51 62.96 62.15 61.65 60.23 59.96 59.03 58.45 59.49 60.50 62.80 60.40
54.73 55.88 57.60 58.86 61.32 63.30 64.17 64.15 62.38 62.52 63.44 65.41 65.10 64.92 64.68 64.61 62.41 63.09 63.88 62.15 62.27 63.00 61.63 59.62 59.75 59.37 59.36 58.90 59.31 62.54 62.99 61.64
54.78 56.33 57.74 58.37 60.13 61.74 61.89 61.72 61.48 61.82 62.76 64.79 64.93 65.16 63.93 63.56 62.70 63.26 63.31 60.50 60.12 60.25 58.90 58.37 57.99 58.25 58.20 58.35 58.91 61.48 62.50 62.79
54.40 55.24 56.45 57.80 59.15 59.89 60.44 59.15 59.64 60.17 60.81 62.83 63.96 63.84 63.72 62.72 62.98 62.84 62.52 60.73 58.86 58.18 58.31 56.96 56.72 57.02 57.35 58.30 58.31 61.90 62.02 62.47
53.71 55.33 56.91 57.91 59.10 61.25 60.84 60.41 58.76 59.61 59.78 60.85 62.61 63.44 62.44 62.32 63.20 62.91 62.30 61.31 60.69 60.00 58.58 57.47 55.92 55.88 56.59 57.03 57.86 60.81 62.49 62.99
53.35 54.35 56.42 57.31 57.82 59.17 61.36 60.57 60.28 59.32 59.08 60.10 61.11 62.27 63.86 63.15 63.70 63.78 64.04 62.41 61.49 61.57 60.69 58.67 57.46 55.86 55.50 56.72 58.01 59.21 60.26 62.48
52.66 53.82 55.25 56.13 56.84 57.26 56.54 61.31 59.63 59.36 58.97 59.73 62.01 62.72 63.84 63.88 63.22 63.76 63.77 62.32 62.15 61.11 60.09 59.73 58.66 58.06 56.63 56.47 57.12 58.26 59.21 59.65
52.08 53.69 54.39 55.33 56.68 56.84 55.47 56.69 58.42 58.31 58.95 59.08 61.63 61.82 62.49 63.18 60.95 61.23 61.77 61.15 60.69 60.35 60.63 59.93 59.27 58.59 58.62 57.43 56.43 57.27 58.67 59.36
51.91 52.94 54.14 54.70 55.23 55.64 55.04 52.07 57.53 58.12 58.84 59.10 60.53 61.90 62.14 62.25 61.19 61.54 61.60 60.59 62.57 62.28 60.93 60.45 59.79 57.83 57.98 57.62 56.58 57.99 59.67 59.00
51.24 52.69 53.32 53.57 53.98 54.28 54.00 51.60 51.37 57.83 58.47 58.99 59.48 61.09 60.80 60.56 60.46 61.13 60.24 59.80 60.11 60.02 60.30 59.91 59.70 59.51 58.28 57.93 57.40 56.34 56.47 56.48
50.49 52.31 53.61 53.74 53.29 52.82 52.65 49.29 49.85 56.79 57.65 58.20 58.86 59.86 59.75 59.98 61.22 59.92 59.51 59.34 59.42 58.76 59.30 59.26 58.92 58.58 59.05 58.31 57.71 56.51 55.77 55.40
50.35 52.22 53.58 53.36 51.79 51.16 49.71 48.20 49.27 52.89 56.46 57.43 58.19 59.19 60.47 60.75 60.96 59.16 59.33 59.43 58.63 58.40 58.72 58.33 56.82 57.28 57.34 57.62 56.96 55.94 54.36 48.53
51.09 51.36 51.12 49.97 49.24 47.46 45.98 47.04 47.65 48.68 55.94 56.38 58.47 59.07 59.31 59.93 60.13 58.80 58.38 57.81 57.48 57.11 57.13 54.04 50.87 46.53 40.85 42.66 45.80 43.84 40.66 38.14
48.98 48.88 48.51 48.63 48.85 46.53 44.31 45.31 47.04 47.89 53.06 56.61 57.95 58.87 58.71 59.54 58.96 58.25 56.91 55.06 52.33 47.90 46.38 45.16 42.22 40.89 38.89 39.22 38.73 38.62 36.78 35.67
47.19 47.16 46.73 47.31 47.38 47.25 44.13 44.30 45.84 47.83 49.94 55.98 57.28 57.89 57.66 58.81 57.77 56.21 51.18 48.90 46.17 42.53 39.89 39.82 38.33 37.37 36.56 35.93 35.23 34.35 33.29 32.89